<?xml version="1.0" encoding="UTF-8" standalone="no" ?>
<gpx xmlns="http://www.topografix.com/GPX/1/1" xmlns:xsi="http://www.w3.org/2001/XMLSchema-instance" xsi:schemaLocation="http://www.topografix.com/GPX/1/1 http://www.topografix.com/GPX/1/1/gpx.xsd" version="1.1" creator="VisuGPX - https://www.visugpx.com">
  <metadata>
    <name>PARCOURS UTV 2014 ETAPE 3</name>
    <desc><![CDATA[Parcours UTV 2014]]></desc>
  </metadata>
  <trk>
    <name><![CDATA[Reco-18052014-propre on GPSies.com]]></name>
    <trkseg>
      <trkpt lat="45.04532" lon="5.56026">
        <ele>1169</ele>
        <time>2010-01-01T00:00:00Z</time>
      </trkpt>
      <trkpt lat="45.04556" lon="5.5606">
        <ele>1177</ele>
        <time>2010-01-01T00:00:13Z</time>
      </trkpt>
      <trkpt lat="45.04556" lon="5.56091">
        <ele>1182</ele>
        <time>2010-01-01T00:00:22Z</time>
      </trkpt>
      <trkpt lat="45.04543" lon="5.56105">
        <ele>1182</ele>
        <time>2010-01-01T00:00:28Z</time>
      </trkpt>
      <trkpt lat="45.04541" lon="5.56116">
        <ele>1184</ele>
        <time>2010-01-01T00:00:31Z</time>
      </trkpt>
      <trkpt lat="45.04543" lon="5.56129">
        <ele>1186</ele>
        <time>2010-01-01T00:00:35Z</time>
      </trkpt>
      <trkpt lat="45.04545" lon="5.56141">
        <ele>1188</ele>
        <time>2010-01-01T00:00:39Z</time>
      </trkpt>
      <trkpt lat="45.04546" lon="5.56158">
        <ele>1190</ele>
        <time>2010-01-01T00:00:44Z</time>
      </trkpt>
      <trkpt lat="45.04549" lon="5.56161">
        <ele>1191</ele>
        <time>2010-01-01T00:00:45Z</time>
      </trkpt>
      <trkpt lat="45.04553" lon="5.56163">
        <ele>1191</ele>
        <time>2010-01-01T00:00:47Z</time>
      </trkpt>
      <trkpt lat="45.04555" lon="5.56162">
        <ele>1191</ele>
        <time>2010-01-01T00:00:47Z</time>
      </trkpt>
      <trkpt lat="45.04561" lon="5.56162">
        <ele>1192</ele>
        <time>2010-01-01T00:00:50Z</time>
      </trkpt>
      <trkpt lat="45.04564" lon="5.56162">
        <ele>1192</ele>
        <time>2010-01-01T00:00:51Z</time>
      </trkpt>
      <trkpt lat="45.0457" lon="5.56162">
        <ele>1192</ele>
        <time>2010-01-01T00:00:53Z</time>
      </trkpt>
      <trkpt lat="45.04581" lon="5.56159">
        <ele>1193</ele>
        <time>2010-01-01T00:00:58Z</time>
      </trkpt>
      <trkpt lat="45.04585" lon="5.56145">
        <ele>1192</ele>
        <time>2010-01-01T00:01:02Z</time>
      </trkpt>
      <trkpt lat="45.04592" lon="5.56129">
        <ele>1191</ele>
        <time>2010-01-01T00:01:07Z</time>
      </trkpt>
      <trkpt lat="45.04603" lon="5.56113">
        <ele>1191</ele>
        <time>2010-01-01T00:01:13Z</time>
      </trkpt>
      <trkpt lat="45.04615" lon="5.561">
        <ele>1190</ele>
        <time>2010-01-01T00:01:20Z</time>
      </trkpt>
      <trkpt lat="45.04627" lon="5.56087">
        <ele>1190</ele>
        <time>2010-01-01T00:01:26Z</time>
      </trkpt>
      <trkpt lat="45.04639" lon="5.56074">
        <ele>1189</ele>
        <time>2010-01-01T00:01:32Z</time>
      </trkpt>
      <trkpt lat="45.04651" lon="5.5606">
        <ele>1189</ele>
        <time>2010-01-01T00:01:38Z</time>
      </trkpt>
      <trkpt lat="45.04662" lon="5.56045">
        <ele>1188</ele>
        <time>2010-01-01T00:01:44Z</time>
      </trkpt>
      <trkpt lat="45.04671" lon="5.56024">
        <ele>1187</ele>
        <time>2010-01-01T00:01:51Z</time>
      </trkpt>
      <trkpt lat="45.04678" lon="5.56007">
        <ele>1186</ele>
        <time>2010-01-01T00:01:56Z</time>
      </trkpt>
      <trkpt lat="45.04683" lon="5.55995">
        <ele>1185</ele>
        <time>2010-01-01T00:02:01Z</time>
      </trkpt>
      <trkpt lat="45.04688" lon="5.55974">
        <ele>1184</ele>
        <time>2010-01-01T00:02:07Z</time>
      </trkpt>
      <trkpt lat="45.04691" lon="5.55956">
        <ele>1183</ele>
        <time>2010-01-01T00:02:12Z</time>
      </trkpt>
      <trkpt lat="45.04694" lon="5.55931">
        <ele>1180</ele>
        <time>2010-01-01T00:02:19Z</time>
      </trkpt>
      <trkpt lat="45.04698" lon="5.55919">
        <ele>1179</ele>
        <time>2010-01-01T00:02:23Z</time>
      </trkpt>
      <trkpt lat="45.047" lon="5.55908">
        <ele>1178</ele>
        <time>2010-01-01T00:02:26Z</time>
      </trkpt>
      <trkpt lat="45.04703" lon="5.55888">
        <ele>1176</ele>
        <time>2010-01-01T00:02:32Z</time>
      </trkpt>
      <trkpt lat="45.04706" lon="5.55864">
        <ele>1173</ele>
        <time>2010-01-01T00:02:39Z</time>
      </trkpt>
      <trkpt lat="45.04711" lon="5.55845">
        <ele>1171</ele>
        <time>2010-01-01T00:02:44Z</time>
      </trkpt>
      <trkpt lat="45.04722" lon="5.5583">
        <ele>1169</ele>
        <time>2010-01-01T00:02:51Z</time>
      </trkpt>
      <trkpt lat="45.04739" lon="5.55831">
        <ele>1169</ele>
        <time>2010-01-01T00:02:57Z</time>
      </trkpt>
      <trkpt lat="45.04756" lon="5.55833">
        <ele>1170</ele>
        <time>2010-01-01T00:03:05Z</time>
      </trkpt>
      <trkpt lat="45.0477" lon="5.55827">
        <ele>1169</ele>
        <time>2010-01-01T00:03:10Z</time>
      </trkpt>
      <trkpt lat="45.04781" lon="5.55817">
        <ele>1167</ele>
        <time>2010-01-01T00:03:16Z</time>
      </trkpt>
      <trkpt lat="45.04795" lon="5.55806">
        <ele>1166</ele>
        <time>2010-01-01T00:03:22Z</time>
      </trkpt>
      <trkpt lat="45.04808" lon="5.558">
        <ele>1165</ele>
        <time>2010-01-01T00:03:27Z</time>
      </trkpt>
      <trkpt lat="45.04826" lon="5.55796">
        <ele>1164</ele>
        <time>2010-01-01T00:03:35Z</time>
      </trkpt>
      <trkpt lat="45.04836" lon="5.55803">
        <ele>1165</ele>
        <time>2010-01-01T00:03:39Z</time>
      </trkpt>
      <trkpt lat="45.04845" lon="5.55816">
        <ele>1167</ele>
        <time>2010-01-01T00:03:44Z</time>
      </trkpt>
      <trkpt lat="45.04849" lon="5.55822">
        <ele>1168</ele>
        <time>2010-01-01T00:03:47Z</time>
      </trkpt>
      <trkpt lat="45.0485" lon="5.55826">
        <ele>1169</ele>
        <time>2010-01-01T00:03:48Z</time>
      </trkpt>
      <trkpt lat="45.04856" lon="5.55837">
        <ele>1171</ele>
        <time>2010-01-01T00:03:52Z</time>
      </trkpt>
      <trkpt lat="45.04857" lon="5.55841">
        <ele>1172</ele>
        <time>2010-01-01T00:03:53Z</time>
      </trkpt>
      <trkpt lat="45.04866" lon="5.55843">
        <ele>1172</ele>
        <time>2010-01-01T00:03:56Z</time>
      </trkpt>
      <trkpt lat="45.04871" lon="5.55841">
        <ele>1171</ele>
        <time>2010-01-01T00:03:59Z</time>
      </trkpt>
      <trkpt lat="45.04881" lon="5.55836">
        <ele>1170</ele>
        <time>2010-01-01T00:04:03Z</time>
      </trkpt>
      <trkpt lat="45.04892" lon="5.55831">
        <ele>1168</ele>
        <time>2010-01-01T00:04:08Z</time>
      </trkpt>
      <trkpt lat="45.04922" lon="5.55827">
        <ele>1168</ele>
        <time>2010-01-01T00:04:20Z</time>
      </trkpt>
      <trkpt lat="45.04948" lon="5.5581">
        <ele>1169</ele>
        <time>2010-01-01T00:04:31Z</time>
      </trkpt>
      <trkpt lat="45.04971" lon="5.55785">
        <ele>1170</ele>
        <time>2010-01-01T00:04:43Z</time>
      </trkpt>
      <trkpt lat="45.04992" lon="5.55821">
        <ele>1175</ele>
        <time>2010-01-01T00:04:56Z</time>
      </trkpt>
      <trkpt lat="45.04994" lon="5.55827">
        <ele>1175</ele>
        <time>2010-01-01T00:04:58Z</time>
      </trkpt>
      <trkpt lat="45.04997" lon="5.55841">
        <ele>1177</ele>
        <time>2010-01-01T00:05:02Z</time>
      </trkpt>
      <trkpt lat="45.05" lon="5.55849">
        <ele>1178</ele>
        <time>2010-01-01T00:05:04Z</time>
      </trkpt>
      <trkpt lat="45.05001" lon="5.55855">
        <ele>1179</ele>
        <time>2010-01-01T00:05:06Z</time>
      </trkpt>
      <trkpt lat="45.05006" lon="5.55872">
        <ele>1182</ele>
        <time>2010-01-01T00:05:11Z</time>
      </trkpt>
      <trkpt lat="45.05008" lon="5.55883">
        <ele>1183</ele>
        <time>2010-01-01T00:05:15Z</time>
      </trkpt>
      <trkpt lat="45.05009" lon="5.55891">
        <ele>1184</ele>
        <time>2010-01-01T00:05:17Z</time>
      </trkpt>
      <trkpt lat="45.0501" lon="5.55895">
        <ele>1185</ele>
        <time>2010-01-01T00:05:18Z</time>
      </trkpt>
      <trkpt lat="45.05011" lon="5.55901">
        <ele>1186</ele>
        <time>2010-01-01T00:05:20Z</time>
      </trkpt>
      <trkpt lat="45.05012" lon="5.55908">
        <ele>1187</ele>
        <time>2010-01-01T00:05:22Z</time>
      </trkpt>
      <trkpt lat="45.05012" lon="5.55916">
        <ele>1188</ele>
        <time>2010-01-01T00:05:24Z</time>
      </trkpt>
      <trkpt lat="45.05013" lon="5.55923">
        <ele>1189</ele>
        <time>2010-01-01T00:05:26Z</time>
      </trkpt>
      <trkpt lat="45.05013" lon="5.55934">
        <ele>1191</ele>
        <time>2010-01-01T00:05:29Z</time>
      </trkpt>
      <trkpt lat="45.05014" lon="5.55951">
        <ele>1194</ele>
        <time>2010-01-01T00:05:34Z</time>
      </trkpt>
      <trkpt lat="45.05016" lon="5.55965">
        <ele>1196</ele>
        <time>2010-01-01T00:05:38Z</time>
      </trkpt>
      <trkpt lat="45.05017" lon="5.55975">
        <ele>1198</ele>
        <time>2010-01-01T00:05:41Z</time>
      </trkpt>
      <trkpt lat="45.05024" lon="5.55988">
        <ele>1201</ele>
        <time>2010-01-01T00:05:45Z</time>
      </trkpt>
      <trkpt lat="45.05027" lon="5.55999">
        <ele>1203</ele>
        <time>2010-01-01T00:05:49Z</time>
      </trkpt>
      <trkpt lat="45.0503" lon="5.56011">
        <ele>1204</ele>
        <time>2010-01-01T00:05:52Z</time>
      </trkpt>
      <trkpt lat="45.05031" lon="5.56021">
        <ele>1205</ele>
        <time>2010-01-01T00:05:55Z</time>
      </trkpt>
      <trkpt lat="45.05036" lon="5.56031">
        <ele>1206</ele>
        <time>2010-01-01T00:05:59Z</time>
      </trkpt>
      <trkpt lat="45.05038" lon="5.56041">
        <ele>1207</ele>
        <time>2010-01-01T00:06:02Z</time>
      </trkpt>
      <trkpt lat="45.05039" lon="5.56043">
        <ele>1207</ele>
        <time>2010-01-01T00:06:02Z</time>
      </trkpt>
      <trkpt lat="45.05042" lon="5.56048">
        <ele>1207</ele>
        <time>2010-01-01T00:06:04Z</time>
      </trkpt>
      <trkpt lat="45.05043" lon="5.5605">
        <ele>1207</ele>
        <time>2010-01-01T00:06:05Z</time>
      </trkpt>
      <trkpt lat="45.05044" lon="5.5605">
        <ele>1207</ele>
        <time>2010-01-01T00:06:05Z</time>
      </trkpt>
      <trkpt lat="45.05047" lon="5.56043">
        <ele>1207</ele>
        <time>2010-01-01T00:06:07Z</time>
      </trkpt>
      <trkpt lat="45.05049" lon="5.56036">
        <ele>1207</ele>
        <time>2010-01-01T00:06:10Z</time>
      </trkpt>
      <trkpt lat="45.05051" lon="5.56031">
        <ele>1207</ele>
        <time>2010-01-01T00:06:11Z</time>
      </trkpt>
      <trkpt lat="45.05052" lon="5.56028">
        <ele>1207</ele>
        <time>2010-01-01T00:06:12Z</time>
      </trkpt>
      <trkpt lat="45.05053" lon="5.56031">
        <ele>1207</ele>
        <time>2010-01-01T00:06:13Z</time>
      </trkpt>
      <trkpt lat="45.05055" lon="5.56028">
        <ele>1207</ele>
        <time>2010-01-01T00:06:14Z</time>
      </trkpt>
      <trkpt lat="45.05055" lon="5.56022">
        <ele>1207</ele>
        <time>2010-01-01T00:06:16Z</time>
      </trkpt>
      <trkpt lat="45.05059" lon="5.56019">
        <ele>1207</ele>
        <time>2010-01-01T00:06:18Z</time>
      </trkpt>
      <trkpt lat="45.05059" lon="5.56019">
        <ele>1207</ele>
        <time>2010-01-01T00:06:18Z</time>
      </trkpt>
      <trkpt lat="45.05064" lon="5.56016">
        <ele>1208</ele>
        <time>2010-01-01T00:06:20Z</time>
      </trkpt>
      <trkpt lat="45.05067" lon="5.56015">
        <ele>1208</ele>
        <time>2010-01-01T00:06:21Z</time>
      </trkpt>
      <trkpt lat="45.05076" lon="5.56018">
        <ele>1209</ele>
        <time>2010-01-01T00:06:25Z</time>
      </trkpt>
      <trkpt lat="45.05078" lon="5.56018">
        <ele>1209</ele>
        <time>2010-01-01T00:06:26Z</time>
      </trkpt>
      <trkpt lat="45.0508" lon="5.56016">
        <ele>1209</ele>
        <time>2010-01-01T00:06:27Z</time>
      </trkpt>
      <trkpt lat="45.05085" lon="5.56018">
        <ele>1210</ele>
        <time>2010-01-01T00:06:29Z</time>
      </trkpt>
      <trkpt lat="45.05086" lon="5.56018">
        <ele>1210</ele>
        <time>2010-01-01T00:06:29Z</time>
      </trkpt>
      <trkpt lat="45.05088" lon="5.56017">
        <ele>1211</ele>
        <time>2010-01-01T00:06:30Z</time>
      </trkpt>
      <trkpt lat="45.0509" lon="5.56017">
        <ele>1211</ele>
        <time>2010-01-01T00:06:31Z</time>
      </trkpt>
      <trkpt lat="45.05094" lon="5.5602">
        <ele>1212</ele>
        <time>2010-01-01T00:06:33Z</time>
      </trkpt>
      <trkpt lat="45.05098" lon="5.56021">
        <ele>1213</ele>
        <time>2010-01-01T00:06:35Z</time>
      </trkpt>
      <trkpt lat="45.05101" lon="5.56022">
        <ele>1214</ele>
        <time>2010-01-01T00:06:36Z</time>
      </trkpt>
      <trkpt lat="45.05105" lon="5.56024">
        <ele>1215</ele>
        <time>2010-01-01T00:06:37Z</time>
      </trkpt>
      <trkpt lat="45.05108" lon="5.56024">
        <ele>1215</ele>
        <time>2010-01-01T00:06:38Z</time>
      </trkpt>
      <trkpt lat="45.05111" lon="5.56023">
        <ele>1216</ele>
        <time>2010-01-01T00:06:40Z</time>
      </trkpt>
      <trkpt lat="45.05114" lon="5.56023">
        <ele>1217</ele>
        <time>2010-01-01T00:06:41Z</time>
      </trkpt>
      <trkpt lat="45.05117" lon="5.56018">
        <ele>1218</ele>
        <time>2010-01-01T00:06:43Z</time>
      </trkpt>
      <trkpt lat="45.05119" lon="5.56016">
        <ele>1218</ele>
        <time>2010-01-01T00:06:44Z</time>
      </trkpt>
      <trkpt lat="45.05121" lon="5.56015">
        <ele>1219</ele>
        <time>2010-01-01T00:06:45Z</time>
      </trkpt>
      <trkpt lat="45.05125" lon="5.5601">
        <ele>1220</ele>
        <time>2010-01-01T00:06:47Z</time>
      </trkpt>
      <trkpt lat="45.05134" lon="5.55998">
        <ele>1222</ele>
        <time>2010-01-01T00:06:52Z</time>
      </trkpt>
      <trkpt lat="45.0514" lon="5.55987">
        <ele>1223</ele>
        <time>2010-01-01T00:06:56Z</time>
      </trkpt>
      <trkpt lat="45.05142" lon="5.55984">
        <ele>1223</ele>
        <time>2010-01-01T00:06:57Z</time>
      </trkpt>
      <trkpt lat="45.05146" lon="5.5597">
        <ele>1224</ele>
        <time>2010-01-01T00:07:01Z</time>
      </trkpt>
      <trkpt lat="45.05153" lon="5.5595">
        <ele>1224</ele>
        <time>2010-01-01T00:07:08Z</time>
      </trkpt>
      <trkpt lat="45.05159" lon="5.55932">
        <ele>1225</ele>
        <time>2010-01-01T00:07:13Z</time>
      </trkpt>
      <trkpt lat="45.05166" lon="5.55918">
        <ele>1226</ele>
        <time>2010-01-01T00:07:18Z</time>
      </trkpt>
      <trkpt lat="45.05178" lon="5.55912">
        <ele>1228</ele>
        <time>2010-01-01T00:07:23Z</time>
      </trkpt>
      <trkpt lat="45.05184" lon="5.55915">
        <ele>1229</ele>
        <time>2010-01-01T00:07:25Z</time>
      </trkpt>
      <trkpt lat="45.05186" lon="5.55921">
        <ele>1230</ele>
        <time>2010-01-01T00:07:28Z</time>
      </trkpt>
      <trkpt lat="45.05191" lon="5.55939">
        <ele>1231</ele>
        <time>2010-01-01T00:07:33Z</time>
      </trkpt>
      <trkpt lat="45.05193" lon="5.55954">
        <ele>1232</ele>
        <time>2010-01-01T00:07:37Z</time>
      </trkpt>
      <trkpt lat="45.05196" lon="5.55979">
        <ele>1234</ele>
        <time>2010-01-01T00:07:44Z</time>
      </trkpt>
      <trkpt lat="45.05197" lon="5.55996">
        <ele>1235</ele>
        <time>2010-01-01T00:07:49Z</time>
      </trkpt>
      <trkpt lat="45.05202" lon="5.56014">
        <ele>1235</ele>
        <time>2010-01-01T00:07:55Z</time>
      </trkpt>
      <trkpt lat="45.05207" lon="5.56033">
        <ele>1236</ele>
        <time>2010-01-01T00:08:00Z</time>
      </trkpt>
      <trkpt lat="45.0521" lon="5.56048">
        <ele>1236</ele>
        <time>2010-01-01T00:08:05Z</time>
      </trkpt>
      <trkpt lat="45.05216" lon="5.56061">
        <ele>1236</ele>
        <time>2010-01-01T00:08:09Z</time>
      </trkpt>
      <trkpt lat="45.05221" lon="5.5608">
        <ele>1236</ele>
        <time>2010-01-01T00:08:15Z</time>
      </trkpt>
      <trkpt lat="45.05227" lon="5.56098">
        <ele>1235</ele>
        <time>2010-01-01T00:08:20Z</time>
      </trkpt>
      <trkpt lat="45.05234" lon="5.56115">
        <ele>1235</ele>
        <time>2010-01-01T00:08:26Z</time>
      </trkpt>
      <trkpt lat="45.05236" lon="5.56129">
        <ele>1235</ele>
        <time>2010-01-01T00:08:30Z</time>
      </trkpt>
      <trkpt lat="45.05241" lon="5.56151">
        <ele>1234</ele>
        <time>2010-01-01T00:08:37Z</time>
      </trkpt>
      <trkpt lat="45.05242" lon="5.56169">
        <ele>1233</ele>
        <time>2010-01-01T00:08:42Z</time>
      </trkpt>
      <trkpt lat="45.0524" lon="5.5619">
        <ele>1233</ele>
        <time>2010-01-01T00:08:48Z</time>
      </trkpt>
      <trkpt lat="45.05237" lon="5.56209">
        <ele>1232</ele>
        <time>2010-01-01T00:08:53Z</time>
      </trkpt>
      <trkpt lat="45.05235" lon="5.56227">
        <ele>1232</ele>
        <time>2010-01-01T00:08:58Z</time>
      </trkpt>
      <trkpt lat="45.05235" lon="5.56234">
        <ele>1232</ele>
        <time>2010-01-01T00:09:00Z</time>
      </trkpt>
      <trkpt lat="45.05236" lon="5.56239">
        <ele>1232</ele>
        <time>2010-01-01T00:09:02Z</time>
      </trkpt>
      <trkpt lat="45.05245" lon="5.56248">
        <ele>1233</ele>
        <time>2010-01-01T00:09:06Z</time>
      </trkpt>
      <trkpt lat="45.05259" lon="5.5624">
        <ele>1233</ele>
        <time>2010-01-01T00:09:12Z</time>
      </trkpt>
      <trkpt lat="45.05275" lon="5.56223">
        <ele>1232</ele>
        <time>2010-01-01T00:09:20Z</time>
      </trkpt>
      <trkpt lat="45.05291" lon="5.56212">
        <ele>1232</ele>
        <time>2010-01-01T00:09:27Z</time>
      </trkpt>
      <trkpt lat="45.05308" lon="5.56209">
        <ele>1231</ele>
        <time>2010-01-01T00:09:34Z</time>
      </trkpt>
      <trkpt lat="45.05325" lon="5.5621">
        <ele>1230</ele>
        <time>2010-01-01T00:09:41Z</time>
      </trkpt>
      <trkpt lat="45.0534" lon="5.56217">
        <ele>1230</ele>
        <time>2010-01-01T00:09:47Z</time>
      </trkpt>
      <trkpt lat="45.05354" lon="5.56224">
        <ele>1231</ele>
        <time>2010-01-01T00:09:53Z</time>
      </trkpt>
      <trkpt lat="45.05368" lon="5.56234">
        <ele>1231</ele>
        <time>2010-01-01T00:09:59Z</time>
      </trkpt>
      <trkpt lat="45.05384" lon="5.56246">
        <ele>1231</ele>
        <time>2010-01-01T00:10:07Z</time>
      </trkpt>
      <trkpt lat="45.05387" lon="5.56247">
        <ele>1231</ele>
        <time>2010-01-01T00:10:08Z</time>
      </trkpt>
      <trkpt lat="45.054" lon="5.56256">
        <ele>1231</ele>
        <time>2010-01-01T00:10:14Z</time>
      </trkpt>
      <trkpt lat="45.05416" lon="5.56266">
        <ele>1231</ele>
        <time>2010-01-01T00:10:21Z</time>
      </trkpt>
      <trkpt lat="45.05432" lon="5.56277">
        <ele>1232</ele>
        <time>2010-01-01T00:10:28Z</time>
      </trkpt>
      <trkpt lat="45.05445" lon="5.56291">
        <ele>1231</ele>
        <time>2010-01-01T00:10:34Z</time>
      </trkpt>
      <trkpt lat="45.05453" lon="5.56309">
        <ele>1231</ele>
        <time>2010-01-01T00:10:40Z</time>
      </trkpt>
      <trkpt lat="45.05458" lon="5.56329">
        <ele>1230</ele>
        <time>2010-01-01T00:10:46Z</time>
      </trkpt>
      <trkpt lat="45.05464" lon="5.56353">
        <ele>1229</ele>
        <time>2010-01-01T00:10:54Z</time>
      </trkpt>
      <trkpt lat="45.05473" lon="5.56374">
        <ele>1229</ele>
        <time>2010-01-01T00:11:00Z</time>
      </trkpt>
      <trkpt lat="45.05485" lon="5.56395">
        <ele>1228</ele>
        <time>2010-01-01T00:11:08Z</time>
      </trkpt>
      <trkpt lat="45.05496" lon="5.56414">
        <ele>1228</ele>
        <time>2010-01-01T00:11:15Z</time>
      </trkpt>
      <trkpt lat="45.05503" lon="5.56425">
        <ele>1228</ele>
        <time>2010-01-01T00:11:19Z</time>
      </trkpt>
      <trkpt lat="45.05513" lon="5.56441">
        <ele>1228</ele>
        <time>2010-01-01T00:11:25Z</time>
      </trkpt>
      <trkpt lat="45.05523" lon="5.56456">
        <ele>1227</ele>
        <time>2010-01-01T00:11:31Z</time>
      </trkpt>
      <trkpt lat="45.05536" lon="5.56472">
        <ele>1227</ele>
        <time>2010-01-01T00:11:38Z</time>
      </trkpt>
      <trkpt lat="45.05549" lon="5.56485">
        <ele>1226</ele>
        <time>2010-01-01T00:11:44Z</time>
      </trkpt>
      <trkpt lat="45.05565" lon="5.565">
        <ele>1224</ele>
        <time>2010-01-01T00:11:52Z</time>
      </trkpt>
      <trkpt lat="45.05579" lon="5.56513">
        <ele>1224</ele>
        <time>2010-01-01T00:11:59Z</time>
      </trkpt>
      <trkpt lat="45.05591" lon="5.56527">
        <ele>1224</ele>
        <time>2010-01-01T00:12:05Z</time>
      </trkpt>
      <trkpt lat="45.05605" lon="5.56544">
        <ele>1224</ele>
        <time>2010-01-01T00:12:12Z</time>
      </trkpt>
      <trkpt lat="45.05616" lon="5.56558">
        <ele>1224</ele>
        <time>2010-01-01T00:12:19Z</time>
      </trkpt>
      <trkpt lat="45.0563" lon="5.56574">
        <ele>1224</ele>
        <time>2010-01-01T00:12:25Z</time>
      </trkpt>
      <trkpt lat="45.05641" lon="5.56591">
        <ele>1224</ele>
        <time>2010-01-01T00:12:32Z</time>
      </trkpt>
      <trkpt lat="45.05656" lon="5.5661">
        <ele>1225</ele>
        <time>2010-01-01T00:12:40Z</time>
      </trkpt>
      <trkpt lat="45.05667" lon="5.56626">
        <ele>1226</ele>
        <time>2010-01-01T00:12:46Z</time>
      </trkpt>
      <trkpt lat="45.05679" lon="5.56644">
        <ele>1228</ele>
        <time>2010-01-01T00:12:54Z</time>
      </trkpt>
      <trkpt lat="45.05688" lon="5.56658">
        <ele>1229</ele>
        <time>2010-01-01T00:12:59Z</time>
      </trkpt>
      <trkpt lat="45.05688" lon="5.5667">
        <ele>1231</ele>
        <time>2010-01-01T00:13:02Z</time>
      </trkpt>
      <trkpt lat="45.05687" lon="5.56673">
        <ele>1231</ele>
        <time>2010-01-01T00:13:03Z</time>
      </trkpt>
      <trkpt lat="45.0568" lon="5.5668">
        <ele>1231</ele>
        <time>2010-01-01T00:13:06Z</time>
      </trkpt>
      <trkpt lat="45.05676" lon="5.56685">
        <ele>1232</ele>
        <time>2010-01-01T00:13:09Z</time>
      </trkpt>
      <trkpt lat="45.05663" lon="5.56703">
        <ele>1233</ele>
        <time>2010-01-01T00:13:16Z</time>
      </trkpt>
      <trkpt lat="45.05652" lon="5.56713">
        <ele>1234</ele>
        <time>2010-01-01T00:13:21Z</time>
      </trkpt>
      <trkpt lat="45.05637" lon="5.56727">
        <ele>1235</ele>
        <time>2010-01-01T00:13:28Z</time>
      </trkpt>
      <trkpt lat="45.05624" lon="5.56736">
        <ele>1235</ele>
        <time>2010-01-01T00:13:34Z</time>
      </trkpt>
      <trkpt lat="45.05612" lon="5.56745">
        <ele>1236</ele>
        <time>2010-01-01T00:13:40Z</time>
      </trkpt>
      <trkpt lat="45.05596" lon="5.5676">
        <ele>1236</ele>
        <time>2010-01-01T00:13:47Z</time>
      </trkpt>
      <trkpt lat="45.05594" lon="5.56763">
        <ele>1236</ele>
        <time>2010-01-01T00:13:48Z</time>
      </trkpt>
      <trkpt lat="45.05592" lon="5.56773">
        <ele>1237</ele>
        <time>2010-01-01T00:13:51Z</time>
      </trkpt>
      <trkpt lat="45.0559" lon="5.56793">
        <ele>1238</ele>
        <time>2010-01-01T00:13:57Z</time>
      </trkpt>
      <trkpt lat="45.05586" lon="5.56813">
        <ele>1240</ele>
        <time>2010-01-01T00:14:03Z</time>
      </trkpt>
      <trkpt lat="45.05588" lon="5.5683">
        <ele>1241</ele>
        <time>2010-01-01T00:14:08Z</time>
      </trkpt>
      <trkpt lat="45.05593" lon="5.56845">
        <ele>1244</ele>
        <time>2010-01-01T00:14:12Z</time>
      </trkpt>
      <trkpt lat="45.05596" lon="5.56859">
        <ele>1246</ele>
        <time>2010-01-01T00:14:16Z</time>
      </trkpt>
      <trkpt lat="45.05596" lon="5.56867">
        <ele>1248</ele>
        <time>2010-01-01T00:14:19Z</time>
      </trkpt>
      <trkpt lat="45.05595" lon="5.56872">
        <ele>1248</ele>
        <time>2010-01-01T00:14:20Z</time>
      </trkpt>
      <trkpt lat="45.05595" lon="5.56882">
        <ele>1249</ele>
        <time>2010-01-01T00:14:23Z</time>
      </trkpt>
      <trkpt lat="45.05595" lon="5.56887">
        <ele>1250</ele>
        <time>2010-01-01T00:14:25Z</time>
      </trkpt>
      <trkpt lat="45.05595" lon="5.56903">
        <ele>1252</ele>
        <time>2010-01-01T00:14:29Z</time>
      </trkpt>
      <trkpt lat="45.05595" lon="5.5691">
        <ele>1253</ele>
        <time>2010-01-01T00:14:31Z</time>
      </trkpt>
      <trkpt lat="45.05593" lon="5.56918">
        <ele>1254</ele>
        <time>2010-01-01T00:14:33Z</time>
      </trkpt>
      <trkpt lat="45.05592" lon="5.5692">
        <ele>1254</ele>
        <time>2010-01-01T00:14:34Z</time>
      </trkpt>
      <trkpt lat="45.05591" lon="5.56926">
        <ele>1254</ele>
        <time>2010-01-01T00:14:36Z</time>
      </trkpt>
      <trkpt lat="45.05589" lon="5.56932">
        <ele>1255</ele>
        <time>2010-01-01T00:14:38Z</time>
      </trkpt>
      <trkpt lat="45.05588" lon="5.56934">
        <ele>1255</ele>
        <time>2010-01-01T00:14:38Z</time>
      </trkpt>
      <trkpt lat="45.05587" lon="5.56948">
        <ele>1256</ele>
        <time>2010-01-01T00:14:42Z</time>
      </trkpt>
      <trkpt lat="45.05586" lon="5.5696">
        <ele>1257</ele>
        <time>2010-01-01T00:14:46Z</time>
      </trkpt>
      <trkpt lat="45.05587" lon="5.56977">
        <ele>1260</ele>
        <time>2010-01-01T00:14:51Z</time>
      </trkpt>
      <trkpt lat="45.05589" lon="5.56991">
        <ele>1261</ele>
        <time>2010-01-01T00:14:55Z</time>
      </trkpt>
      <trkpt lat="45.05589" lon="5.57002">
        <ele>1262</ele>
        <time>2010-01-01T00:14:58Z</time>
      </trkpt>
      <trkpt lat="45.0559" lon="5.57003">
        <ele>1262</ele>
        <time>2010-01-01T00:14:58Z</time>
      </trkpt>
      <trkpt lat="45.0559" lon="5.57009">
        <ele>1263</ele>
        <time>2010-01-01T00:15:00Z</time>
      </trkpt>
      <trkpt lat="45.0559" lon="5.57011">
        <ele>1263</ele>
        <time>2010-01-01T00:15:00Z</time>
      </trkpt>
      <trkpt lat="45.0559" lon="5.57027">
        <ele>1264</ele>
        <time>2010-01-01T00:15:05Z</time>
      </trkpt>
      <trkpt lat="45.05589" lon="5.57034">
        <ele>1264</ele>
        <time>2010-01-01T00:15:07Z</time>
      </trkpt>
      <trkpt lat="45.05589" lon="5.57035">
        <ele>1264</ele>
        <time>2010-01-01T00:15:07Z</time>
      </trkpt>
      <trkpt lat="45.05586" lon="5.57041">
        <ele>1265</ele>
        <time>2010-01-01T00:15:09Z</time>
      </trkpt>
      <trkpt lat="45.05584" lon="5.57045">
        <ele>1265</ele>
        <time>2010-01-01T00:15:11Z</time>
      </trkpt>
      <trkpt lat="45.05579" lon="5.57056">
        <ele>1266</ele>
        <time>2010-01-01T00:15:14Z</time>
      </trkpt>
      <trkpt lat="45.05575" lon="5.57069">
        <ele>1268</ele>
        <time>2010-01-01T00:15:18Z</time>
      </trkpt>
      <trkpt lat="45.0557" lon="5.5708">
        <ele>1269</ele>
        <time>2010-01-01T00:15:22Z</time>
      </trkpt>
      <trkpt lat="45.05564" lon="5.57091">
        <ele>1270</ele>
        <time>2010-01-01T00:15:26Z</time>
      </trkpt>
      <trkpt lat="45.05562" lon="5.57103">
        <ele>1271</ele>
        <time>2010-01-01T00:15:29Z</time>
      </trkpt>
      <trkpt lat="45.0556" lon="5.57114">
        <ele>1272</ele>
        <time>2010-01-01T00:15:33Z</time>
      </trkpt>
      <trkpt lat="45.05559" lon="5.57132">
        <ele>1273</ele>
        <time>2010-01-01T00:15:38Z</time>
      </trkpt>
      <trkpt lat="45.05556" lon="5.57149">
        <ele>1274</ele>
        <time>2010-01-01T00:15:43Z</time>
      </trkpt>
      <trkpt lat="45.05559" lon="5.57164">
        <ele>1274</ele>
        <time>2010-01-01T00:15:47Z</time>
      </trkpt>
      <trkpt lat="45.0556" lon="5.57168">
        <ele>1274</ele>
        <time>2010-01-01T00:15:48Z</time>
      </trkpt>
      <trkpt lat="45.05564" lon="5.57184">
        <ele>1275</ele>
        <time>2010-01-01T00:15:53Z</time>
      </trkpt>
      <trkpt lat="45.05568" lon="5.57201">
        <ele>1276</ele>
        <time>2010-01-01T00:15:58Z</time>
      </trkpt>
      <trkpt lat="45.05569" lon="5.57204">
        <ele>1276</ele>
        <time>2010-01-01T00:15:59Z</time>
      </trkpt>
      <trkpt lat="45.05575" lon="5.5722">
        <ele>1276</ele>
        <time>2010-01-01T00:16:04Z</time>
      </trkpt>
      <trkpt lat="45.05584" lon="5.57241">
        <ele>1276</ele>
        <time>2010-01-01T00:16:11Z</time>
      </trkpt>
      <trkpt lat="45.05592" lon="5.57255">
        <ele>1274</ele>
        <time>2010-01-01T00:16:16Z</time>
      </trkpt>
      <trkpt lat="45.05598" lon="5.57268">
        <ele>1272</ele>
        <time>2010-01-01T00:16:21Z</time>
      </trkpt>
      <trkpt lat="45.05607" lon="5.57288">
        <ele>1271</ele>
        <time>2010-01-01T00:16:27Z</time>
      </trkpt>
      <trkpt lat="45.05611" lon="5.57307">
        <ele>1271</ele>
        <time>2010-01-01T00:16:33Z</time>
      </trkpt>
      <trkpt lat="45.05617" lon="5.57325">
        <ele>1271</ele>
        <time>2010-01-01T00:16:39Z</time>
      </trkpt>
      <trkpt lat="45.05617" lon="5.57328">
        <ele>1271</ele>
        <time>2010-01-01T00:16:40Z</time>
      </trkpt>
      <trkpt lat="45.05619" lon="5.57341">
        <ele>1272</ele>
        <time>2010-01-01T00:16:43Z</time>
      </trkpt>
      <trkpt lat="45.05621" lon="5.57359">
        <ele>1272</ele>
        <time>2010-01-01T00:16:49Z</time>
      </trkpt>
      <trkpt lat="45.05629" lon="5.57384">
        <ele>1271</ele>
        <time>2010-01-01T00:16:56Z</time>
      </trkpt>
      <trkpt lat="45.05631" lon="5.57395">
        <ele>1271</ele>
        <time>2010-01-01T00:16:59Z</time>
      </trkpt>
      <trkpt lat="45.05633" lon="5.57404">
        <ele>1271</ele>
        <time>2010-01-01T00:17:02Z</time>
      </trkpt>
      <trkpt lat="45.05637" lon="5.57423">
        <ele>1271</ele>
        <time>2010-01-01T00:17:08Z</time>
      </trkpt>
      <trkpt lat="45.05643" lon="5.57441">
        <ele>1269</ele>
        <time>2010-01-01T00:17:13Z</time>
      </trkpt>
      <trkpt lat="45.05647" lon="5.57455">
        <ele>1269</ele>
        <time>2010-01-01T00:17:17Z</time>
      </trkpt>
      <trkpt lat="45.0565" lon="5.57471">
        <ele>1269</ele>
        <time>2010-01-01T00:17:22Z</time>
      </trkpt>
      <trkpt lat="45.05654" lon="5.57487">
        <ele>1269</ele>
        <time>2010-01-01T00:17:27Z</time>
      </trkpt>
      <trkpt lat="45.05661" lon="5.57503">
        <ele>1268</ele>
        <time>2010-01-01T00:17:32Z</time>
      </trkpt>
      <trkpt lat="45.05666" lon="5.57519">
        <ele>1266</ele>
        <time>2010-01-01T00:17:37Z</time>
      </trkpt>
      <trkpt lat="45.05671" lon="5.57534">
        <ele>1265</ele>
        <time>2010-01-01T00:17:42Z</time>
      </trkpt>
      <trkpt lat="45.05681" lon="5.57555">
        <ele>1262</ele>
        <time>2010-01-01T00:17:49Z</time>
      </trkpt>
      <trkpt lat="45.05684" lon="5.57572">
        <ele>1261</ele>
        <time>2010-01-01T00:17:54Z</time>
      </trkpt>
      <trkpt lat="45.05686" lon="5.57599">
        <ele>1259</ele>
        <time>2010-01-01T00:18:02Z</time>
      </trkpt>
      <trkpt lat="45.05691" lon="5.57611">
        <ele>1256</ele>
        <time>2010-01-01T00:18:06Z</time>
      </trkpt>
      <trkpt lat="45.05703" lon="5.57617">
        <ele>1253</ele>
        <time>2010-01-01T00:18:11Z</time>
      </trkpt>
      <trkpt lat="45.05706" lon="5.57628">
        <ele>1251</ele>
        <time>2010-01-01T00:18:14Z</time>
      </trkpt>
      <trkpt lat="45.05706" lon="5.57631">
        <ele>1251</ele>
        <time>2010-01-01T00:18:15Z</time>
      </trkpt>
      <trkpt lat="45.05698" lon="5.57636">
        <ele>1251</ele>
        <time>2010-01-01T00:18:19Z</time>
      </trkpt>
      <trkpt lat="45.05691" lon="5.57636">
        <ele>1252</ele>
        <time>2010-01-01T00:18:21Z</time>
      </trkpt>
      <trkpt lat="45.05682" lon="5.57636">
        <ele>1254</ele>
        <time>2010-01-01T00:18:25Z</time>
      </trkpt>
      <trkpt lat="45.05668" lon="5.5764">
        <ele>1256</ele>
        <time>2010-01-01T00:18:31Z</time>
      </trkpt>
      <trkpt lat="45.05653" lon="5.57645">
        <ele>1257</ele>
        <time>2010-01-01T00:18:37Z</time>
      </trkpt>
      <trkpt lat="45.05653" lon="5.57648">
        <ele>1256</ele>
        <time>2010-01-01T00:18:38Z</time>
      </trkpt>
      <trkpt lat="45.05656" lon="5.57653">
        <ele>1255</ele>
        <time>2010-01-01T00:18:40Z</time>
      </trkpt>
      <trkpt lat="45.0566" lon="5.57654">
        <ele>1254</ele>
        <time>2010-01-01T00:18:41Z</time>
      </trkpt>
      <trkpt lat="45.05668" lon="5.57659">
        <ele>1252</ele>
        <time>2010-01-01T00:18:45Z</time>
      </trkpt>
      <trkpt lat="45.0568" lon="5.57666">
        <ele>1250</ele>
        <time>2010-01-01T00:18:50Z</time>
      </trkpt>
      <trkpt lat="45.05684" lon="5.5767">
        <ele>1248</ele>
        <time>2010-01-01T00:18:52Z</time>
      </trkpt>
      <trkpt lat="45.05683" lon="5.57676">
        <ele>1248</ele>
        <time>2010-01-01T00:18:53Z</time>
      </trkpt>
      <trkpt lat="45.05674" lon="5.57681">
        <ele>1248</ele>
        <time>2010-01-01T00:18:57Z</time>
      </trkpt>
      <trkpt lat="45.05669" lon="5.57685">
        <ele>1248</ele>
        <time>2010-01-01T00:19:00Z</time>
      </trkpt>
      <trkpt lat="45.05661" lon="5.57693">
        <ele>1248</ele>
        <time>2010-01-01T00:19:04Z</time>
      </trkpt>
      <trkpt lat="45.05655" lon="5.57704">
        <ele>1247</ele>
        <time>2010-01-01T00:19:07Z</time>
      </trkpt>
      <trkpt lat="45.05648" lon="5.5772">
        <ele>1244</ele>
        <time>2010-01-01T00:19:13Z</time>
      </trkpt>
      <trkpt lat="45.05642" lon="5.57734">
        <ele>1243</ele>
        <time>2010-01-01T00:19:17Z</time>
      </trkpt>
      <trkpt lat="45.05634" lon="5.57749">
        <ele>1241</ele>
        <time>2010-01-01T00:19:23Z</time>
      </trkpt>
      <trkpt lat="45.05625" lon="5.57763">
        <ele>1241</ele>
        <time>2010-01-01T00:19:28Z</time>
      </trkpt>
      <trkpt lat="45.05617" lon="5.57778">
        <ele>1241</ele>
        <time>2010-01-01T00:19:34Z</time>
      </trkpt>
      <trkpt lat="45.05617" lon="5.57781">
        <ele>1241</ele>
        <time>2010-01-01T00:19:34Z</time>
      </trkpt>
      <trkpt lat="45.05621" lon="5.57788">
        <ele>1241</ele>
        <time>2010-01-01T00:19:37Z</time>
      </trkpt>
      <trkpt lat="45.05625" lon="5.57793">
        <ele>1240</ele>
        <time>2010-01-01T00:19:39Z</time>
      </trkpt>
      <trkpt lat="45.0563" lon="5.57802">
        <ele>1240</ele>
        <time>2010-01-01T00:19:42Z</time>
      </trkpt>
      <trkpt lat="45.05636" lon="5.57817">
        <ele>1239</ele>
        <time>2010-01-01T00:19:47Z</time>
      </trkpt>
      <trkpt lat="45.05643" lon="5.57823">
        <ele>1239</ele>
        <time>2010-01-01T00:19:50Z</time>
      </trkpt>
      <trkpt lat="45.05645" lon="5.57825">
        <ele>1238</ele>
        <time>2010-01-01T00:19:51Z</time>
      </trkpt>
      <trkpt lat="45.05651" lon="5.57834">
        <ele>1238</ele>
        <time>2010-01-01T00:19:55Z</time>
      </trkpt>
      <trkpt lat="45.05658" lon="5.57848">
        <ele>1240</ele>
        <time>2010-01-01T00:20:00Z</time>
      </trkpt>
      <trkpt lat="45.05669" lon="5.5786">
        <ele>1242</ele>
        <time>2010-01-01T00:20:05Z</time>
      </trkpt>
      <trkpt lat="45.05672" lon="5.57871">
        <ele>1244</ele>
        <time>2010-01-01T00:20:09Z</time>
      </trkpt>
      <trkpt lat="45.05674" lon="5.57874">
        <ele>1244</ele>
        <time>2010-01-01T00:20:10Z</time>
      </trkpt>
      <trkpt lat="45.05676" lon="5.57875">
        <ele>1245</ele>
        <time>2010-01-01T00:20:11Z</time>
      </trkpt>
      <trkpt lat="45.05689" lon="5.57873">
        <ele>1245</ele>
        <time>2010-01-01T00:20:16Z</time>
      </trkpt>
      <trkpt lat="45.05705" lon="5.57867">
        <ele>1245</ele>
        <time>2010-01-01T00:20:23Z</time>
      </trkpt>
      <trkpt lat="45.05721" lon="5.57863">
        <ele>1245</ele>
        <time>2010-01-01T00:20:29Z</time>
      </trkpt>
      <trkpt lat="45.05737" lon="5.57861">
        <ele>1245</ele>
        <time>2010-01-01T00:20:35Z</time>
      </trkpt>
      <trkpt lat="45.05751" lon="5.57858">
        <ele>1245</ele>
        <time>2010-01-01T00:20:41Z</time>
      </trkpt>
      <trkpt lat="45.05758" lon="5.57856">
        <ele>1246</ele>
        <time>2010-01-01T00:20:44Z</time>
      </trkpt>
      <trkpt lat="45.05761" lon="5.57853">
        <ele>1246</ele>
        <time>2010-01-01T00:20:45Z</time>
      </trkpt>
      <trkpt lat="45.05775" lon="5.57845">
        <ele>1247</ele>
        <time>2010-01-01T00:20:51Z</time>
      </trkpt>
      <trkpt lat="45.05788" lon="5.57833">
        <ele>1246</ele>
        <time>2010-01-01T00:20:58Z</time>
      </trkpt>
      <trkpt lat="45.05801" lon="5.57822">
        <ele>1247</ele>
        <time>2010-01-01T00:21:04Z</time>
      </trkpt>
      <trkpt lat="45.05811" lon="5.57814">
        <ele>1248</ele>
        <time>2010-01-01T00:21:08Z</time>
      </trkpt>
      <trkpt lat="45.0582" lon="5.57811">
        <ele>1249</ele>
        <time>2010-01-01T00:21:12Z</time>
      </trkpt>
      <trkpt lat="45.05825" lon="5.5781">
        <ele>1249</ele>
        <time>2010-01-01T00:21:14Z</time>
      </trkpt>
      <trkpt lat="45.05829" lon="5.5781">
        <ele>1250</ele>
        <time>2010-01-01T00:21:16Z</time>
      </trkpt>
      <trkpt lat="45.05836" lon="5.57809">
        <ele>1251</ele>
        <time>2010-01-01T00:21:18Z</time>
      </trkpt>
      <trkpt lat="45.05848" lon="5.57807">
        <ele>1254</ele>
        <time>2010-01-01T00:21:23Z</time>
      </trkpt>
      <trkpt lat="45.0585" lon="5.57807">
        <ele>1255</ele>
        <time>2010-01-01T00:21:24Z</time>
      </trkpt>
      <trkpt lat="45.05855" lon="5.57803">
        <ele>1255</ele>
        <time>2010-01-01T00:21:26Z</time>
      </trkpt>
      <trkpt lat="45.05857" lon="5.57802">
        <ele>1256</ele>
        <time>2010-01-01T00:21:27Z</time>
      </trkpt>
      <trkpt lat="45.05867" lon="5.57795">
        <ele>1257</ele>
        <time>2010-01-01T00:21:31Z</time>
      </trkpt>
      <trkpt lat="45.05873" lon="5.57787">
        <ele>1257</ele>
        <time>2010-01-01T00:21:35Z</time>
      </trkpt>
      <trkpt lat="45.05882" lon="5.57775">
        <ele>1256</ele>
        <time>2010-01-01T00:21:40Z</time>
      </trkpt>
      <trkpt lat="45.0589" lon="5.57761">
        <ele>1255</ele>
        <time>2010-01-01T00:21:45Z</time>
      </trkpt>
      <trkpt lat="45.059" lon="5.57748">
        <ele>1255</ele>
        <time>2010-01-01T00:21:50Z</time>
      </trkpt>
      <trkpt lat="45.05912" lon="5.57734">
        <ele>1255</ele>
        <time>2010-01-01T00:21:57Z</time>
      </trkpt>
      <trkpt lat="45.05918" lon="5.57727">
        <ele>1256</ele>
        <time>2010-01-01T00:22:00Z</time>
      </trkpt>
      <trkpt lat="45.05923" lon="5.57723">
        <ele>1257</ele>
        <time>2010-01-01T00:22:02Z</time>
      </trkpt>
      <trkpt lat="45.05927" lon="5.57718">
        <ele>1257</ele>
        <time>2010-01-01T00:22:04Z</time>
      </trkpt>
      <trkpt lat="45.05929" lon="5.57713">
        <ele>1257</ele>
        <time>2010-01-01T00:22:06Z</time>
      </trkpt>
      <trkpt lat="45.05936" lon="5.57704">
        <ele>1258</ele>
        <time>2010-01-01T00:22:10Z</time>
      </trkpt>
      <trkpt lat="45.05942" lon="5.57697">
        <ele>1260</ele>
        <time>2010-01-01T00:22:13Z</time>
      </trkpt>
      <trkpt lat="45.05943" lon="5.57698">
        <ele>1260</ele>
        <time>2010-01-01T00:22:13Z</time>
      </trkpt>
      <trkpt lat="45.05944" lon="5.57694">
        <ele>1260</ele>
        <time>2010-01-01T00:22:14Z</time>
      </trkpt>
      <trkpt lat="45.05944" lon="5.57697">
        <ele>1260</ele>
        <time>2010-01-01T00:22:15Z</time>
      </trkpt>
      <trkpt lat="45.05943" lon="5.57703">
        <ele>1261</ele>
        <time>2010-01-01T00:22:17Z</time>
      </trkpt>
      <trkpt lat="45.05941" lon="5.57707">
        <ele>1261</ele>
        <time>2010-01-01T00:22:18Z</time>
      </trkpt>
      <trkpt lat="45.05941" lon="5.57707">
        <ele>1261</ele>
        <time>2010-01-01T00:22:19Z</time>
      </trkpt>
      <trkpt lat="45.0594" lon="5.57716">
        <ele>1262</ele>
        <time>2010-01-01T00:22:21Z</time>
      </trkpt>
      <trkpt lat="45.05938" lon="5.57725">
        <ele>1263</ele>
        <time>2010-01-01T00:22:24Z</time>
      </trkpt>
      <trkpt lat="45.05936" lon="5.5773">
        <ele>1263</ele>
        <time>2010-01-01T00:22:25Z</time>
      </trkpt>
      <trkpt lat="45.05934" lon="5.5774">
        <ele>1264</ele>
        <time>2010-01-01T00:22:28Z</time>
      </trkpt>
      <trkpt lat="45.05933" lon="5.57743">
        <ele>1265</ele>
        <time>2010-01-01T00:22:29Z</time>
      </trkpt>
      <trkpt lat="45.05933" lon="5.57745">
        <ele>1265</ele>
        <time>2010-01-01T00:22:30Z</time>
      </trkpt>
      <trkpt lat="45.0593" lon="5.57759">
        <ele>1267</ele>
        <time>2010-01-01T00:22:34Z</time>
      </trkpt>
      <trkpt lat="45.05929" lon="5.5777">
        <ele>1269</ele>
        <time>2010-01-01T00:22:37Z</time>
      </trkpt>
      <trkpt lat="45.05923" lon="5.57778">
        <ele>1269</ele>
        <time>2010-01-01T00:22:40Z</time>
      </trkpt>
      <trkpt lat="45.05923" lon="5.57789">
        <ele>1271</ele>
        <time>2010-01-01T00:22:43Z</time>
      </trkpt>
      <trkpt lat="45.05922" lon="5.57793">
        <ele>1272</ele>
        <time>2010-01-01T00:22:44Z</time>
      </trkpt>
      <trkpt lat="45.05922" lon="5.57799">
        <ele>1273</ele>
        <time>2010-01-01T00:22:46Z</time>
      </trkpt>
      <trkpt lat="45.05921" lon="5.57801">
        <ele>1274</ele>
        <time>2010-01-01T00:22:47Z</time>
      </trkpt>
      <trkpt lat="45.0592" lon="5.57805">
        <ele>1274</ele>
        <time>2010-01-01T00:22:48Z</time>
      </trkpt>
      <trkpt lat="45.0592" lon="5.57806">
        <ele>1274</ele>
        <time>2010-01-01T00:22:48Z</time>
      </trkpt>
      <trkpt lat="45.0592" lon="5.5781">
        <ele>1275</ele>
        <time>2010-01-01T00:22:49Z</time>
      </trkpt>
      <trkpt lat="45.0592" lon="5.57813">
        <ele>1276</ele>
        <time>2010-01-01T00:22:50Z</time>
      </trkpt>
      <trkpt lat="45.0592" lon="5.57816">
        <ele>1277</ele>
        <time>2010-01-01T00:22:51Z</time>
      </trkpt>
      <trkpt lat="45.0592" lon="5.57821">
        <ele>1278</ele>
        <time>2010-01-01T00:22:53Z</time>
      </trkpt>
      <trkpt lat="45.0592" lon="5.57823">
        <ele>1278</ele>
        <time>2010-01-01T00:22:53Z</time>
      </trkpt>
      <trkpt lat="45.05917" lon="5.57829">
        <ele>1279</ele>
        <time>2010-01-01T00:22:55Z</time>
      </trkpt>
      <trkpt lat="45.05908" lon="5.57856">
        <ele>1284</ele>
        <time>2010-01-01T00:23:04Z</time>
      </trkpt>
      <trkpt lat="45.05904" lon="5.57865">
        <ele>1286</ele>
        <time>2010-01-01T00:23:07Z</time>
      </trkpt>
      <trkpt lat="45.05902" lon="5.57869">
        <ele>1287</ele>
        <time>2010-01-01T00:23:08Z</time>
      </trkpt>
      <trkpt lat="45.05896" lon="5.57877">
        <ele>1288</ele>
        <time>2010-01-01T00:23:11Z</time>
      </trkpt>
      <trkpt lat="45.05894" lon="5.57881">
        <ele>1288</ele>
        <time>2010-01-01T00:23:13Z</time>
      </trkpt>
      <trkpt lat="45.05893" lon="5.5789">
        <ele>1291</ele>
        <time>2010-01-01T00:23:15Z</time>
      </trkpt>
      <trkpt lat="45.05892" lon="5.57894">
        <ele>1292</ele>
        <time>2010-01-01T00:23:16Z</time>
      </trkpt>
      <trkpt lat="45.05892" lon="5.57899">
        <ele>1293</ele>
        <time>2010-01-01T00:23:18Z</time>
      </trkpt>
      <trkpt lat="45.05884" lon="5.57907">
        <ele>1294</ele>
        <time>2010-01-01T00:23:22Z</time>
      </trkpt>
      <trkpt lat="45.0588" lon="5.57912">
        <ele>1294</ele>
        <time>2010-01-01T00:23:24Z</time>
      </trkpt>
      <trkpt lat="45.05873" lon="5.57918">
        <ele>1294</ele>
        <time>2010-01-01T00:23:27Z</time>
      </trkpt>
      <trkpt lat="45.05873" lon="5.57923">
        <ele>1296</ele>
        <time>2010-01-01T00:23:29Z</time>
      </trkpt>
      <trkpt lat="45.05871" lon="5.5793">
        <ele>1297</ele>
        <time>2010-01-01T00:23:31Z</time>
      </trkpt>
      <trkpt lat="45.05867" lon="5.57938">
        <ele>1299</ele>
        <time>2010-01-01T00:23:33Z</time>
      </trkpt>
      <trkpt lat="45.05866" lon="5.57948">
        <ele>1302</ele>
        <time>2010-01-01T00:23:36Z</time>
      </trkpt>
      <trkpt lat="45.05863" lon="5.57951">
        <ele>1302</ele>
        <time>2010-01-01T00:23:38Z</time>
      </trkpt>
      <trkpt lat="45.0586" lon="5.57959">
        <ele>1304</ele>
        <time>2010-01-01T00:23:40Z</time>
      </trkpt>
      <trkpt lat="45.05857" lon="5.57961">
        <ele>1304</ele>
        <time>2010-01-01T00:23:42Z</time>
      </trkpt>
      <trkpt lat="45.05855" lon="5.57965">
        <ele>1305</ele>
        <time>2010-01-01T00:23:43Z</time>
      </trkpt>
      <trkpt lat="45.0585" lon="5.57969">
        <ele>1306</ele>
        <time>2010-01-01T00:23:45Z</time>
      </trkpt>
      <trkpt lat="45.05845" lon="5.57977">
        <ele>1307</ele>
        <time>2010-01-01T00:23:48Z</time>
      </trkpt>
      <trkpt lat="45.05845" lon="5.57983">
        <ele>1309</ele>
        <time>2010-01-01T00:23:50Z</time>
      </trkpt>
      <trkpt lat="45.05843" lon="5.57985">
        <ele>1310</ele>
        <time>2010-01-01T00:23:51Z</time>
      </trkpt>
      <trkpt lat="45.05842" lon="5.57984">
        <ele>1309</ele>
        <time>2010-01-01T00:23:51Z</time>
      </trkpt>
      <trkpt lat="45.05841" lon="5.57985">
        <ele>1310</ele>
        <time>2010-01-01T00:23:52Z</time>
      </trkpt>
      <trkpt lat="45.05835" lon="5.57993">
        <ele>1312</ele>
        <time>2010-01-01T00:23:55Z</time>
      </trkpt>
      <trkpt lat="45.05833" lon="5.57999">
        <ele>1314</ele>
        <time>2010-01-01T00:23:57Z</time>
      </trkpt>
      <trkpt lat="45.05829" lon="5.58003">
        <ele>1313</ele>
        <time>2010-01-01T00:23:59Z</time>
      </trkpt>
      <trkpt lat="45.05827" lon="5.58004">
        <ele>1313</ele>
        <time>2010-01-01T00:23:59Z</time>
      </trkpt>
      <trkpt lat="45.05822" lon="5.5801">
        <ele>1314</ele>
        <time>2010-01-01T00:24:02Z</time>
      </trkpt>
      <trkpt lat="45.05818" lon="5.58015">
        <ele>1314</ele>
        <time>2010-01-01T00:24:04Z</time>
      </trkpt>
      <trkpt lat="45.05817" lon="5.58016">
        <ele>1314</ele>
        <time>2010-01-01T00:24:05Z</time>
      </trkpt>
      <trkpt lat="45.05815" lon="5.58017">
        <ele>1314</ele>
        <time>2010-01-01T00:24:06Z</time>
      </trkpt>
      <trkpt lat="45.05811" lon="5.58023">
        <ele>1314</ele>
        <time>2010-01-01T00:24:08Z</time>
      </trkpt>
      <trkpt lat="45.05806" lon="5.58033">
        <ele>1316</ele>
        <time>2010-01-01T00:24:11Z</time>
      </trkpt>
      <trkpt lat="45.05801" lon="5.58038">
        <ele>1317</ele>
        <time>2010-01-01T00:24:14Z</time>
      </trkpt>
      <trkpt lat="45.058" lon="5.5804">
        <ele>1317</ele>
        <time>2010-01-01T00:24:15Z</time>
      </trkpt>
      <trkpt lat="45.05798" lon="5.58042">
        <ele>1317</ele>
        <time>2010-01-01T00:24:15Z</time>
      </trkpt>
      <trkpt lat="45.05793" lon="5.58044">
        <ele>1317</ele>
        <time>2010-01-01T00:24:18Z</time>
      </trkpt>
      <trkpt lat="45.05787" lon="5.58049">
        <ele>1317</ele>
        <time>2010-01-01T00:24:20Z</time>
      </trkpt>
      <trkpt lat="45.05787" lon="5.5805">
        <ele>1318</ele>
        <time>2010-01-01T00:24:21Z</time>
      </trkpt>
      <trkpt lat="45.05781" lon="5.58059">
        <ele>1320</ele>
        <time>2010-01-01T00:24:24Z</time>
      </trkpt>
      <trkpt lat="45.05779" lon="5.58064">
        <ele>1321</ele>
        <time>2010-01-01T00:24:26Z</time>
      </trkpt>
      <trkpt lat="45.05777" lon="5.58068">
        <ele>1322</ele>
        <time>2010-01-01T00:24:27Z</time>
      </trkpt>
      <trkpt lat="45.05771" lon="5.58076">
        <ele>1324</ele>
        <time>2010-01-01T00:24:30Z</time>
      </trkpt>
      <trkpt lat="45.05767" lon="5.58079">
        <ele>1324</ele>
        <time>2010-01-01T00:24:32Z</time>
      </trkpt>
      <trkpt lat="45.05765" lon="5.58084">
        <ele>1326</ele>
        <time>2010-01-01T00:24:34Z</time>
      </trkpt>
      <trkpt lat="45.05764" lon="5.58085">
        <ele>1326</ele>
        <time>2010-01-01T00:24:34Z</time>
      </trkpt>
      <trkpt lat="45.05759" lon="5.58092">
        <ele>1327</ele>
        <time>2010-01-01T00:24:37Z</time>
      </trkpt>
      <trkpt lat="45.05754" lon="5.58102">
        <ele>1328</ele>
        <time>2010-01-01T00:24:40Z</time>
      </trkpt>
      <trkpt lat="45.05753" lon="5.58105">
        <ele>1329</ele>
        <time>2010-01-01T00:24:41Z</time>
      </trkpt>
      <trkpt lat="45.05748" lon="5.58109">
        <ele>1329</ele>
        <time>2010-01-01T00:24:44Z</time>
      </trkpt>
      <trkpt lat="45.05747" lon="5.5811">
        <ele>1329</ele>
        <time>2010-01-01T00:24:44Z</time>
      </trkpt>
      <trkpt lat="45.0574" lon="5.58116">
        <ele>1330</ele>
        <time>2010-01-01T00:24:48Z</time>
      </trkpt>
      <trkpt lat="45.05739" lon="5.58117">
        <ele>1330</ele>
        <time>2010-01-01T00:24:48Z</time>
      </trkpt>
      <trkpt lat="45.05736" lon="5.58119">
        <ele>1330</ele>
        <time>2010-01-01T00:24:49Z</time>
      </trkpt>
      <trkpt lat="45.05735" lon="5.5812">
        <ele>1331</ele>
        <time>2010-01-01T00:24:50Z</time>
      </trkpt>
      <trkpt lat="45.05733" lon="5.58122">
        <ele>1331</ele>
        <time>2010-01-01T00:24:51Z</time>
      </trkpt>
      <trkpt lat="45.0573" lon="5.58126">
        <ele>1332</ele>
        <time>2010-01-01T00:24:52Z</time>
      </trkpt>
      <trkpt lat="45.05729" lon="5.58127">
        <ele>1332</ele>
        <time>2010-01-01T00:24:53Z</time>
      </trkpt>
      <trkpt lat="45.05726" lon="5.5813">
        <ele>1332</ele>
        <time>2010-01-01T00:24:55Z</time>
      </trkpt>
      <trkpt lat="45.05723" lon="5.58135">
        <ele>1333</ele>
        <time>2010-01-01T00:24:56Z</time>
      </trkpt>
      <trkpt lat="45.05718" lon="5.5814">
        <ele>1334</ele>
        <time>2010-01-01T00:24:59Z</time>
      </trkpt>
      <trkpt lat="45.05713" lon="5.58142">
        <ele>1335</ele>
        <time>2010-01-01T00:25:01Z</time>
      </trkpt>
      <trkpt lat="45.05708" lon="5.58146">
        <ele>1336</ele>
        <time>2010-01-01T00:25:03Z</time>
      </trkpt>
      <trkpt lat="45.05707" lon="5.58147">
        <ele>1336</ele>
        <time>2010-01-01T00:25:04Z</time>
      </trkpt>
      <trkpt lat="45.057" lon="5.58152">
        <ele>1337</ele>
        <time>2010-01-01T00:25:07Z</time>
      </trkpt>
      <trkpt lat="45.05698" lon="5.58155">
        <ele>1338</ele>
        <time>2010-01-01T00:25:08Z</time>
      </trkpt>
      <trkpt lat="45.05697" lon="5.58157">
        <ele>1339</ele>
        <time>2010-01-01T00:25:09Z</time>
      </trkpt>
      <trkpt lat="45.05692" lon="5.58156">
        <ele>1339</ele>
        <time>2010-01-01T00:25:11Z</time>
      </trkpt>
      <trkpt lat="45.05691" lon="5.58156">
        <ele>1338</ele>
        <time>2010-01-01T00:25:11Z</time>
      </trkpt>
      <trkpt lat="45.05691" lon="5.58157">
        <ele>1339</ele>
        <time>2010-01-01T00:25:11Z</time>
      </trkpt>
      <trkpt lat="45.05688" lon="5.5816">
        <ele>1340</ele>
        <time>2010-01-01T00:25:13Z</time>
      </trkpt>
      <trkpt lat="45.05686" lon="5.58163">
        <ele>1341</ele>
        <time>2010-01-01T00:25:14Z</time>
      </trkpt>
      <trkpt lat="45.0568" lon="5.5817">
        <ele>1342</ele>
        <time>2010-01-01T00:25:17Z</time>
      </trkpt>
      <trkpt lat="45.05671" lon="5.58176">
        <ele>1343</ele>
        <time>2010-01-01T00:25:21Z</time>
      </trkpt>
      <trkpt lat="45.05665" lon="5.58181">
        <ele>1344</ele>
        <time>2010-01-01T00:25:24Z</time>
      </trkpt>
      <trkpt lat="45.05661" lon="5.58186">
        <ele>1345</ele>
        <time>2010-01-01T00:25:26Z</time>
      </trkpt>
      <trkpt lat="45.05655" lon="5.5819">
        <ele>1345</ele>
        <time>2010-01-01T00:25:29Z</time>
      </trkpt>
      <trkpt lat="45.05649" lon="5.58195">
        <ele>1346</ele>
        <time>2010-01-01T00:25:31Z</time>
      </trkpt>
      <trkpt lat="45.05636" lon="5.58199">
        <ele>1348</ele>
        <time>2010-01-01T00:25:37Z</time>
      </trkpt>
      <trkpt lat="45.05625" lon="5.58205">
        <ele>1350</ele>
        <time>2010-01-01T00:25:41Z</time>
      </trkpt>
      <trkpt lat="45.05616" lon="5.58211">
        <ele>1351</ele>
        <time>2010-01-01T00:25:45Z</time>
      </trkpt>
      <trkpt lat="45.05609" lon="5.58218">
        <ele>1353</ele>
        <time>2010-01-01T00:25:49Z</time>
      </trkpt>
      <trkpt lat="45.05606" lon="5.58221">
        <ele>1355</ele>
        <time>2010-01-01T00:25:50Z</time>
      </trkpt>
      <trkpt lat="45.05604" lon="5.58222">
        <ele>1355</ele>
        <time>2010-01-01T00:25:51Z</time>
      </trkpt>
      <trkpt lat="45.05599" lon="5.5823">
        <ele>1357</ele>
        <time>2010-01-01T00:25:54Z</time>
      </trkpt>
      <trkpt lat="45.05597" lon="5.58235">
        <ele>1359</ele>
        <time>2010-01-01T00:25:56Z</time>
      </trkpt>
      <trkpt lat="45.05595" lon="5.58239">
        <ele>1360</ele>
        <time>2010-01-01T00:25:57Z</time>
      </trkpt>
      <trkpt lat="45.05594" lon="5.58241">
        <ele>1360</ele>
        <time>2010-01-01T00:25:58Z</time>
      </trkpt>
      <trkpt lat="45.05593" lon="5.58244">
        <ele>1361</ele>
        <time>2010-01-01T00:25:59Z</time>
      </trkpt>
      <trkpt lat="45.05593" lon="5.58247">
        <ele>1362</ele>
        <time>2010-01-01T00:26:00Z</time>
      </trkpt>
      <trkpt lat="45.05587" lon="5.58257">
        <ele>1365</ele>
        <time>2010-01-01T00:26:03Z</time>
      </trkpt>
      <trkpt lat="45.05583" lon="5.58264">
        <ele>1367</ele>
        <time>2010-01-01T00:26:06Z</time>
      </trkpt>
      <trkpt lat="45.0558" lon="5.58267">
        <ele>1368</ele>
        <time>2010-01-01T00:26:07Z</time>
      </trkpt>
      <trkpt lat="45.05577" lon="5.58271">
        <ele>1369</ele>
        <time>2010-01-01T00:26:09Z</time>
      </trkpt>
      <trkpt lat="45.05573" lon="5.58274">
        <ele>1370</ele>
        <time>2010-01-01T00:26:11Z</time>
      </trkpt>
      <trkpt lat="45.05566" lon="5.58281">
        <ele>1372</ele>
        <time>2010-01-01T00:26:14Z</time>
      </trkpt>
      <trkpt lat="45.05562" lon="5.58288">
        <ele>1374</ele>
        <time>2010-01-01T00:26:17Z</time>
      </trkpt>
      <trkpt lat="45.05561" lon="5.5829">
        <ele>1375</ele>
        <time>2010-01-01T00:26:17Z</time>
      </trkpt>
      <trkpt lat="45.05557" lon="5.58301">
        <ele>1377</ele>
        <time>2010-01-01T00:26:21Z</time>
      </trkpt>
      <trkpt lat="45.05554" lon="5.58306">
        <ele>1379</ele>
        <time>2010-01-01T00:26:23Z</time>
      </trkpt>
      <trkpt lat="45.05552" lon="5.58307">
        <ele>1379</ele>
        <time>2010-01-01T00:26:23Z</time>
      </trkpt>
      <trkpt lat="45.05546" lon="5.58308">
        <ele>1380</ele>
        <time>2010-01-01T00:26:26Z</time>
      </trkpt>
      <trkpt lat="45.0554" lon="5.58318">
        <ele>1384</ele>
        <time>2010-01-01T00:26:30Z</time>
      </trkpt>
      <trkpt lat="45.05541" lon="5.58317">
        <ele>1383</ele>
        <time>2010-01-01T00:26:30Z</time>
      </trkpt>
      <trkpt lat="45.05544" lon="5.58319">
        <ele>1383</ele>
        <time>2010-01-01T00:26:32Z</time>
      </trkpt>
      <trkpt lat="45.05546" lon="5.58319">
        <ele>1383</ele>
        <time>2010-01-01T00:26:33Z</time>
      </trkpt>
      <trkpt lat="45.05554" lon="5.58321">
        <ele>1382</ele>
        <time>2010-01-01T00:26:36Z</time>
      </trkpt>
      <trkpt lat="45.05558" lon="5.58319">
        <ele>1381</ele>
        <time>2010-01-01T00:26:37Z</time>
      </trkpt>
      <trkpt lat="45.05563" lon="5.58321">
        <ele>1381</ele>
        <time>2010-01-01T00:26:39Z</time>
      </trkpt>
      <trkpt lat="45.05566" lon="5.58321">
        <ele>1381</ele>
        <time>2010-01-01T00:26:41Z</time>
      </trkpt>
      <trkpt lat="45.05587" lon="5.58323">
        <ele>1378</ele>
        <time>2010-01-01T00:26:49Z</time>
      </trkpt>
      <trkpt lat="45.05601" lon="5.58322">
        <ele>1376</ele>
        <time>2010-01-01T00:26:55Z</time>
      </trkpt>
      <trkpt lat="45.05621" lon="5.5832">
        <ele>1372</ele>
        <time>2010-01-01T00:27:03Z</time>
      </trkpt>
      <trkpt lat="45.05624" lon="5.58319">
        <ele>1372</ele>
        <time>2010-01-01T00:27:04Z</time>
      </trkpt>
      <trkpt lat="45.05639" lon="5.5832">
        <ele>1370</ele>
        <time>2010-01-01T00:27:10Z</time>
      </trkpt>
      <trkpt lat="45.05654" lon="5.5832">
        <ele>1367</ele>
        <time>2010-01-01T00:27:16Z</time>
      </trkpt>
      <trkpt lat="45.05673" lon="5.58319">
        <ele>1365</ele>
        <time>2010-01-01T00:27:23Z</time>
      </trkpt>
      <trkpt lat="45.05676" lon="5.5832">
        <ele>1365</ele>
        <time>2010-01-01T00:27:25Z</time>
      </trkpt>
      <trkpt lat="45.05687" lon="5.58316">
        <ele>1364</ele>
        <time>2010-01-01T00:27:29Z</time>
      </trkpt>
      <trkpt lat="45.05706" lon="5.58314">
        <ele>1362</ele>
        <time>2010-01-01T00:27:37Z</time>
      </trkpt>
      <trkpt lat="45.05727" lon="5.5831">
        <ele>1360</ele>
        <time>2010-01-01T00:27:45Z</time>
      </trkpt>
      <trkpt lat="45.05738" lon="5.58305">
        <ele>1359</ele>
        <time>2010-01-01T00:27:50Z</time>
      </trkpt>
      <trkpt lat="45.0575" lon="5.58301">
        <ele>1358</ele>
        <time>2010-01-01T00:27:55Z</time>
      </trkpt>
      <trkpt lat="45.05767" lon="5.58293">
        <ele>1357</ele>
        <time>2010-01-01T00:28:02Z</time>
      </trkpt>
      <trkpt lat="45.05781" lon="5.58281">
        <ele>1355</ele>
        <time>2010-01-01T00:28:09Z</time>
      </trkpt>
      <trkpt lat="45.05796" lon="5.58269">
        <ele>1353</ele>
        <time>2010-01-01T00:28:16Z</time>
      </trkpt>
      <trkpt lat="45.05813" lon="5.58258">
        <ele>1351</ele>
        <time>2010-01-01T00:28:23Z</time>
      </trkpt>
      <trkpt lat="45.05828" lon="5.58251">
        <ele>1350</ele>
        <time>2010-01-01T00:28:29Z</time>
      </trkpt>
      <trkpt lat="45.05841" lon="5.58246">
        <ele>1350</ele>
        <time>2010-01-01T00:28:35Z</time>
      </trkpt>
      <trkpt lat="45.05855" lon="5.58235">
        <ele>1349</ele>
        <time>2010-01-01T00:28:41Z</time>
      </trkpt>
      <trkpt lat="45.05872" lon="5.58219">
        <ele>1346</ele>
        <time>2010-01-01T00:28:49Z</time>
      </trkpt>
      <trkpt lat="45.05887" lon="5.58205">
        <ele>1343</ele>
        <time>2010-01-01T00:28:57Z</time>
      </trkpt>
      <trkpt lat="45.059" lon="5.58189">
        <ele>1339</ele>
        <time>2010-01-01T00:29:04Z</time>
      </trkpt>
      <trkpt lat="45.05914" lon="5.58172">
        <ele>1334</ele>
        <time>2010-01-01T00:29:11Z</time>
      </trkpt>
      <trkpt lat="45.05926" lon="5.5816">
        <ele>1334</ele>
        <time>2010-01-01T00:29:17Z</time>
      </trkpt>
      <trkpt lat="45.05943" lon="5.58145">
        <ele>1334</ele>
        <time>2010-01-01T00:29:25Z</time>
      </trkpt>
      <trkpt lat="45.05954" lon="5.58126">
        <ele>1333</ele>
        <time>2010-01-01T00:29:32Z</time>
      </trkpt>
      <trkpt lat="45.05966" lon="5.58113">
        <ele>1331</ele>
        <time>2010-01-01T00:29:38Z</time>
      </trkpt>
      <trkpt lat="45.05982" lon="5.581">
        <ele>1329</ele>
        <time>2010-01-01T00:29:45Z</time>
      </trkpt>
      <trkpt lat="45.05992" lon="5.58093">
        <ele>1328</ele>
        <time>2010-01-01T00:29:50Z</time>
      </trkpt>
      <trkpt lat="45.06003" lon="5.58082">
        <ele>1326</ele>
        <time>2010-01-01T00:29:55Z</time>
      </trkpt>
      <trkpt lat="45.06014" lon="5.58067">
        <ele>1327</ele>
        <time>2010-01-01T00:30:01Z</time>
      </trkpt>
      <trkpt lat="45.06022" lon="5.58052">
        <ele>1326</ele>
        <time>2010-01-01T00:30:07Z</time>
      </trkpt>
      <trkpt lat="45.06029" lon="5.58039">
        <ele>1325</ele>
        <time>2010-01-01T00:30:11Z</time>
      </trkpt>
      <trkpt lat="45.0603" lon="5.58036">
        <ele>1325</ele>
        <time>2010-01-01T00:30:12Z</time>
      </trkpt>
      <trkpt lat="45.06035" lon="5.58023">
        <ele>1323</ele>
        <time>2010-01-01T00:30:16Z</time>
      </trkpt>
      <trkpt lat="45.06043" lon="5.58003">
        <ele>1321</ele>
        <time>2010-01-01T00:30:23Z</time>
      </trkpt>
      <trkpt lat="45.06049" lon="5.57985">
        <ele>1318</ele>
        <time>2010-01-01T00:30:28Z</time>
      </trkpt>
      <trkpt lat="45.06055" lon="5.5798">
        <ele>1318</ele>
        <time>2010-01-01T00:30:31Z</time>
      </trkpt>
      <trkpt lat="45.06061" lon="5.57977">
        <ele>1317</ele>
        <time>2010-01-01T00:30:33Z</time>
      </trkpt>
      <trkpt lat="45.06074" lon="5.57965">
        <ele>1315</ele>
        <time>2010-01-01T00:30:40Z</time>
      </trkpt>
      <trkpt lat="45.06086" lon="5.5795">
        <ele>1313</ele>
        <time>2010-01-01T00:30:46Z</time>
      </trkpt>
      <trkpt lat="45.06097" lon="5.57939">
        <ele>1311</ele>
        <time>2010-01-01T00:30:52Z</time>
      </trkpt>
      <trkpt lat="45.06109" lon="5.57923">
        <ele>1308</ele>
        <time>2010-01-01T00:30:58Z</time>
      </trkpt>
      <trkpt lat="45.06125" lon="5.57912">
        <ele>1307</ele>
        <time>2010-01-01T00:31:05Z</time>
      </trkpt>
      <trkpt lat="45.06134" lon="5.57904">
        <ele>1307</ele>
        <time>2010-01-01T00:31:10Z</time>
      </trkpt>
      <trkpt lat="45.06142" lon="5.57896">
        <ele>1306</ele>
        <time>2010-01-01T00:31:13Z</time>
      </trkpt>
      <trkpt lat="45.0615" lon="5.57888">
        <ele>1305</ele>
        <time>2010-01-01T00:31:17Z</time>
      </trkpt>
      <trkpt lat="45.06158" lon="5.57872">
        <ele>1303</ele>
        <time>2010-01-01T00:31:23Z</time>
      </trkpt>
      <trkpt lat="45.06167" lon="5.57852">
        <ele>1299</ele>
        <time>2010-01-01T00:31:30Z</time>
      </trkpt>
      <trkpt lat="45.06176" lon="5.57843">
        <ele>1298</ele>
        <time>2010-01-01T00:31:34Z</time>
      </trkpt>
      <trkpt lat="45.06186" lon="5.57831">
        <ele>1297</ele>
        <time>2010-01-01T00:31:39Z</time>
      </trkpt>
      <trkpt lat="45.06193" lon="5.57826">
        <ele>1296</ele>
        <time>2010-01-01T00:31:42Z</time>
      </trkpt>
      <trkpt lat="45.06195" lon="5.57825">
        <ele>1296</ele>
        <time>2010-01-01T00:31:43Z</time>
      </trkpt>
      <trkpt lat="45.06204" lon="5.57811">
        <ele>1295</ele>
        <time>2010-01-01T00:31:49Z</time>
      </trkpt>
      <trkpt lat="45.06208" lon="5.57803">
        <ele>1294</ele>
        <time>2010-01-01T00:31:51Z</time>
      </trkpt>
      <trkpt lat="45.06213" lon="5.5779">
        <ele>1292</ele>
        <time>2010-01-01T00:31:55Z</time>
      </trkpt>
      <trkpt lat="45.06218" lon="5.57768">
        <ele>1289</ele>
        <time>2010-01-01T00:32:02Z</time>
      </trkpt>
      <trkpt lat="45.06223" lon="5.57752">
        <ele>1287</ele>
        <time>2010-01-01T00:32:07Z</time>
      </trkpt>
      <trkpt lat="45.06231" lon="5.5774">
        <ele>1286</ele>
        <time>2010-01-01T00:32:12Z</time>
      </trkpt>
      <trkpt lat="45.06244" lon="5.57736">
        <ele>1285</ele>
        <time>2010-01-01T00:32:17Z</time>
      </trkpt>
      <trkpt lat="45.0626" lon="5.57725">
        <ele>1284</ele>
        <time>2010-01-01T00:32:24Z</time>
      </trkpt>
      <trkpt lat="45.06275" lon="5.57714">
        <ele>1284</ele>
        <time>2010-01-01T00:32:31Z</time>
      </trkpt>
      <trkpt lat="45.06287" lon="5.57705">
        <ele>1283</ele>
        <time>2010-01-01T00:32:37Z</time>
      </trkpt>
      <trkpt lat="45.06304" lon="5.57692">
        <ele>1281</ele>
        <time>2010-01-01T00:32:44Z</time>
      </trkpt>
      <trkpt lat="45.0632" lon="5.57682">
        <ele>1280</ele>
        <time>2010-01-01T00:32:51Z</time>
      </trkpt>
      <trkpt lat="45.06336" lon="5.57674">
        <ele>1278</ele>
        <time>2010-01-01T00:32:58Z</time>
      </trkpt>
      <trkpt lat="45.06351" lon="5.57667">
        <ele>1276</ele>
        <time>2010-01-01T00:33:04Z</time>
      </trkpt>
      <trkpt lat="45.06362" lon="5.5766">
        <ele>1275</ele>
        <time>2010-01-01T00:33:09Z</time>
      </trkpt>
      <trkpt lat="45.06374" lon="5.57649">
        <ele>1273</ele>
        <time>2010-01-01T00:33:15Z</time>
      </trkpt>
      <trkpt lat="45.06386" lon="5.57636">
        <ele>1271</ele>
        <time>2010-01-01T00:33:21Z</time>
      </trkpt>
      <trkpt lat="45.06399" lon="5.57626">
        <ele>1269</ele>
        <time>2010-01-01T00:33:27Z</time>
      </trkpt>
      <trkpt lat="45.06414" lon="5.57626">
        <ele>1268</ele>
        <time>2010-01-01T00:33:33Z</time>
      </trkpt>
      <trkpt lat="45.06428" lon="5.57631">
        <ele>1266</ele>
        <time>2010-01-01T00:33:38Z</time>
      </trkpt>
      <trkpt lat="45.0644" lon="5.5764">
        <ele>1265</ele>
        <time>2010-01-01T00:33:44Z</time>
      </trkpt>
      <trkpt lat="45.06445" lon="5.57646">
        <ele>1265</ele>
        <time>2010-01-01T00:33:47Z</time>
      </trkpt>
      <trkpt lat="45.06446" lon="5.57647">
        <ele>1266</ele>
        <time>2010-01-01T00:33:47Z</time>
      </trkpt>
      <trkpt lat="45.06443" lon="5.57644">
        <ele>1265</ele>
        <time>2010-01-01T00:33:49Z</time>
      </trkpt>
      <trkpt lat="45.06443" lon="5.57643">
        <ele>1265</ele>
        <time>2010-01-01T00:33:49Z</time>
      </trkpt>
      <trkpt lat="45.06445" lon="5.57646">
        <ele>1265</ele>
        <time>2010-01-01T00:33:50Z</time>
      </trkpt>
      <trkpt lat="45.06446" lon="5.57647">
        <ele>1266</ele>
        <time>2010-01-01T00:33:50Z</time>
      </trkpt>
      <trkpt lat="45.06449" lon="5.57654">
        <ele>1266</ele>
        <time>2010-01-01T00:33:53Z</time>
      </trkpt>
      <trkpt lat="45.06452" lon="5.57654">
        <ele>1266</ele>
        <time>2010-01-01T00:33:54Z</time>
      </trkpt>
      <trkpt lat="45.06454" lon="5.57653">
        <ele>1265</ele>
        <time>2010-01-01T00:33:55Z</time>
      </trkpt>
      <trkpt lat="45.06456" lon="5.57652">
        <ele>1265</ele>
        <time>2010-01-01T00:33:56Z</time>
      </trkpt>
      <trkpt lat="45.06456" lon="5.57645">
        <ele>1264</ele>
        <time>2010-01-01T00:33:57Z</time>
      </trkpt>
      <trkpt lat="45.06457" lon="5.57645">
        <ele>1263</ele>
        <time>2010-01-01T00:33:58Z</time>
      </trkpt>
      <trkpt lat="45.06457" lon="5.57646">
        <ele>1264</ele>
        <time>2010-01-01T00:33:58Z</time>
      </trkpt>
      <trkpt lat="45.06457" lon="5.57646">
        <ele>1263</ele>
        <time>2010-01-01T00:33:58Z</time>
      </trkpt>
      <trkpt lat="45.06459" lon="5.57641">
        <ele>1262</ele>
        <time>2010-01-01T00:34:00Z</time>
      </trkpt>
      <trkpt lat="45.06459" lon="5.57639">
        <ele>1262</ele>
        <time>2010-01-01T00:34:00Z</time>
      </trkpt>
      <trkpt lat="45.06458" lon="5.57634">
        <ele>1261</ele>
        <time>2010-01-01T00:34:02Z</time>
      </trkpt>
      <trkpt lat="45.06457" lon="5.5763">
        <ele>1261</ele>
        <time>2010-01-01T00:34:03Z</time>
      </trkpt>
      <trkpt lat="45.06457" lon="5.57625">
        <ele>1260</ele>
        <time>2010-01-01T00:34:05Z</time>
      </trkpt>
      <trkpt lat="45.06459" lon="5.57622">
        <ele>1259</ele>
        <time>2010-01-01T00:34:06Z</time>
      </trkpt>
      <trkpt lat="45.06465" lon="5.5762">
        <ele>1258</ele>
        <time>2010-01-01T00:34:08Z</time>
      </trkpt>
      <trkpt lat="45.06467" lon="5.57618">
        <ele>1257</ele>
        <time>2010-01-01T00:34:09Z</time>
      </trkpt>
      <trkpt lat="45.06471" lon="5.57619">
        <ele>1257</ele>
        <time>2010-01-01T00:34:11Z</time>
      </trkpt>
      <trkpt lat="45.06473" lon="5.57617">
        <ele>1256</ele>
        <time>2010-01-01T00:34:12Z</time>
      </trkpt>
      <trkpt lat="45.0648" lon="5.57616">
        <ele>1255</ele>
        <time>2010-01-01T00:34:15Z</time>
      </trkpt>
      <trkpt lat="45.06483" lon="5.57614">
        <ele>1254</ele>
        <time>2010-01-01T00:34:16Z</time>
      </trkpt>
      <trkpt lat="45.06494" lon="5.57609">
        <ele>1251</ele>
        <time>2010-01-01T00:34:20Z</time>
      </trkpt>
      <trkpt lat="45.06502" lon="5.57602">
        <ele>1248</ele>
        <time>2010-01-01T00:34:24Z</time>
      </trkpt>
      <trkpt lat="45.06505" lon="5.57599">
        <ele>1247</ele>
        <time>2010-01-01T00:34:26Z</time>
      </trkpt>
      <trkpt lat="45.06519" lon="5.57596">
        <ele>1244</ele>
        <time>2010-01-01T00:34:31Z</time>
      </trkpt>
      <trkpt lat="45.06522" lon="5.57598">
        <ele>1244</ele>
        <time>2010-01-01T00:34:33Z</time>
      </trkpt>
      <trkpt lat="45.06529" lon="5.57595">
        <ele>1243</ele>
        <time>2010-01-01T00:34:36Z</time>
      </trkpt>
      <trkpt lat="45.0654" lon="5.57586">
        <ele>1239</ele>
        <time>2010-01-01T00:34:41Z</time>
      </trkpt>
      <trkpt lat="45.06554" lon="5.57574">
        <ele>1235</ele>
        <time>2010-01-01T00:34:47Z</time>
      </trkpt>
      <trkpt lat="45.06562" lon="5.57567">
        <ele>1232</ele>
        <time>2010-01-01T00:34:51Z</time>
      </trkpt>
      <trkpt lat="45.06568" lon="5.57564">
        <ele>1231</ele>
        <time>2010-01-01T00:34:54Z</time>
      </trkpt>
      <trkpt lat="45.06584" lon="5.57561">
        <ele>1227</ele>
        <time>2010-01-01T00:35:00Z</time>
      </trkpt>
      <trkpt lat="45.06591" lon="5.57557">
        <ele>1225</ele>
        <time>2010-01-01T00:35:03Z</time>
      </trkpt>
      <trkpt lat="45.06598" lon="5.57554">
        <ele>1224</ele>
        <time>2010-01-01T00:35:06Z</time>
      </trkpt>
      <trkpt lat="45.06613" lon="5.57551">
        <ele>1222</ele>
        <time>2010-01-01T00:35:12Z</time>
      </trkpt>
      <trkpt lat="45.06627" lon="5.57546">
        <ele>1220</ele>
        <time>2010-01-01T00:35:18Z</time>
      </trkpt>
      <trkpt lat="45.06642" lon="5.57543">
        <ele>1219</ele>
        <time>2010-01-01T00:35:24Z</time>
      </trkpt>
      <trkpt lat="45.06659" lon="5.57538">
        <ele>1216</ele>
        <time>2010-01-01T00:35:31Z</time>
      </trkpt>
      <trkpt lat="45.06674" lon="5.57535">
        <ele>1214</ele>
        <time>2010-01-01T00:35:37Z</time>
      </trkpt>
      <trkpt lat="45.06688" lon="5.57539">
        <ele>1214</ele>
        <time>2010-01-01T00:35:43Z</time>
      </trkpt>
      <trkpt lat="45.06694" lon="5.57541">
        <ele>1213</ele>
        <time>2010-01-01T00:35:45Z</time>
      </trkpt>
      <trkpt lat="45.06699" lon="5.57542">
        <ele>1213</ele>
        <time>2010-01-01T00:35:47Z</time>
      </trkpt>
      <trkpt lat="45.06711" lon="5.57545">
        <ele>1212</ele>
        <time>2010-01-01T00:35:52Z</time>
      </trkpt>
      <trkpt lat="45.0672" lon="5.57548">
        <ele>1212</ele>
        <time>2010-01-01T00:35:56Z</time>
      </trkpt>
      <trkpt lat="45.06723" lon="5.57549">
        <ele>1212</ele>
        <time>2010-01-01T00:35:57Z</time>
      </trkpt>
      <trkpt lat="45.06735" lon="5.57554">
        <ele>1211</ele>
        <time>2010-01-01T00:36:02Z</time>
      </trkpt>
      <trkpt lat="45.06737" lon="5.57557">
        <ele>1211</ele>
        <time>2010-01-01T00:36:03Z</time>
      </trkpt>
      <trkpt lat="45.06753" lon="5.5757">
        <ele>1210</ele>
        <time>2010-01-01T00:36:10Z</time>
      </trkpt>
      <trkpt lat="45.06767" lon="5.57576">
        <ele>1207</ele>
        <time>2010-01-01T00:36:16Z</time>
      </trkpt>
      <trkpt lat="45.06783" lon="5.57579">
        <ele>1203</ele>
        <time>2010-01-01T00:36:23Z</time>
      </trkpt>
      <trkpt lat="45.06792" lon="5.57585">
        <ele>1202</ele>
        <time>2010-01-01T00:36:27Z</time>
      </trkpt>
      <trkpt lat="45.06801" lon="5.576">
        <ele>1200</ele>
        <time>2010-01-01T00:36:32Z</time>
      </trkpt>
      <trkpt lat="45.06814" lon="5.57616">
        <ele>1198</ele>
        <time>2010-01-01T00:36:39Z</time>
      </trkpt>
      <trkpt lat="45.06824" lon="5.57619">
        <ele>1195</ele>
        <time>2010-01-01T00:36:43Z</time>
      </trkpt>
      <trkpt lat="45.06834" lon="5.57623">
        <ele>1193</ele>
        <time>2010-01-01T00:36:47Z</time>
      </trkpt>
      <trkpt lat="45.06837" lon="5.57623">
        <ele>1192</ele>
        <time>2010-01-01T00:36:49Z</time>
      </trkpt>
      <trkpt lat="45.06842" lon="5.57621">
        <ele>1190</ele>
        <time>2010-01-01T00:36:51Z</time>
      </trkpt>
      <trkpt lat="45.06855" lon="5.57616">
        <ele>1186</ele>
        <time>2010-01-01T00:36:56Z</time>
      </trkpt>
      <trkpt lat="45.06858" lon="5.57617">
        <ele>1186</ele>
        <time>2010-01-01T00:36:57Z</time>
      </trkpt>
      <trkpt lat="45.06862" lon="5.57619">
        <ele>1185</ele>
        <time>2010-01-01T00:36:59Z</time>
      </trkpt>
      <trkpt lat="45.06874" lon="5.57627">
        <ele>1182</ele>
        <time>2010-01-01T00:37:04Z</time>
      </trkpt>
      <trkpt lat="45.06877" lon="5.57628">
        <ele>1181</ele>
        <time>2010-01-01T00:37:05Z</time>
      </trkpt>
      <trkpt lat="45.06884" lon="5.57631">
        <ele>1179</ele>
        <time>2010-01-01T00:37:08Z</time>
      </trkpt>
      <trkpt lat="45.06885" lon="5.57634">
        <ele>1179</ele>
        <time>2010-01-01T00:37:09Z</time>
      </trkpt>
      <trkpt lat="45.06889" lon="5.57637">
        <ele>1178</ele>
        <time>2010-01-01T00:37:11Z</time>
      </trkpt>
      <trkpt lat="45.0689" lon="5.57638">
        <ele>1178</ele>
        <time>2010-01-01T00:37:11Z</time>
      </trkpt>
      <trkpt lat="45.06891" lon="5.57639">
        <ele>1178</ele>
        <time>2010-01-01T00:37:12Z</time>
      </trkpt>
      <trkpt lat="45.06894" lon="5.57644">
        <ele>1178</ele>
        <time>2010-01-01T00:37:14Z</time>
      </trkpt>
      <trkpt lat="45.06904" lon="5.57657">
        <ele>1176</ele>
        <time>2010-01-01T00:37:19Z</time>
      </trkpt>
      <trkpt lat="45.06909" lon="5.57677">
        <ele>1176</ele>
        <time>2010-01-01T00:37:25Z</time>
      </trkpt>
      <trkpt lat="45.06918" lon="5.57693">
        <ele>1176</ele>
        <time>2010-01-01T00:37:31Z</time>
      </trkpt>
      <trkpt lat="45.06933" lon="5.57709">
        <ele>1176</ele>
        <time>2010-01-01T00:37:39Z</time>
      </trkpt>
      <trkpt lat="45.0695" lon="5.57708">
        <ele>1173</ele>
        <time>2010-01-01T00:37:45Z</time>
      </trkpt>
      <trkpt lat="45.06964" lon="5.57695">
        <ele>1170</ele>
        <time>2010-01-01T00:37:52Z</time>
      </trkpt>
      <trkpt lat="45.06977" lon="5.57684">
        <ele>1166</ele>
        <time>2010-01-01T00:37:58Z</time>
      </trkpt>
      <trkpt lat="45.06987" lon="5.57688">
        <ele>1165</ele>
        <time>2010-01-01T00:38:02Z</time>
      </trkpt>
      <trkpt lat="45.06999" lon="5.57697">
        <ele>1165</ele>
        <time>2010-01-01T00:38:08Z</time>
      </trkpt>
      <trkpt lat="45.0701" lon="5.57713">
        <ele>1166</ele>
        <time>2010-01-01T00:38:14Z</time>
      </trkpt>
      <trkpt lat="45.07017" lon="5.57727">
        <ele>1167</ele>
        <time>2010-01-01T00:38:19Z</time>
      </trkpt>
      <trkpt lat="45.07025" lon="5.57737">
        <ele>1168</ele>
        <time>2010-01-01T00:38:23Z</time>
      </trkpt>
      <trkpt lat="45.07035" lon="5.57751">
        <ele>1169</ele>
        <time>2010-01-01T00:38:29Z</time>
      </trkpt>
      <trkpt lat="45.07046" lon="5.57766">
        <ele>1170</ele>
        <time>2010-01-01T00:38:35Z</time>
      </trkpt>
      <trkpt lat="45.07056" lon="5.57778">
        <ele>1172</ele>
        <time>2010-01-01T00:38:40Z</time>
      </trkpt>
      <trkpt lat="45.07069" lon="5.57788">
        <ele>1172</ele>
        <time>2010-01-01T00:38:46Z</time>
      </trkpt>
      <trkpt lat="45.07084" lon="5.57795">
        <ele>1172</ele>
        <time>2010-01-01T00:38:52Z</time>
      </trkpt>
      <trkpt lat="45.07098" lon="5.57804">
        <ele>1173</ele>
        <time>2010-01-01T00:38:58Z</time>
      </trkpt>
      <trkpt lat="45.07109" lon="5.57816">
        <ele>1174</ele>
        <time>2010-01-01T00:39:04Z</time>
      </trkpt>
      <trkpt lat="45.07118" lon="5.57827">
        <ele>1176</ele>
        <time>2010-01-01T00:39:08Z</time>
      </trkpt>
      <trkpt lat="45.07122" lon="5.57835">
        <ele>1177</ele>
        <time>2010-01-01T00:39:12Z</time>
      </trkpt>
      <trkpt lat="45.07129" lon="5.57849">
        <ele>1178</ele>
        <time>2010-01-01T00:39:16Z</time>
      </trkpt>
      <trkpt lat="45.07136" lon="5.5786">
        <ele>1179</ele>
        <time>2010-01-01T00:39:20Z</time>
      </trkpt>
      <trkpt lat="45.07143" lon="5.57869">
        <ele>1180</ele>
        <time>2010-01-01T00:39:24Z</time>
      </trkpt>
      <trkpt lat="45.07149" lon="5.57883">
        <ele>1181</ele>
        <time>2010-01-01T00:39:29Z</time>
      </trkpt>
      <trkpt lat="45.07154" lon="5.5789">
        <ele>1182</ele>
        <time>2010-01-01T00:39:32Z</time>
      </trkpt>
      <trkpt lat="45.07155" lon="5.57892">
        <ele>1182</ele>
        <time>2010-01-01T00:39:32Z</time>
      </trkpt>
      <trkpt lat="45.07166" lon="5.57892">
        <ele>1180</ele>
        <time>2010-01-01T00:39:37Z</time>
      </trkpt>
      <trkpt lat="45.07169" lon="5.57892">
        <ele>1180</ele>
        <time>2010-01-01T00:39:38Z</time>
      </trkpt>
      <trkpt lat="45.07183" lon="5.57888">
        <ele>1178</ele>
        <time>2010-01-01T00:39:44Z</time>
      </trkpt>
      <trkpt lat="45.07203" lon="5.57885">
        <ele>1177</ele>
        <time>2010-01-01T00:39:52Z</time>
      </trkpt>
      <trkpt lat="45.07216" lon="5.57889">
        <ele>1176</ele>
        <time>2010-01-01T00:39:57Z</time>
      </trkpt>
      <trkpt lat="45.07234" lon="5.57894">
        <ele>1176</ele>
        <time>2010-01-01T00:40:04Z</time>
      </trkpt>
      <trkpt lat="45.07248" lon="5.57899">
        <ele>1175</ele>
        <time>2010-01-01T00:40:10Z</time>
      </trkpt>
      <trkpt lat="45.07267" lon="5.57904">
        <ele>1175</ele>
        <time>2010-01-01T00:40:18Z</time>
      </trkpt>
      <trkpt lat="45.0728" lon="5.57911">
        <ele>1175</ele>
        <time>2010-01-01T00:40:23Z</time>
      </trkpt>
      <trkpt lat="45.07292" lon="5.57924">
        <ele>1176</ele>
        <time>2010-01-01T00:40:30Z</time>
      </trkpt>
      <trkpt lat="45.07303" lon="5.57941">
        <ele>1177</ele>
        <time>2010-01-01T00:40:36Z</time>
      </trkpt>
      <trkpt lat="45.07302" lon="5.57959">
        <ele>1178</ele>
        <time>2010-01-01T00:40:41Z</time>
      </trkpt>
      <trkpt lat="45.07298" lon="5.57975">
        <ele>1180</ele>
        <time>2010-01-01T00:40:46Z</time>
      </trkpt>
      <trkpt lat="45.07296" lon="5.57991">
        <ele>1181</ele>
        <time>2010-01-01T00:40:51Z</time>
      </trkpt>
      <trkpt lat="45.07292" lon="5.58005">
        <ele>1183</ele>
        <time>2010-01-01T00:40:55Z</time>
      </trkpt>
      <trkpt lat="45.07289" lon="5.58018">
        <ele>1185</ele>
        <time>2010-01-01T00:40:59Z</time>
      </trkpt>
      <trkpt lat="45.07284" lon="5.5803">
        <ele>1186</ele>
        <time>2010-01-01T00:41:03Z</time>
      </trkpt>
      <trkpt lat="45.07281" lon="5.58039">
        <ele>1188</ele>
        <time>2010-01-01T00:41:06Z</time>
      </trkpt>
      <trkpt lat="45.07276" lon="5.58051">
        <ele>1190</ele>
        <time>2010-01-01T00:41:09Z</time>
      </trkpt>
      <trkpt lat="45.07272" lon="5.58064">
        <ele>1192</ele>
        <time>2010-01-01T00:41:13Z</time>
      </trkpt>
      <trkpt lat="45.07271" lon="5.58076">
        <ele>1194</ele>
        <time>2010-01-01T00:41:17Z</time>
      </trkpt>
      <trkpt lat="45.07271" lon="5.58079">
        <ele>1194</ele>
        <time>2010-01-01T00:41:18Z</time>
      </trkpt>
      <trkpt lat="45.07274" lon="5.58094">
        <ele>1196</ele>
        <time>2010-01-01T00:41:22Z</time>
      </trkpt>
      <trkpt lat="45.07282" lon="5.58103">
        <ele>1197</ele>
        <time>2010-01-01T00:41:26Z</time>
      </trkpt>
      <trkpt lat="45.07285" lon="5.58107">
        <ele>1198</ele>
        <time>2010-01-01T00:41:28Z</time>
      </trkpt>
      <trkpt lat="45.07289" lon="5.58113">
        <ele>1198</ele>
        <time>2010-01-01T00:41:30Z</time>
      </trkpt>
      <trkpt lat="45.07296" lon="5.58125">
        <ele>1200</ele>
        <time>2010-01-01T00:41:35Z</time>
      </trkpt>
      <trkpt lat="45.07302" lon="5.58136">
        <ele>1201</ele>
        <time>2010-01-01T00:41:39Z</time>
      </trkpt>
      <trkpt lat="45.07305" lon="5.58147">
        <ele>1203</ele>
        <time>2010-01-01T00:41:42Z</time>
      </trkpt>
      <trkpt lat="45.0731" lon="5.58157">
        <ele>1204</ele>
        <time>2010-01-01T00:41:45Z</time>
      </trkpt>
      <trkpt lat="45.07315" lon="5.5817">
        <ele>1206</ele>
        <time>2010-01-01T00:41:50Z</time>
      </trkpt>
      <trkpt lat="45.07321" lon="5.58185">
        <ele>1207</ele>
        <time>2010-01-01T00:41:54Z</time>
      </trkpt>
      <trkpt lat="45.0733" lon="5.58201">
        <ele>1208</ele>
        <time>2010-01-01T00:42:00Z</time>
      </trkpt>
      <trkpt lat="45.07335" lon="5.58215">
        <ele>1209</ele>
        <time>2010-01-01T00:42:05Z</time>
      </trkpt>
      <trkpt lat="45.07341" lon="5.58229">
        <ele>1211</ele>
        <time>2010-01-01T00:42:09Z</time>
      </trkpt>
      <trkpt lat="45.07346" lon="5.58241">
        <ele>1212</ele>
        <time>2010-01-01T00:42:13Z</time>
      </trkpt>
      <trkpt lat="45.07351" lon="5.58256">
        <ele>1213</ele>
        <time>2010-01-01T00:42:18Z</time>
      </trkpt>
      <trkpt lat="45.0736" lon="5.58271">
        <ele>1214</ele>
        <time>2010-01-01T00:42:24Z</time>
      </trkpt>
      <trkpt lat="45.07368" lon="5.58285">
        <ele>1215</ele>
        <time>2010-01-01T00:42:28Z</time>
      </trkpt>
      <trkpt lat="45.07377" lon="5.58294">
        <ele>1215</ele>
        <time>2010-01-01T00:42:33Z</time>
      </trkpt>
      <trkpt lat="45.07388" lon="5.58308">
        <ele>1215</ele>
        <time>2010-01-01T00:42:39Z</time>
      </trkpt>
      <trkpt lat="45.07399" lon="5.5832">
        <ele>1215</ele>
        <time>2010-01-01T00:42:44Z</time>
      </trkpt>
      <trkpt lat="45.07411" lon="5.58332">
        <ele>1215</ele>
        <time>2010-01-01T00:42:50Z</time>
      </trkpt>
      <trkpt lat="45.07426" lon="5.58345">
        <ele>1217</ele>
        <time>2010-01-01T00:42:58Z</time>
      </trkpt>
      <trkpt lat="45.07438" lon="5.5836">
        <ele>1219</ele>
        <time>2010-01-01T00:43:04Z</time>
      </trkpt>
      <trkpt lat="45.07449" lon="5.58375">
        <ele>1220</ele>
        <time>2010-01-01T00:43:10Z</time>
      </trkpt>
      <trkpt lat="45.07461" lon="5.58393">
        <ele>1222</ele>
        <time>2010-01-01T00:43:17Z</time>
      </trkpt>
      <trkpt lat="45.0747" lon="5.58409">
        <ele>1224</ele>
        <time>2010-01-01T00:43:23Z</time>
      </trkpt>
      <trkpt lat="45.07483" lon="5.58426">
        <ele>1226</ele>
        <time>2010-01-01T00:43:30Z</time>
      </trkpt>
      <trkpt lat="45.07493" lon="5.5844">
        <ele>1229</ele>
        <time>2010-01-01T00:43:35Z</time>
      </trkpt>
      <trkpt lat="45.07501" lon="5.58451">
        <ele>1231</ele>
        <time>2010-01-01T00:43:40Z</time>
      </trkpt>
      <trkpt lat="45.07508" lon="5.58465">
        <ele>1233</ele>
        <time>2010-01-01T00:43:44Z</time>
      </trkpt>
      <trkpt lat="45.07513" lon="5.58476">
        <ele>1234</ele>
        <time>2010-01-01T00:43:48Z</time>
      </trkpt>
      <trkpt lat="45.07522" lon="5.58488">
        <ele>1236</ele>
        <time>2010-01-01T00:43:53Z</time>
      </trkpt>
      <trkpt lat="45.07534" lon="5.58497">
        <ele>1236</ele>
        <time>2010-01-01T00:43:59Z</time>
      </trkpt>
      <trkpt lat="45.07547" lon="5.58507">
        <ele>1237</ele>
        <time>2010-01-01T00:44:05Z</time>
      </trkpt>
      <trkpt lat="45.07559" lon="5.58516">
        <ele>1238</ele>
        <time>2010-01-01T00:44:10Z</time>
      </trkpt>
      <trkpt lat="45.0757" lon="5.58531">
        <ele>1239</ele>
        <time>2010-01-01T00:44:16Z</time>
      </trkpt>
      <trkpt lat="45.07577" lon="5.58544">
        <ele>1240</ele>
        <time>2010-01-01T00:44:21Z</time>
      </trkpt>
      <trkpt lat="45.07588" lon="5.58558">
        <ele>1241</ele>
        <time>2010-01-01T00:44:27Z</time>
      </trkpt>
      <trkpt lat="45.07592" lon="5.58571">
        <ele>1243</ele>
        <time>2010-01-01T00:44:31Z</time>
      </trkpt>
      <trkpt lat="45.07596" lon="5.58582">
        <ele>1244</ele>
        <time>2010-01-01T00:44:34Z</time>
      </trkpt>
      <trkpt lat="45.07602" lon="5.58596">
        <ele>1245</ele>
        <time>2010-01-01T00:44:39Z</time>
      </trkpt>
      <trkpt lat="45.07609" lon="5.58611">
        <ele>1246</ele>
        <time>2010-01-01T00:44:44Z</time>
      </trkpt>
      <trkpt lat="45.07615" lon="5.58626">
        <ele>1247</ele>
        <time>2010-01-01T00:44:49Z</time>
      </trkpt>
      <trkpt lat="45.07618" lon="5.58639">
        <ele>1247</ele>
        <time>2010-01-01T00:44:53Z</time>
      </trkpt>
      <trkpt lat="45.07622" lon="5.58655">
        <ele>1248</ele>
        <time>2010-01-01T00:44:57Z</time>
      </trkpt>
      <trkpt lat="45.07628" lon="5.58668">
        <ele>1248</ele>
        <time>2010-01-01T00:45:02Z</time>
      </trkpt>
      <trkpt lat="45.07631" lon="5.58684">
        <ele>1248</ele>
        <time>2010-01-01T00:45:06Z</time>
      </trkpt>
      <trkpt lat="45.07634" lon="5.587">
        <ele>1248</ele>
        <time>2010-01-01T00:45:11Z</time>
      </trkpt>
      <trkpt lat="45.07634" lon="5.58704">
        <ele>1248</ele>
        <time>2010-01-01T00:45:12Z</time>
      </trkpt>
      <trkpt lat="45.07636" lon="5.58721">
        <ele>1249</ele>
        <time>2010-01-01T00:45:17Z</time>
      </trkpt>
      <trkpt lat="45.07638" lon="5.58742">
        <ele>1249</ele>
        <time>2010-01-01T00:45:23Z</time>
      </trkpt>
      <trkpt lat="45.07644" lon="5.58758">
        <ele>1249</ele>
        <time>2010-01-01T00:45:28Z</time>
      </trkpt>
      <trkpt lat="45.07653" lon="5.58775">
        <ele>1249</ele>
        <time>2010-01-01T00:45:35Z</time>
      </trkpt>
      <trkpt lat="45.07663" lon="5.58789">
        <ele>1249</ele>
        <time>2010-01-01T00:45:40Z</time>
      </trkpt>
      <trkpt lat="45.07669" lon="5.58804">
        <ele>1249</ele>
        <time>2010-01-01T00:45:45Z</time>
      </trkpt>
      <trkpt lat="45.07671" lon="5.58823">
        <ele>1251</ele>
        <time>2010-01-01T00:45:50Z</time>
      </trkpt>
      <trkpt lat="45.07673" lon="5.58827">
        <ele>1251</ele>
        <time>2010-01-01T00:45:52Z</time>
      </trkpt>
      <trkpt lat="45.07676" lon="5.58832">
        <ele>1251</ele>
        <time>2010-01-01T00:45:54Z</time>
      </trkpt>
      <trkpt lat="45.07677" lon="5.5884">
        <ele>1252</ele>
        <time>2010-01-01T00:45:56Z</time>
      </trkpt>
      <trkpt lat="45.07678" lon="5.58842">
        <ele>1252</ele>
        <time>2010-01-01T00:45:57Z</time>
      </trkpt>
      <trkpt lat="45.07678" lon="5.58846">
        <ele>1253</ele>
        <time>2010-01-01T00:45:58Z</time>
      </trkpt>
      <trkpt lat="45.07677" lon="5.5885">
        <ele>1253</ele>
        <time>2010-01-01T00:45:59Z</time>
      </trkpt>
      <trkpt lat="45.07676" lon="5.5886">
        <ele>1254</ele>
        <time>2010-01-01T00:46:02Z</time>
      </trkpt>
      <trkpt lat="45.07676" lon="5.58869">
        <ele>1255</ele>
        <time>2010-01-01T00:46:04Z</time>
      </trkpt>
      <trkpt lat="45.07675" lon="5.5888">
        <ele>1257</ele>
        <time>2010-01-01T00:46:07Z</time>
      </trkpt>
      <trkpt lat="45.07675" lon="5.58894">
        <ele>1258</ele>
        <time>2010-01-01T00:46:11Z</time>
      </trkpt>
      <trkpt lat="45.07676" lon="5.58901">
        <ele>1259</ele>
        <time>2010-01-01T00:46:14Z</time>
      </trkpt>
      <trkpt lat="45.07679" lon="5.58905">
        <ele>1260</ele>
        <time>2010-01-01T00:46:15Z</time>
      </trkpt>
      <trkpt lat="45.0768" lon="5.5891">
        <ele>1260</ele>
        <time>2010-01-01T00:46:17Z</time>
      </trkpt>
      <trkpt lat="45.07681" lon="5.58913">
        <ele>1261</ele>
        <time>2010-01-01T00:46:17Z</time>
      </trkpt>
      <trkpt lat="45.07682" lon="5.58914">
        <ele>1261</ele>
        <time>2010-01-01T00:46:18Z</time>
      </trkpt>
      <trkpt lat="45.07684" lon="5.58927">
        <ele>1262</ele>
        <time>2010-01-01T00:46:22Z</time>
      </trkpt>
      <trkpt lat="45.07686" lon="5.58931">
        <ele>1262</ele>
        <time>2010-01-01T00:46:23Z</time>
      </trkpt>
      <trkpt lat="45.0769" lon="5.58937">
        <ele>1263</ele>
        <time>2010-01-01T00:46:25Z</time>
      </trkpt>
      <trkpt lat="45.07694" lon="5.58952">
        <ele>1264</ele>
        <time>2010-01-01T00:46:30Z</time>
      </trkpt>
      <trkpt lat="45.077" lon="5.58972">
        <ele>1266</ele>
        <time>2010-01-01T00:46:36Z</time>
      </trkpt>
      <trkpt lat="45.07708" lon="5.5899">
        <ele>1267</ele>
        <time>2010-01-01T00:46:42Z</time>
      </trkpt>
      <trkpt lat="45.07714" lon="5.59012">
        <ele>1269</ele>
        <time>2010-01-01T00:46:49Z</time>
      </trkpt>
      <trkpt lat="45.07716" lon="5.5903">
        <ele>1270</ele>
        <time>2010-01-01T00:46:54Z</time>
      </trkpt>
      <trkpt lat="45.07723" lon="5.59055">
        <ele>1271</ele>
        <time>2010-01-01T00:47:01Z</time>
      </trkpt>
      <trkpt lat="45.07731" lon="5.59069">
        <ele>1272</ele>
        <time>2010-01-01T00:47:07Z</time>
      </trkpt>
      <trkpt lat="45.07732" lon="5.59072">
        <ele>1272</ele>
        <time>2010-01-01T00:47:08Z</time>
      </trkpt>
      <trkpt lat="45.07738" lon="5.5908">
        <ele>1272</ele>
        <time>2010-01-01T00:47:11Z</time>
      </trkpt>
      <trkpt lat="45.07745" lon="5.59096">
        <ele>1273</ele>
        <time>2010-01-01T00:47:16Z</time>
      </trkpt>
      <trkpt lat="45.07748" lon="5.59104">
        <ele>1273</ele>
        <time>2010-01-01T00:47:19Z</time>
      </trkpt>
      <trkpt lat="45.0775" lon="5.59106">
        <ele>1273</ele>
        <time>2010-01-01T00:47:20Z</time>
      </trkpt>
      <trkpt lat="45.07758" lon="5.59128">
        <ele>1273</ele>
        <time>2010-01-01T00:47:27Z</time>
      </trkpt>
      <trkpt lat="45.07762" lon="5.59146">
        <ele>1274</ele>
        <time>2010-01-01T00:47:32Z</time>
      </trkpt>
      <trkpt lat="45.07764" lon="5.59163">
        <ele>1275</ele>
        <time>2010-01-01T00:47:37Z</time>
      </trkpt>
      <trkpt lat="45.07765" lon="5.59181">
        <ele>1275</ele>
        <time>2010-01-01T00:47:42Z</time>
      </trkpt>
      <trkpt lat="45.07771" lon="5.59201">
        <ele>1276</ele>
        <time>2010-01-01T00:47:48Z</time>
      </trkpt>
      <trkpt lat="45.0777" lon="5.59211">
        <ele>1276</ele>
        <time>2010-01-01T00:47:51Z</time>
      </trkpt>
      <trkpt lat="45.07769" lon="5.59215">
        <ele>1276</ele>
        <time>2010-01-01T00:47:52Z</time>
      </trkpt>
      <trkpt lat="45.07769" lon="5.59226">
        <ele>1277</ele>
        <time>2010-01-01T00:47:55Z</time>
      </trkpt>
      <trkpt lat="45.0777" lon="5.59229">
        <ele>1277</ele>
        <time>2010-01-01T00:47:56Z</time>
      </trkpt>
      <trkpt lat="45.07769" lon="5.59237">
        <ele>1277</ele>
        <time>2010-01-01T00:47:59Z</time>
      </trkpt>
      <trkpt lat="45.0777" lon="5.59244">
        <ele>1277</ele>
        <time>2010-01-01T00:48:01Z</time>
      </trkpt>
      <trkpt lat="45.07774" lon="5.59259">
        <ele>1278</ele>
        <time>2010-01-01T00:48:05Z</time>
      </trkpt>
      <trkpt lat="45.07775" lon="5.59261">
        <ele>1278</ele>
        <time>2010-01-01T00:48:06Z</time>
      </trkpt>
      <trkpt lat="45.07778" lon="5.59269">
        <ele>1279</ele>
        <time>2010-01-01T00:48:08Z</time>
      </trkpt>
      <trkpt lat="45.07779" lon="5.59282">
        <ele>1280</ele>
        <time>2010-01-01T00:48:12Z</time>
      </trkpt>
      <trkpt lat="45.07782" lon="5.593">
        <ele>1281</ele>
        <time>2010-01-01T00:48:17Z</time>
      </trkpt>
      <trkpt lat="45.07783" lon="5.59303">
        <ele>1281</ele>
        <time>2010-01-01T00:48:18Z</time>
      </trkpt>
      <trkpt lat="45.07787" lon="5.59314">
        <ele>1281</ele>
        <time>2010-01-01T00:48:22Z</time>
      </trkpt>
      <trkpt lat="45.07788" lon="5.59317">
        <ele>1282</ele>
        <time>2010-01-01T00:48:23Z</time>
      </trkpt>
      <trkpt lat="45.07794" lon="5.59328">
        <ele>1282</ele>
        <time>2010-01-01T00:48:27Z</time>
      </trkpt>
      <trkpt lat="45.07806" lon="5.59337">
        <ele>1283</ele>
        <time>2010-01-01T00:48:32Z</time>
      </trkpt>
      <trkpt lat="45.07817" lon="5.59344">
        <ele>1284</ele>
        <time>2010-01-01T00:48:37Z</time>
      </trkpt>
      <trkpt lat="45.07825" lon="5.59349">
        <ele>1285</ele>
        <time>2010-01-01T00:48:40Z</time>
      </trkpt>
      <trkpt lat="45.07837" lon="5.59357">
        <ele>1286</ele>
        <time>2010-01-01T00:48:46Z</time>
      </trkpt>
      <trkpt lat="45.07843" lon="5.59361">
        <ele>1286</ele>
        <time>2010-01-01T00:48:48Z</time>
      </trkpt>
      <trkpt lat="45.07845" lon="5.59363">
        <ele>1286</ele>
        <time>2010-01-01T00:48:49Z</time>
      </trkpt>
      <trkpt lat="45.07848" lon="5.59364">
        <ele>1287</ele>
        <time>2010-01-01T00:48:51Z</time>
      </trkpt>
      <trkpt lat="45.07853" lon="5.59364">
        <ele>1287</ele>
        <time>2010-01-01T00:48:52Z</time>
      </trkpt>
      <trkpt lat="45.0786" lon="5.59364">
        <ele>1287</ele>
        <time>2010-01-01T00:48:55Z</time>
      </trkpt>
      <trkpt lat="45.07863" lon="5.59365">
        <ele>1287</ele>
        <time>2010-01-01T00:48:56Z</time>
      </trkpt>
      <trkpt lat="45.07868" lon="5.59371">
        <ele>1288</ele>
        <time>2010-01-01T00:48:59Z</time>
      </trkpt>
      <trkpt lat="45.07868" lon="5.59372">
        <ele>1288</ele>
        <time>2010-01-01T00:48:59Z</time>
      </trkpt>
      <trkpt lat="45.07872" lon="5.59377">
        <ele>1288</ele>
        <time>2010-01-01T00:49:02Z</time>
      </trkpt>
      <trkpt lat="45.07874" lon="5.59387">
        <ele>1289</ele>
        <time>2010-01-01T00:49:05Z</time>
      </trkpt>
      <trkpt lat="45.07878" lon="5.59395">
        <ele>1289</ele>
        <time>2010-01-01T00:49:07Z</time>
      </trkpt>
      <trkpt lat="45.07887" lon="5.59409">
        <ele>1290</ele>
        <time>2010-01-01T00:49:13Z</time>
      </trkpt>
      <trkpt lat="45.07897" lon="5.5942">
        <ele>1291</ele>
        <time>2010-01-01T00:49:18Z</time>
      </trkpt>
      <trkpt lat="45.07898" lon="5.59422">
        <ele>1291</ele>
        <time>2010-01-01T00:49:19Z</time>
      </trkpt>
      <trkpt lat="45.07906" lon="5.59432">
        <ele>1293</ele>
        <time>2010-01-01T00:49:23Z</time>
      </trkpt>
      <trkpt lat="45.07907" lon="5.59439">
        <ele>1294</ele>
        <time>2010-01-01T00:49:25Z</time>
      </trkpt>
      <trkpt lat="45.07907" lon="5.59443">
        <ele>1294</ele>
        <time>2010-01-01T00:49:26Z</time>
      </trkpt>
      <trkpt lat="45.07908" lon="5.59445">
        <ele>1294</ele>
        <time>2010-01-01T00:49:27Z</time>
      </trkpt>
      <trkpt lat="45.07911" lon="5.59456">
        <ele>1296</ele>
        <time>2010-01-01T00:49:30Z</time>
      </trkpt>
      <trkpt lat="45.07914" lon="5.59461">
        <ele>1296</ele>
        <time>2010-01-01T00:49:32Z</time>
      </trkpt>
      <trkpt lat="45.07925" lon="5.59466">
        <ele>1297</ele>
        <time>2010-01-01T00:49:36Z</time>
      </trkpt>
      <trkpt lat="45.07935" lon="5.59473">
        <ele>1299</ele>
        <time>2010-01-01T00:49:40Z</time>
      </trkpt>
      <trkpt lat="45.0794" lon="5.59481">
        <ele>1300</ele>
        <time>2010-01-01T00:49:44Z</time>
      </trkpt>
      <trkpt lat="45.0794" lon="5.59484">
        <ele>1300</ele>
        <time>2010-01-01T00:49:45Z</time>
      </trkpt>
      <trkpt lat="45.07941" lon="5.59487">
        <ele>1301</ele>
        <time>2010-01-01T00:49:46Z</time>
      </trkpt>
      <trkpt lat="45.07943" lon="5.59499">
        <ele>1302</ele>
        <time>2010-01-01T00:49:49Z</time>
      </trkpt>
      <trkpt lat="45.07943" lon="5.59512">
        <ele>1305</ele>
        <time>2010-01-01T00:49:53Z</time>
      </trkpt>
      <trkpt lat="45.07946" lon="5.59521">
        <ele>1306</ele>
        <time>2010-01-01T00:49:55Z</time>
      </trkpt>
      <trkpt lat="45.07948" lon="5.59526">
        <ele>1307</ele>
        <time>2010-01-01T00:49:57Z</time>
      </trkpt>
      <trkpt lat="45.07951" lon="5.59534">
        <ele>1308</ele>
        <time>2010-01-01T00:50:00Z</time>
      </trkpt>
      <trkpt lat="45.07952" lon="5.59537">
        <ele>1309</ele>
        <time>2010-01-01T00:50:01Z</time>
      </trkpt>
      <trkpt lat="45.07955" lon="5.59541">
        <ele>1310</ele>
        <time>2010-01-01T00:50:02Z</time>
      </trkpt>
      <trkpt lat="45.07959" lon="5.59544">
        <ele>1310</ele>
        <time>2010-01-01T00:50:04Z</time>
      </trkpt>
      <trkpt lat="45.07963" lon="5.59546">
        <ele>1311</ele>
        <time>2010-01-01T00:50:06Z</time>
      </trkpt>
      <trkpt lat="45.07965" lon="5.59548">
        <ele>1311</ele>
        <time>2010-01-01T00:50:07Z</time>
      </trkpt>
      <trkpt lat="45.07965" lon="5.59549">
        <ele>1311</ele>
        <time>2010-01-01T00:50:07Z</time>
      </trkpt>
      <trkpt lat="45.07967" lon="5.59551">
        <ele>1312</ele>
        <time>2010-01-01T00:50:08Z</time>
      </trkpt>
      <trkpt lat="45.07974" lon="5.59556">
        <ele>1313</ele>
        <time>2010-01-01T00:50:11Z</time>
      </trkpt>
      <trkpt lat="45.07981" lon="5.59565">
        <ele>1314</ele>
        <time>2010-01-01T00:50:15Z</time>
      </trkpt>
      <trkpt lat="45.07985" lon="5.5957">
        <ele>1315</ele>
        <time>2010-01-01T00:50:17Z</time>
      </trkpt>
      <trkpt lat="45.07985" lon="5.59572">
        <ele>1315</ele>
        <time>2010-01-01T00:50:17Z</time>
      </trkpt>
      <trkpt lat="45.07985" lon="5.59573">
        <ele>1315</ele>
        <time>2010-01-01T00:50:18Z</time>
      </trkpt>
      <trkpt lat="45.07988" lon="5.59576">
        <ele>1316</ele>
        <time>2010-01-01T00:50:19Z</time>
      </trkpt>
      <trkpt lat="45.0799" lon="5.59579">
        <ele>1316</ele>
        <time>2010-01-01T00:50:20Z</time>
      </trkpt>
      <trkpt lat="45.07994" lon="5.59581">
        <ele>1317</ele>
        <time>2010-01-01T00:50:22Z</time>
      </trkpt>
      <trkpt lat="45.07995" lon="5.59581">
        <ele>1317</ele>
        <time>2010-01-01T00:50:22Z</time>
      </trkpt>
      <trkpt lat="45.07997" lon="5.59581">
        <ele>1317</ele>
        <time>2010-01-01T00:50:23Z</time>
      </trkpt>
      <trkpt lat="45.08" lon="5.59582">
        <ele>1317</ele>
        <time>2010-01-01T00:50:24Z</time>
      </trkpt>
      <trkpt lat="45.08003" lon="5.59584">
        <ele>1317</ele>
        <time>2010-01-01T00:50:26Z</time>
      </trkpt>
      <trkpt lat="45.08005" lon="5.59585">
        <ele>1317</ele>
        <time>2010-01-01T00:50:27Z</time>
      </trkpt>
      <trkpt lat="45.08021" lon="5.59586">
        <ele>1317</ele>
        <time>2010-01-01T00:50:33Z</time>
      </trkpt>
      <trkpt lat="45.08027" lon="5.5959">
        <ele>1317</ele>
        <time>2010-01-01T00:50:35Z</time>
      </trkpt>
      <trkpt lat="45.08028" lon="5.59588">
        <ele>1317</ele>
        <time>2010-01-01T00:50:36Z</time>
      </trkpt>
      <trkpt lat="45.08031" lon="5.59589">
        <ele>1317</ele>
        <time>2010-01-01T00:50:37Z</time>
      </trkpt>
      <trkpt lat="45.08031" lon="5.5959">
        <ele>1317</ele>
        <time>2010-01-01T00:50:38Z</time>
      </trkpt>
      <trkpt lat="45.08036" lon="5.59595">
        <ele>1317</ele>
        <time>2010-01-01T00:50:40Z</time>
      </trkpt>
      <trkpt lat="45.08041" lon="5.59598">
        <ele>1318</ele>
        <time>2010-01-01T00:50:42Z</time>
      </trkpt>
      <trkpt lat="45.08047" lon="5.59602">
        <ele>1318</ele>
        <time>2010-01-01T00:50:45Z</time>
      </trkpt>
      <trkpt lat="45.08063" lon="5.59616">
        <ele>1319</ele>
        <time>2010-01-01T00:50:52Z</time>
      </trkpt>
      <trkpt lat="45.08072" lon="5.59622">
        <ele>1319</ele>
        <time>2010-01-01T00:50:56Z</time>
      </trkpt>
      <trkpt lat="45.08087" lon="5.59633">
        <ele>1320</ele>
        <time>2010-01-01T00:51:03Z</time>
      </trkpt>
      <trkpt lat="45.08098" lon="5.59635">
        <ele>1319</ele>
        <time>2010-01-01T00:51:08Z</time>
      </trkpt>
      <trkpt lat="45.08112" lon="5.5964">
        <ele>1319</ele>
        <time>2010-01-01T00:51:13Z</time>
      </trkpt>
      <trkpt lat="45.08123" lon="5.59644">
        <ele>1319</ele>
        <time>2010-01-01T00:51:18Z</time>
      </trkpt>
      <trkpt lat="45.08129" lon="5.59644">
        <ele>1319</ele>
        <time>2010-01-01T00:51:20Z</time>
      </trkpt>
      <trkpt lat="45.08144" lon="5.5965">
        <ele>1319</ele>
        <time>2010-01-01T00:51:27Z</time>
      </trkpt>
      <trkpt lat="45.08163" lon="5.59661">
        <ele>1319</ele>
        <time>2010-01-01T00:51:35Z</time>
      </trkpt>
      <trkpt lat="45.08179" lon="5.59674">
        <ele>1322</ele>
        <time>2010-01-01T00:51:42Z</time>
      </trkpt>
      <trkpt lat="45.0819" lon="5.59683">
        <ele>1324</ele>
        <time>2010-01-01T00:51:47Z</time>
      </trkpt>
      <trkpt lat="45.08203" lon="5.59693">
        <ele>1326</ele>
        <time>2010-01-01T00:51:53Z</time>
      </trkpt>
      <trkpt lat="45.08217" lon="5.59707">
        <ele>1328</ele>
        <time>2010-01-01T00:52:00Z</time>
      </trkpt>
      <trkpt lat="45.08228" lon="5.59719">
        <ele>1330</ele>
        <time>2010-01-01T00:52:05Z</time>
      </trkpt>
      <trkpt lat="45.08237" lon="5.59731">
        <ele>1332</ele>
        <time>2010-01-01T00:52:10Z</time>
      </trkpt>
      <trkpt lat="45.08246" lon="5.59742">
        <ele>1334</ele>
        <time>2010-01-01T00:52:15Z</time>
      </trkpt>
      <trkpt lat="45.08252" lon="5.59751">
        <ele>1336</ele>
        <time>2010-01-01T00:52:19Z</time>
      </trkpt>
      <trkpt lat="45.08258" lon="5.59761">
        <ele>1339</ele>
        <time>2010-01-01T00:52:22Z</time>
      </trkpt>
      <trkpt lat="45.08265" lon="5.59772">
        <ele>1342</ele>
        <time>2010-01-01T00:52:27Z</time>
      </trkpt>
      <trkpt lat="45.0827" lon="5.59778">
        <ele>1344</ele>
        <time>2010-01-01T00:52:29Z</time>
      </trkpt>
      <trkpt lat="45.08271" lon="5.59781">
        <ele>1345</ele>
        <time>2010-01-01T00:52:30Z</time>
      </trkpt>
      <trkpt lat="45.08279" lon="5.5979">
        <ele>1347</ele>
        <time>2010-01-01T00:52:34Z</time>
      </trkpt>
      <trkpt lat="45.08282" lon="5.59799">
        <ele>1350</ele>
        <time>2010-01-01T00:52:37Z</time>
      </trkpt>
      <trkpt lat="45.08285" lon="5.59804">
        <ele>1352</ele>
        <time>2010-01-01T00:52:39Z</time>
      </trkpt>
      <trkpt lat="45.08288" lon="5.59806">
        <ele>1352</ele>
        <time>2010-01-01T00:52:40Z</time>
      </trkpt>
      <trkpt lat="45.0829" lon="5.59808">
        <ele>1353</ele>
        <time>2010-01-01T00:52:41Z</time>
      </trkpt>
      <trkpt lat="45.08297" lon="5.59813">
        <ele>1355</ele>
        <time>2010-01-01T00:52:44Z</time>
      </trkpt>
      <trkpt lat="45.08301" lon="5.59815">
        <ele>1355</ele>
        <time>2010-01-01T00:52:46Z</time>
      </trkpt>
      <trkpt lat="45.08304" lon="5.59815">
        <ele>1356</ele>
        <time>2010-01-01T00:52:47Z</time>
      </trkpt>
      <trkpt lat="45.08307" lon="5.59817">
        <ele>1356</ele>
        <time>2010-01-01T00:52:49Z</time>
      </trkpt>
      <trkpt lat="45.08311" lon="5.59816">
        <ele>1356</ele>
        <time>2010-01-01T00:52:50Z</time>
      </trkpt>
      <trkpt lat="45.08314" lon="5.59813">
        <ele>1356</ele>
        <time>2010-01-01T00:52:52Z</time>
      </trkpt>
      <trkpt lat="45.08318" lon="5.59809">
        <ele>1355</ele>
        <time>2010-01-01T00:52:54Z</time>
      </trkpt>
      <trkpt lat="45.08319" lon="5.59808">
        <ele>1355</ele>
        <time>2010-01-01T00:52:54Z</time>
      </trkpt>
      <trkpt lat="45.08321" lon="5.59809">
        <ele>1356</ele>
        <time>2010-01-01T00:52:55Z</time>
      </trkpt>
      <trkpt lat="45.08326" lon="5.59806">
        <ele>1355</ele>
        <time>2010-01-01T00:52:57Z</time>
      </trkpt>
      <trkpt lat="45.08328" lon="5.59805">
        <ele>1355</ele>
        <time>2010-01-01T00:52:58Z</time>
      </trkpt>
      <trkpt lat="45.08331" lon="5.59799">
        <ele>1354</ele>
        <time>2010-01-01T00:53:00Z</time>
      </trkpt>
      <trkpt lat="45.08333" lon="5.59798">
        <ele>1354</ele>
        <time>2010-01-01T00:53:01Z</time>
      </trkpt>
      <trkpt lat="45.08336" lon="5.59793">
        <ele>1353</ele>
        <time>2010-01-01T00:53:03Z</time>
      </trkpt>
      <trkpt lat="45.08338" lon="5.59793">
        <ele>1354</ele>
        <time>2010-01-01T00:53:03Z</time>
      </trkpt>
      <trkpt lat="45.08345" lon="5.59792">
        <ele>1355</ele>
        <time>2010-01-01T00:53:06Z</time>
      </trkpt>
      <trkpt lat="45.08347" lon="5.5979">
        <ele>1354</ele>
        <time>2010-01-01T00:53:07Z</time>
      </trkpt>
      <trkpt lat="45.08358" lon="5.59781">
        <ele>1354</ele>
        <time>2010-01-01T00:53:12Z</time>
      </trkpt>
      <trkpt lat="45.08366" lon="5.59775">
        <ele>1354</ele>
        <time>2010-01-01T00:53:16Z</time>
      </trkpt>
      <trkpt lat="45.08374" lon="5.59773">
        <ele>1355</ele>
        <time>2010-01-01T00:53:19Z</time>
      </trkpt>
      <trkpt lat="45.08379" lon="5.59771">
        <ele>1356</ele>
        <time>2010-01-01T00:53:21Z</time>
      </trkpt>
      <trkpt lat="45.08381" lon="5.59769">
        <ele>1356</ele>
        <time>2010-01-01T00:53:22Z</time>
      </trkpt>
      <trkpt lat="45.08384" lon="5.59769">
        <ele>1356</ele>
        <time>2010-01-01T00:53:23Z</time>
      </trkpt>
      <trkpt lat="45.08387" lon="5.59767">
        <ele>1356</ele>
        <time>2010-01-01T00:53:25Z</time>
      </trkpt>
      <trkpt lat="45.08391" lon="5.59767">
        <ele>1357</ele>
        <time>2010-01-01T00:53:26Z</time>
      </trkpt>
      <trkpt lat="45.08393" lon="5.59768">
        <ele>1357</ele>
        <time>2010-01-01T00:53:27Z</time>
      </trkpt>
      <trkpt lat="45.08398" lon="5.59771">
        <ele>1359</ele>
        <time>2010-01-01T00:53:29Z</time>
      </trkpt>
      <trkpt lat="45.08399" lon="5.59771">
        <ele>1359</ele>
        <time>2010-01-01T00:53:30Z</time>
      </trkpt>
      <trkpt lat="45.08407" lon="5.5977">
        <ele>1360</ele>
        <time>2010-01-01T00:53:33Z</time>
      </trkpt>
      <trkpt lat="45.08417" lon="5.5977">
        <ele>1362</ele>
        <time>2010-01-01T00:53:37Z</time>
      </trkpt>
      <trkpt lat="45.08419" lon="5.5977">
        <ele>1362</ele>
        <time>2010-01-01T00:53:38Z</time>
      </trkpt>
      <trkpt lat="45.08432" lon="5.59775">
        <ele>1367</ele>
        <time>2010-01-01T00:53:43Z</time>
      </trkpt>
      <trkpt lat="45.08443" lon="5.59775">
        <ele>1370</ele>
        <time>2010-01-01T00:53:47Z</time>
      </trkpt>
      <trkpt lat="45.08445" lon="5.59774">
        <ele>1371</ele>
        <time>2010-01-01T00:53:48Z</time>
      </trkpt>
      <trkpt lat="45.0845" lon="5.59774">
        <ele>1372</ele>
        <time>2010-01-01T00:53:50Z</time>
      </trkpt>
      <trkpt lat="45.08455" lon="5.5977">
        <ele>1373</ele>
        <time>2010-01-01T00:53:53Z</time>
      </trkpt>
      <trkpt lat="45.08459" lon="5.59766">
        <ele>1373</ele>
        <time>2010-01-01T00:53:55Z</time>
      </trkpt>
      <trkpt lat="45.08465" lon="5.59753">
        <ele>1372</ele>
        <time>2010-01-01T00:53:59Z</time>
      </trkpt>
      <trkpt lat="45.0847" lon="5.59746">
        <ele>1372</ele>
        <time>2010-01-01T00:54:02Z</time>
      </trkpt>
      <trkpt lat="45.0847" lon="5.5974">
        <ele>1371</ele>
        <time>2010-01-01T00:54:04Z</time>
      </trkpt>
      <trkpt lat="45.08472" lon="5.59732">
        <ele>1370</ele>
        <time>2010-01-01T00:54:06Z</time>
      </trkpt>
      <trkpt lat="45.08474" lon="5.59727">
        <ele>1370</ele>
        <time>2010-01-01T00:54:07Z</time>
      </trkpt>
      <trkpt lat="45.08476" lon="5.59714">
        <ele>1368</ele>
        <time>2010-01-01T00:54:11Z</time>
      </trkpt>
      <trkpt lat="45.08485" lon="5.59704">
        <ele>1368</ele>
        <time>2010-01-01T00:54:16Z</time>
      </trkpt>
      <trkpt lat="45.08493" lon="5.59701">
        <ele>1370</ele>
        <time>2010-01-01T00:54:19Z</time>
      </trkpt>
      <trkpt lat="45.085" lon="5.59694">
        <ele>1371</ele>
        <time>2010-01-01T00:54:22Z</time>
      </trkpt>
      <trkpt lat="45.08508" lon="5.59697">
        <ele>1373</ele>
        <time>2010-01-01T00:54:26Z</time>
      </trkpt>
      <trkpt lat="45.08509" lon="5.59696">
        <ele>1373</ele>
        <time>2010-01-01T00:54:26Z</time>
      </trkpt>
      <trkpt lat="45.08515" lon="5.59692">
        <ele>1374</ele>
        <time>2010-01-01T00:54:29Z</time>
      </trkpt>
      <trkpt lat="45.08518" lon="5.59692">
        <ele>1375</ele>
        <time>2010-01-01T00:54:30Z</time>
      </trkpt>
      <trkpt lat="45.08524" lon="5.59691">
        <ele>1377</ele>
        <time>2010-01-01T00:54:32Z</time>
      </trkpt>
      <trkpt lat="45.0853" lon="5.59693">
        <ele>1379</ele>
        <time>2010-01-01T00:54:35Z</time>
      </trkpt>
      <trkpt lat="45.08532" lon="5.59693">
        <ele>1379</ele>
        <time>2010-01-01T00:54:36Z</time>
      </trkpt>
      <trkpt lat="45.08538" lon="5.59693">
        <ele>1381</ele>
        <time>2010-01-01T00:54:38Z</time>
      </trkpt>
      <trkpt lat="45.08538" lon="5.59692">
        <ele>1381</ele>
        <time>2010-01-01T00:54:38Z</time>
      </trkpt>
      <trkpt lat="45.0854" lon="5.59692">
        <ele>1381</ele>
        <time>2010-01-01T00:54:39Z</time>
      </trkpt>
      <trkpt lat="45.08549" lon="5.59694">
        <ele>1384</ele>
        <time>2010-01-01T00:54:42Z</time>
      </trkpt>
      <trkpt lat="45.08558" lon="5.59695">
        <ele>1387</ele>
        <time>2010-01-01T00:54:46Z</time>
      </trkpt>
      <trkpt lat="45.0856" lon="5.59694">
        <ele>1387</ele>
        <time>2010-01-01T00:54:47Z</time>
      </trkpt>
      <trkpt lat="45.08568" lon="5.59696">
        <ele>1390</ele>
        <time>2010-01-01T00:54:50Z</time>
      </trkpt>
      <trkpt lat="45.0857" lon="5.59694">
        <ele>1390</ele>
        <time>2010-01-01T00:54:51Z</time>
      </trkpt>
      <trkpt lat="45.08572" lon="5.59686">
        <ele>1389</ele>
        <time>2010-01-01T00:54:53Z</time>
      </trkpt>
      <trkpt lat="45.08573" lon="5.59681">
        <ele>1389</ele>
        <time>2010-01-01T00:54:55Z</time>
      </trkpt>
      <trkpt lat="45.08577" lon="5.59671">
        <ele>1389</ele>
        <time>2010-01-01T00:54:58Z</time>
      </trkpt>
      <trkpt lat="45.08582" lon="5.59655">
        <ele>1389</ele>
        <time>2010-01-01T00:55:03Z</time>
      </trkpt>
      <trkpt lat="45.08587" lon="5.59643">
        <ele>1389</ele>
        <time>2010-01-01T00:55:07Z</time>
      </trkpt>
      <trkpt lat="45.08592" lon="5.59629">
        <ele>1389</ele>
        <time>2010-01-01T00:55:11Z</time>
      </trkpt>
      <trkpt lat="45.08593" lon="5.59624">
        <ele>1389</ele>
        <time>2010-01-01T00:55:13Z</time>
      </trkpt>
      <trkpt lat="45.08598" lon="5.59616">
        <ele>1389</ele>
        <time>2010-01-01T00:55:16Z</time>
      </trkpt>
      <trkpt lat="45.08601" lon="5.59612">
        <ele>1390</ele>
        <time>2010-01-01T00:55:18Z</time>
      </trkpt>
      <trkpt lat="45.08604" lon="5.59607">
        <ele>1390</ele>
        <time>2010-01-01T00:55:20Z</time>
      </trkpt>
      <trkpt lat="45.0861" lon="5.59601">
        <ele>1391</ele>
        <time>2010-01-01T00:55:22Z</time>
      </trkpt>
      <trkpt lat="45.08616" lon="5.59598">
        <ele>1391</ele>
        <time>2010-01-01T00:55:25Z</time>
      </trkpt>
      <trkpt lat="45.0862" lon="5.59593">
        <ele>1392</ele>
        <time>2010-01-01T00:55:27Z</time>
      </trkpt>
      <trkpt lat="45.08626" lon="5.59588">
        <ele>1392</ele>
        <time>2010-01-01T00:55:30Z</time>
      </trkpt>
      <trkpt lat="45.08632" lon="5.59582">
        <ele>1393</ele>
        <time>2010-01-01T00:55:33Z</time>
      </trkpt>
      <trkpt lat="45.08633" lon="5.5958">
        <ele>1393</ele>
        <time>2010-01-01T00:55:33Z</time>
      </trkpt>
      <trkpt lat="45.08638" lon="5.59575">
        <ele>1393</ele>
        <time>2010-01-01T00:55:36Z</time>
      </trkpt>
      <trkpt lat="45.08639" lon="5.59575">
        <ele>1393</ele>
        <time>2010-01-01T00:55:36Z</time>
      </trkpt>
      <trkpt lat="45.08641" lon="5.59573">
        <ele>1394</ele>
        <time>2010-01-01T00:55:37Z</time>
      </trkpt>
      <trkpt lat="45.08644" lon="5.59571">
        <ele>1394</ele>
        <time>2010-01-01T00:55:39Z</time>
      </trkpt>
      <trkpt lat="45.08649" lon="5.5957">
        <ele>1395</ele>
        <time>2010-01-01T00:55:40Z</time>
      </trkpt>
      <trkpt lat="45.08657" lon="5.5957">
        <ele>1396</ele>
        <time>2010-01-01T00:55:44Z</time>
      </trkpt>
      <trkpt lat="45.08667" lon="5.59562">
        <ele>1397</ele>
        <time>2010-01-01T00:55:48Z</time>
      </trkpt>
      <trkpt lat="45.08679" lon="5.59553">
        <ele>1397</ele>
        <time>2010-01-01T00:55:54Z</time>
      </trkpt>
      <trkpt lat="45.0869" lon="5.59546">
        <ele>1398</ele>
        <time>2010-01-01T00:55:59Z</time>
      </trkpt>
      <trkpt lat="45.08705" lon="5.5954">
        <ele>1399</ele>
        <time>2010-01-01T00:56:05Z</time>
      </trkpt>
      <trkpt lat="45.08719" lon="5.59535">
        <ele>1400</ele>
        <time>2010-01-01T00:56:10Z</time>
      </trkpt>
      <trkpt lat="45.08729" lon="5.59532">
        <ele>1401</ele>
        <time>2010-01-01T00:56:15Z</time>
      </trkpt>
      <trkpt lat="45.08741" lon="5.5953">
        <ele>1402</ele>
        <time>2010-01-01T00:56:20Z</time>
      </trkpt>
      <trkpt lat="45.08747" lon="5.59531">
        <ele>1403</ele>
        <time>2010-01-01T00:56:22Z</time>
      </trkpt>
      <trkpt lat="45.08752" lon="5.59531">
        <ele>1403</ele>
        <time>2010-01-01T00:56:24Z</time>
      </trkpt>
      <trkpt lat="45.0876" lon="5.59537">
        <ele>1405</ele>
        <time>2010-01-01T00:56:28Z</time>
      </trkpt>
      <trkpt lat="45.08767" lon="5.5954">
        <ele>1405</ele>
        <time>2010-01-01T00:56:30Z</time>
      </trkpt>
      <trkpt lat="45.0878" lon="5.59537">
        <ele>1406</ele>
        <time>2010-01-01T00:56:36Z</time>
      </trkpt>
      <trkpt lat="45.08793" lon="5.59536">
        <ele>1407</ele>
        <time>2010-01-01T00:56:41Z</time>
      </trkpt>
      <trkpt lat="45.088" lon="5.59531">
        <ele>1407</ele>
        <time>2010-01-01T00:56:44Z</time>
      </trkpt>
      <trkpt lat="45.08802" lon="5.59531">
        <ele>1407</ele>
        <time>2010-01-01T00:56:45Z</time>
      </trkpt>
      <trkpt lat="45.08813" lon="5.59524">
        <ele>1407</ele>
        <time>2010-01-01T00:56:50Z</time>
      </trkpt>
      <trkpt lat="45.08815" lon="5.59521">
        <ele>1406</ele>
        <time>2010-01-01T00:56:51Z</time>
      </trkpt>
      <trkpt lat="45.08825" lon="5.59521">
        <ele>1407</ele>
        <time>2010-01-01T00:56:55Z</time>
      </trkpt>
      <trkpt lat="45.08834" lon="5.5952">
        <ele>1408</ele>
        <time>2010-01-01T00:56:59Z</time>
      </trkpt>
      <trkpt lat="45.08836" lon="5.59521">
        <ele>1408</ele>
        <time>2010-01-01T00:56:59Z</time>
      </trkpt>
      <trkpt lat="45.08842" lon="5.59521">
        <ele>1408</ele>
        <time>2010-01-01T00:57:02Z</time>
      </trkpt>
      <trkpt lat="45.08843" lon="5.59521">
        <ele>1409</ele>
        <time>2010-01-01T00:57:02Z</time>
      </trkpt>
      <trkpt lat="45.08853" lon="5.59523">
        <ele>1409</ele>
        <time>2010-01-01T00:57:06Z</time>
      </trkpt>
      <trkpt lat="45.08866" lon="5.59531">
        <ele>1411</ele>
        <time>2010-01-01T00:57:12Z</time>
      </trkpt>
      <trkpt lat="45.08874" lon="5.59543">
        <ele>1413</ele>
        <time>2010-01-01T00:57:16Z</time>
      </trkpt>
      <trkpt lat="45.08875" lon="5.59553">
        <ele>1414</ele>
        <time>2010-01-01T00:57:19Z</time>
      </trkpt>
      <trkpt lat="45.08877" lon="5.59555">
        <ele>1414</ele>
        <time>2010-01-01T00:57:20Z</time>
      </trkpt>
      <trkpt lat="45.08883" lon="5.59561">
        <ele>1415</ele>
        <time>2010-01-01T00:57:23Z</time>
      </trkpt>
      <trkpt lat="45.08891" lon="5.59568">
        <ele>1417</ele>
        <time>2010-01-01T00:57:27Z</time>
      </trkpt>
      <trkpt lat="45.08895" lon="5.59573">
        <ele>1417</ele>
        <time>2010-01-01T00:57:29Z</time>
      </trkpt>
      <trkpt lat="45.08896" lon="5.59575">
        <ele>1418</ele>
        <time>2010-01-01T00:57:30Z</time>
      </trkpt>
      <trkpt lat="45.08902" lon="5.59582">
        <ele>1419</ele>
        <time>2010-01-01T00:57:33Z</time>
      </trkpt>
      <trkpt lat="45.08907" lon="5.59587">
        <ele>1419</ele>
        <time>2010-01-01T00:57:35Z</time>
      </trkpt>
      <trkpt lat="45.08908" lon="5.59594">
        <ele>1420</ele>
        <time>2010-01-01T00:57:37Z</time>
      </trkpt>
      <trkpt lat="45.08914" lon="5.596">
        <ele>1421</ele>
        <time>2010-01-01T00:57:40Z</time>
      </trkpt>
      <trkpt lat="45.08919" lon="5.59609">
        <ele>1421</ele>
        <time>2010-01-01T00:57:43Z</time>
      </trkpt>
      <trkpt lat="45.0892" lon="5.5961">
        <ele>1422</ele>
        <time>2010-01-01T00:57:44Z</time>
      </trkpt>
      <trkpt lat="45.08926" lon="5.59618">
        <ele>1422</ele>
        <time>2010-01-01T00:57:47Z</time>
      </trkpt>
      <trkpt lat="45.08925" lon="5.59622">
        <ele>1423</ele>
        <time>2010-01-01T00:57:48Z</time>
      </trkpt>
      <trkpt lat="45.08927" lon="5.59625">
        <ele>1423</ele>
        <time>2010-01-01T00:57:50Z</time>
      </trkpt>
      <trkpt lat="45.08929" lon="5.59634">
        <ele>1424</ele>
        <time>2010-01-01T00:57:52Z</time>
      </trkpt>
      <trkpt lat="45.08931" lon="5.59643">
        <ele>1425</ele>
        <time>2010-01-01T00:57:55Z</time>
      </trkpt>
      <trkpt lat="45.08931" lon="5.59652">
        <ele>1425</ele>
        <time>2010-01-01T00:57:58Z</time>
      </trkpt>
      <trkpt lat="45.08931" lon="5.5966">
        <ele>1426</ele>
        <time>2010-01-01T00:58:00Z</time>
      </trkpt>
      <trkpt lat="45.08931" lon="5.59679">
        <ele>1428</ele>
        <time>2010-01-01T00:58:05Z</time>
      </trkpt>
      <trkpt lat="45.08936" lon="5.59692">
        <ele>1429</ele>
        <time>2010-01-01T00:58:09Z</time>
      </trkpt>
      <trkpt lat="45.08941" lon="5.59707">
        <ele>1430</ele>
        <time>2010-01-01T00:58:14Z</time>
      </trkpt>
      <trkpt lat="45.08949" lon="5.5972">
        <ele>1431</ele>
        <time>2010-01-01T00:58:19Z</time>
      </trkpt>
      <trkpt lat="45.08957" lon="5.59736">
        <ele>1433</ele>
        <time>2010-01-01T00:58:24Z</time>
      </trkpt>
      <trkpt lat="45.08965" lon="5.5975">
        <ele>1434</ele>
        <time>2010-01-01T00:58:29Z</time>
      </trkpt>
      <trkpt lat="45.08965" lon="5.59753">
        <ele>1434</ele>
        <time>2010-01-01T00:58:30Z</time>
      </trkpt>
      <trkpt lat="45.08962" lon="5.59762">
        <ele>1435</ele>
        <time>2010-01-01T00:58:33Z</time>
      </trkpt>
      <trkpt lat="45.08961" lon="5.59774">
        <ele>1436</ele>
        <time>2010-01-01T00:58:36Z</time>
      </trkpt>
      <trkpt lat="45.08957" lon="5.59782">
        <ele>1437</ele>
        <time>2010-01-01T00:58:39Z</time>
      </trkpt>
      <trkpt lat="45.08953" lon="5.59788">
        <ele>1437</ele>
        <time>2010-01-01T00:58:41Z</time>
      </trkpt>
      <trkpt lat="45.0895" lon="5.59799">
        <ele>1438</ele>
        <time>2010-01-01T00:58:45Z</time>
      </trkpt>
      <trkpt lat="45.08949" lon="5.59802">
        <ele>1438</ele>
        <time>2010-01-01T00:58:46Z</time>
      </trkpt>
      <trkpt lat="45.08948" lon="5.59809">
        <ele>1439</ele>
        <time>2010-01-01T00:58:48Z</time>
      </trkpt>
      <trkpt lat="45.08947" lon="5.59814">
        <ele>1439</ele>
        <time>2010-01-01T00:58:49Z</time>
      </trkpt>
      <trkpt lat="45.08942" lon="5.59827">
        <ele>1441</ele>
        <time>2010-01-01T00:58:53Z</time>
      </trkpt>
      <trkpt lat="45.08942" lon="5.59835">
        <ele>1441</ele>
        <time>2010-01-01T00:58:56Z</time>
      </trkpt>
      <trkpt lat="45.08943" lon="5.59841">
        <ele>1442</ele>
        <time>2010-01-01T00:58:57Z</time>
      </trkpt>
      <trkpt lat="45.0894" lon="5.59857">
        <ele>1443</ele>
        <time>2010-01-01T00:59:02Z</time>
      </trkpt>
      <trkpt lat="45.08941" lon="5.59872">
        <ele>1443</ele>
        <time>2010-01-01T00:59:06Z</time>
      </trkpt>
      <trkpt lat="45.08945" lon="5.59881">
        <ele>1444</ele>
        <time>2010-01-01T00:59:09Z</time>
      </trkpt>
      <trkpt lat="45.08946" lon="5.59884">
        <ele>1444</ele>
        <time>2010-01-01T00:59:10Z</time>
      </trkpt>
      <trkpt lat="45.08948" lon="5.59888">
        <ele>1444</ele>
        <time>2010-01-01T00:59:12Z</time>
      </trkpt>
      <trkpt lat="45.08947" lon="5.5989">
        <ele>1444</ele>
        <time>2010-01-01T00:59:12Z</time>
      </trkpt>
      <trkpt lat="45.08947" lon="5.59894">
        <ele>1445</ele>
        <time>2010-01-01T00:59:13Z</time>
      </trkpt>
      <trkpt lat="45.08951" lon="5.59902">
        <ele>1445</ele>
        <time>2010-01-01T00:59:16Z</time>
      </trkpt>
      <trkpt lat="45.08954" lon="5.59911">
        <ele>1446</ele>
        <time>2010-01-01T00:59:19Z</time>
      </trkpt>
      <trkpt lat="45.08961" lon="5.59917">
        <ele>1446</ele>
        <time>2010-01-01T00:59:22Z</time>
      </trkpt>
      <trkpt lat="45.08967" lon="5.59931">
        <ele>1446</ele>
        <time>2010-01-01T00:59:27Z</time>
      </trkpt>
      <trkpt lat="45.08972" lon="5.59944">
        <ele>1447</ele>
        <time>2010-01-01T00:59:31Z</time>
      </trkpt>
      <trkpt lat="45.08973" lon="5.59949">
        <ele>1447</ele>
        <time>2010-01-01T00:59:32Z</time>
      </trkpt>
      <trkpt lat="45.08976" lon="5.5996">
        <ele>1447</ele>
        <time>2010-01-01T00:59:36Z</time>
      </trkpt>
      <trkpt lat="45.08981" lon="5.59965">
        <ele>1447</ele>
        <time>2010-01-01T00:59:38Z</time>
      </trkpt>
      <trkpt lat="45.08985" lon="5.59969">
        <ele>1447</ele>
        <time>2010-01-01T00:59:40Z</time>
      </trkpt>
      <trkpt lat="45.08991" lon="5.59972">
        <ele>1447</ele>
        <time>2010-01-01T00:59:43Z</time>
      </trkpt>
      <trkpt lat="45.08992" lon="5.5997">
        <ele>1447</ele>
        <time>2010-01-01T00:59:44Z</time>
      </trkpt>
      <trkpt lat="45.08995" lon="5.59965">
        <ele>1447</ele>
        <time>2010-01-01T00:59:45Z</time>
      </trkpt>
      <trkpt lat="45.08999" lon="5.59963">
        <ele>1447</ele>
        <time>2010-01-01T00:59:47Z</time>
      </trkpt>
      <trkpt lat="45.09" lon="5.59965">
        <ele>1447</ele>
        <time>2010-01-01T00:59:48Z</time>
      </trkpt>
      <trkpt lat="45.09005" lon="5.59971">
        <ele>1447</ele>
        <time>2010-01-01T00:59:50Z</time>
      </trkpt>
      <trkpt lat="45.09009" lon="5.59979">
        <ele>1447</ele>
        <time>2010-01-01T00:59:53Z</time>
      </trkpt>
      <trkpt lat="45.09017" lon="5.59983">
        <ele>1447</ele>
        <time>2010-01-01T00:59:57Z</time>
      </trkpt>
      <trkpt lat="45.09026" lon="5.59993">
        <ele>1448</ele>
        <time>2010-01-01T01:00:01Z</time>
      </trkpt>
      <trkpt lat="45.09028" lon="5.59996">
        <ele>1448</ele>
        <time>2010-01-01T01:00:02Z</time>
      </trkpt>
      <trkpt lat="45.09035" lon="5.60001">
        <ele>1448</ele>
        <time>2010-01-01T01:00:05Z</time>
      </trkpt>
      <trkpt lat="45.09046" lon="5.60007">
        <ele>1448</ele>
        <time>2010-01-01T01:00:10Z</time>
      </trkpt>
      <trkpt lat="45.09059" lon="5.60011">
        <ele>1448</ele>
        <time>2010-01-01T01:00:15Z</time>
      </trkpt>
      <trkpt lat="45.09067" lon="5.60005">
        <ele>1447</ele>
        <time>2010-01-01T01:00:19Z</time>
      </trkpt>
      <trkpt lat="45.09077" lon="5.60007">
        <ele>1447</ele>
        <time>2010-01-01T01:00:23Z</time>
      </trkpt>
      <trkpt lat="45.09085" lon="5.60004">
        <ele>1447</ele>
        <time>2010-01-01T01:00:26Z</time>
      </trkpt>
      <trkpt lat="45.09094" lon="5.6001">
        <ele>1448</ele>
        <time>2010-01-01T01:00:30Z</time>
      </trkpt>
      <trkpt lat="45.09103" lon="5.60013">
        <ele>1448</ele>
        <time>2010-01-01T01:00:34Z</time>
      </trkpt>
      <trkpt lat="45.09109" lon="5.60014">
        <ele>1449</ele>
        <time>2010-01-01T01:00:36Z</time>
      </trkpt>
      <trkpt lat="45.09121" lon="5.60007">
        <ele>1449</ele>
        <time>2010-01-01T01:00:41Z</time>
      </trkpt>
      <trkpt lat="45.09123" lon="5.60006">
        <ele>1449</ele>
        <time>2010-01-01T01:00:42Z</time>
      </trkpt>
      <trkpt lat="45.09131" lon="5.60003">
        <ele>1449</ele>
        <time>2010-01-01T01:00:46Z</time>
      </trkpt>
      <trkpt lat="45.09134" lon="5.60003">
        <ele>1449</ele>
        <time>2010-01-01T01:00:47Z</time>
      </trkpt>
      <trkpt lat="45.09148" lon="5.60002">
        <ele>1449</ele>
        <time>2010-01-01T01:00:53Z</time>
      </trkpt>
      <trkpt lat="45.09161" lon="5.60006">
        <ele>1450</ele>
        <time>2010-01-01T01:00:58Z</time>
      </trkpt>
      <trkpt lat="45.0917" lon="5.60011">
        <ele>1451</ele>
        <time>2010-01-01T01:01:02Z</time>
      </trkpt>
      <trkpt lat="45.09172" lon="5.60013">
        <ele>1451</ele>
        <time>2010-01-01T01:01:03Z</time>
      </trkpt>
      <trkpt lat="45.09173" lon="5.60015">
        <ele>1451</ele>
        <time>2010-01-01T01:01:03Z</time>
      </trkpt>
      <trkpt lat="45.09175" lon="5.60017">
        <ele>1451</ele>
        <time>2010-01-01T01:01:04Z</time>
      </trkpt>
      <trkpt lat="45.09178" lon="5.60018">
        <ele>1451</ele>
        <time>2010-01-01T01:01:06Z</time>
      </trkpt>
      <trkpt lat="45.09182" lon="5.60019">
        <ele>1452</ele>
        <time>2010-01-01T01:01:07Z</time>
      </trkpt>
      <trkpt lat="45.09197" lon="5.60023">
        <ele>1452</ele>
        <time>2010-01-01T01:01:13Z</time>
      </trkpt>
      <trkpt lat="45.09209" lon="5.6003">
        <ele>1453</ele>
        <time>2010-01-01T01:01:18Z</time>
      </trkpt>
      <trkpt lat="45.09222" lon="5.60036">
        <ele>1454</ele>
        <time>2010-01-01T01:01:24Z</time>
      </trkpt>
      <trkpt lat="45.09233" lon="5.60039">
        <ele>1454</ele>
        <time>2010-01-01T01:01:28Z</time>
      </trkpt>
      <trkpt lat="45.09246" lon="5.60044">
        <ele>1454</ele>
        <time>2010-01-01T01:01:34Z</time>
      </trkpt>
      <trkpt lat="45.09257" lon="5.60051">
        <ele>1454</ele>
        <time>2010-01-01T01:01:39Z</time>
      </trkpt>
      <trkpt lat="45.09274" lon="5.60059">
        <ele>1455</ele>
        <time>2010-01-01T01:01:46Z</time>
      </trkpt>
      <trkpt lat="45.09291" lon="5.60064">
        <ele>1455</ele>
        <time>2010-01-01T01:01:53Z</time>
      </trkpt>
      <trkpt lat="45.09304" lon="5.60069">
        <ele>1456</ele>
        <time>2010-01-01T01:01:58Z</time>
      </trkpt>
      <trkpt lat="45.09323" lon="5.60074">
        <ele>1457</ele>
        <time>2010-01-01T01:02:06Z</time>
      </trkpt>
      <trkpt lat="45.09338" lon="5.6008">
        <ele>1457</ele>
        <time>2010-01-01T01:02:12Z</time>
      </trkpt>
      <trkpt lat="45.09354" lon="5.60086">
        <ele>1458</ele>
        <time>2010-01-01T01:02:19Z</time>
      </trkpt>
      <trkpt lat="45.09366" lon="5.60092">
        <ele>1458</ele>
        <time>2010-01-01T01:02:24Z</time>
      </trkpt>
      <trkpt lat="45.09379" lon="5.60102">
        <ele>1458</ele>
        <time>2010-01-01T01:02:30Z</time>
      </trkpt>
      <trkpt lat="45.09395" lon="5.60117">
        <ele>1458</ele>
        <time>2010-01-01T01:02:37Z</time>
      </trkpt>
      <trkpt lat="45.09406" lon="5.60126">
        <ele>1457</ele>
        <time>2010-01-01T01:02:43Z</time>
      </trkpt>
      <trkpt lat="45.09418" lon="5.60133">
        <ele>1457</ele>
        <time>2010-01-01T01:02:48Z</time>
      </trkpt>
      <trkpt lat="45.09431" lon="5.60142">
        <ele>1457</ele>
        <time>2010-01-01T01:02:53Z</time>
      </trkpt>
      <trkpt lat="45.09445" lon="5.6015">
        <ele>1456</ele>
        <time>2010-01-01T01:03:00Z</time>
      </trkpt>
      <trkpt lat="45.09465" lon="5.60155">
        <ele>1456</ele>
        <time>2010-01-01T01:03:08Z</time>
      </trkpt>
      <trkpt lat="45.09482" lon="5.6016">
        <ele>1456</ele>
        <time>2010-01-01T01:03:15Z</time>
      </trkpt>
      <trkpt lat="45.09501" lon="5.60163">
        <ele>1456</ele>
        <time>2010-01-01T01:03:22Z</time>
      </trkpt>
      <trkpt lat="45.09506" lon="5.60162">
        <ele>1456</ele>
        <time>2010-01-01T01:03:25Z</time>
      </trkpt>
      <trkpt lat="45.09507" lon="5.60161">
        <ele>1456</ele>
        <time>2010-01-01T01:03:25Z</time>
      </trkpt>
      <trkpt lat="45.0951" lon="5.6016">
        <ele>1456</ele>
        <time>2010-01-01T01:03:26Z</time>
      </trkpt>
      <trkpt lat="45.09514" lon="5.60158">
        <ele>1457</ele>
        <time>2010-01-01T01:03:28Z</time>
      </trkpt>
      <trkpt lat="45.09517" lon="5.60157">
        <ele>1457</ele>
        <time>2010-01-01T01:03:29Z</time>
      </trkpt>
      <trkpt lat="45.09524" lon="5.60155">
        <ele>1457</ele>
        <time>2010-01-01T01:03:32Z</time>
      </trkpt>
      <trkpt lat="45.09528" lon="5.60152">
        <ele>1457</ele>
        <time>2010-01-01T01:03:34Z</time>
      </trkpt>
      <trkpt lat="45.0954" lon="5.60149">
        <ele>1457</ele>
        <time>2010-01-01T01:03:38Z</time>
      </trkpt>
      <trkpt lat="45.09554" lon="5.60143">
        <ele>1458</ele>
        <time>2010-01-01T01:03:44Z</time>
      </trkpt>
      <trkpt lat="45.09568" lon="5.6014">
        <ele>1458</ele>
        <time>2010-01-01T01:03:50Z</time>
      </trkpt>
      <trkpt lat="45.09583" lon="5.60137">
        <ele>1458</ele>
        <time>2010-01-01T01:03:56Z</time>
      </trkpt>
      <trkpt lat="45.09598" lon="5.60134">
        <ele>1458</ele>
        <time>2010-01-01T01:04:02Z</time>
      </trkpt>
      <trkpt lat="45.09607" lon="5.60132">
        <ele>1458</ele>
        <time>2010-01-01T01:04:06Z</time>
      </trkpt>
      <trkpt lat="45.09624" lon="5.60129">
        <ele>1458</ele>
        <time>2010-01-01T01:04:13Z</time>
      </trkpt>
      <trkpt lat="45.09637" lon="5.60124">
        <ele>1458</ele>
        <time>2010-01-01T01:04:18Z</time>
      </trkpt>
      <trkpt lat="45.09654" lon="5.60117">
        <ele>1459</ele>
        <time>2010-01-01T01:04:25Z</time>
      </trkpt>
      <trkpt lat="45.09668" lon="5.60111">
        <ele>1459</ele>
        <time>2010-01-01T01:04:31Z</time>
      </trkpt>
      <trkpt lat="45.09679" lon="5.60107">
        <ele>1460</ele>
        <time>2010-01-01T01:04:36Z</time>
      </trkpt>
      <trkpt lat="45.09693" lon="5.60096">
        <ele>1461</ele>
        <time>2010-01-01T01:04:42Z</time>
      </trkpt>
      <trkpt lat="45.09702" lon="5.60088">
        <ele>1462</ele>
        <time>2010-01-01T01:04:46Z</time>
      </trkpt>
      <trkpt lat="45.0982" lon="5.60043">
        <ele>1461</ele>
        <time>2010-01-01T01:05:35Z</time>
      </trkpt>
      <trkpt lat="45.09765" lon="5.60066">
        <ele>1461</ele>
        <time>2010-01-01T01:05:58Z</time>
      </trkpt>
      <trkpt lat="45.09822" lon="5.60039">
        <ele>1461</ele>
        <time>2010-01-01T01:06:22Z</time>
      </trkpt>
      <trkpt lat="45.09827" lon="5.60037">
        <ele>1461</ele>
        <time>2010-01-01T01:06:24Z</time>
      </trkpt>
      <trkpt lat="45.09838" lon="5.60032">
        <ele>1462</ele>
        <time>2010-01-01T01:06:29Z</time>
      </trkpt>
      <trkpt lat="45.09848" lon="5.60027">
        <ele>1462</ele>
        <time>2010-01-01T01:06:33Z</time>
      </trkpt>
      <trkpt lat="45.09854" lon="5.60022">
        <ele>1463</ele>
        <time>2010-01-01T01:06:36Z</time>
      </trkpt>
      <trkpt lat="45.0986" lon="5.60017">
        <ele>1463</ele>
        <time>2010-01-01T01:06:39Z</time>
      </trkpt>
      <trkpt lat="45.09865" lon="5.60012">
        <ele>1464</ele>
        <time>2010-01-01T01:06:41Z</time>
      </trkpt>
      <trkpt lat="45.09878" lon="5.60003">
        <ele>1465</ele>
        <time>2010-01-01T01:06:47Z</time>
      </trkpt>
      <trkpt lat="45.09894" lon="5.59996">
        <ele>1466</ele>
        <time>2010-01-01T01:06:54Z</time>
      </trkpt>
      <trkpt lat="45.09909" lon="5.59992">
        <ele>1466</ele>
        <time>2010-01-01T01:07:00Z</time>
      </trkpt>
      <trkpt lat="45.09921" lon="5.59993">
        <ele>1466</ele>
        <time>2010-01-01T01:07:04Z</time>
      </trkpt>
      <trkpt lat="45.09932" lon="5.60005">
        <ele>1465</ele>
        <time>2010-01-01T01:07:10Z</time>
      </trkpt>
      <trkpt lat="45.09946" lon="5.6001">
        <ele>1464</ele>
        <time>2010-01-01T01:07:15Z</time>
      </trkpt>
      <trkpt lat="45.09952" lon="5.60008">
        <ele>1465</ele>
        <time>2010-01-01T01:07:18Z</time>
      </trkpt>
      <trkpt lat="45.09954" lon="5.60005">
        <ele>1465</ele>
        <time>2010-01-01T01:07:19Z</time>
      </trkpt>
      <trkpt lat="45.09967" lon="5.5999">
        <ele>1466</ele>
        <time>2010-01-01T01:07:26Z</time>
      </trkpt>
      <trkpt lat="45.09978" lon="5.59979">
        <ele>1465</ele>
        <time>2010-01-01T01:07:31Z</time>
      </trkpt>
      <trkpt lat="45.09987" lon="5.59974">
        <ele>1465</ele>
        <time>2010-01-01T01:07:35Z</time>
      </trkpt>
      <trkpt lat="45.09999" lon="5.59969">
        <ele>1465</ele>
        <time>2010-01-01T01:07:40Z</time>
      </trkpt>
      <trkpt lat="45.10012" lon="5.59966">
        <ele>1465</ele>
        <time>2010-01-01T01:07:45Z</time>
      </trkpt>
      <trkpt lat="45.10023" lon="5.59962">
        <ele>1465</ele>
        <time>2010-01-01T01:07:50Z</time>
      </trkpt>
      <trkpt lat="45.10036" lon="5.59951">
        <ele>1465</ele>
        <time>2010-01-01T01:07:56Z</time>
      </trkpt>
      <trkpt lat="45.10053" lon="5.5994">
        <ele>1465</ele>
        <time>2010-01-01T01:08:04Z</time>
      </trkpt>
      <trkpt lat="45.10069" lon="5.59938">
        <ele>1465</ele>
        <time>2010-01-01T01:08:10Z</time>
      </trkpt>
      <trkpt lat="45.10083" lon="5.59934">
        <ele>1466</ele>
        <time>2010-01-01T01:08:16Z</time>
      </trkpt>
      <trkpt lat="45.10098" lon="5.5993">
        <ele>1466</ele>
        <time>2010-01-01T01:08:22Z</time>
      </trkpt>
      <trkpt lat="45.10114" lon="5.59928">
        <ele>1467</ele>
        <time>2010-01-01T01:08:28Z</time>
      </trkpt>
      <trkpt lat="45.10129" lon="5.59928">
        <ele>1467</ele>
        <time>2010-01-01T01:08:34Z</time>
      </trkpt>
      <trkpt lat="45.10142" lon="5.59928">
        <ele>1467</ele>
        <time>2010-01-01T01:08:39Z</time>
      </trkpt>
      <trkpt lat="45.10152" lon="5.59929">
        <ele>1468</ele>
        <time>2010-01-01T01:08:43Z</time>
      </trkpt>
      <trkpt lat="45.10169" lon="5.59929">
        <ele>1468</ele>
        <time>2010-01-01T01:08:50Z</time>
      </trkpt>
      <trkpt lat="45.10184" lon="5.59926">
        <ele>1468</ele>
        <time>2010-01-01T01:08:56Z</time>
      </trkpt>
      <trkpt lat="45.102" lon="5.59922">
        <ele>1468</ele>
        <time>2010-01-01T01:09:03Z</time>
      </trkpt>
      <trkpt lat="45.10217" lon="5.59918">
        <ele>1469</ele>
        <time>2010-01-01T01:09:10Z</time>
      </trkpt>
      <trkpt lat="45.10233" lon="5.59913">
        <ele>1469</ele>
        <time>2010-01-01T01:09:16Z</time>
      </trkpt>
      <trkpt lat="45.10254" lon="5.59909">
        <ele>1468</ele>
        <time>2010-01-01T01:09:25Z</time>
      </trkpt>
      <trkpt lat="45.10268" lon="5.5991">
        <ele>1469</ele>
        <time>2010-01-01T01:09:30Z</time>
      </trkpt>
      <trkpt lat="45.10282" lon="5.59907">
        <ele>1468</ele>
        <time>2010-01-01T01:09:36Z</time>
      </trkpt>
      <trkpt lat="45.10294" lon="5.59905">
        <ele>1468</ele>
        <time>2010-01-01T01:09:41Z</time>
      </trkpt>
      <trkpt lat="45.10312" lon="5.599">
        <ele>1468</ele>
        <time>2010-01-01T01:09:48Z</time>
      </trkpt>
      <trkpt lat="45.10329" lon="5.59902">
        <ele>1468</ele>
        <time>2010-01-01T01:09:55Z</time>
      </trkpt>
      <trkpt lat="45.1034" lon="5.59898">
        <ele>1468</ele>
        <time>2010-01-01T01:10:00Z</time>
      </trkpt>
      <trkpt lat="45.10348" lon="5.59898">
        <ele>1468</ele>
        <time>2010-01-01T01:10:03Z</time>
      </trkpt>
      <trkpt lat="45.1036" lon="5.59896">
        <ele>1468</ele>
        <time>2010-01-01T01:10:08Z</time>
      </trkpt>
      <trkpt lat="45.10372" lon="5.59896">
        <ele>1468</ele>
        <time>2010-01-01T01:10:12Z</time>
      </trkpt>
      <trkpt lat="45.10387" lon="5.59895">
        <ele>1469</ele>
        <time>2010-01-01T01:10:18Z</time>
      </trkpt>
      <trkpt lat="45.10404" lon="5.5989">
        <ele>1469</ele>
        <time>2010-01-01T01:10:25Z</time>
      </trkpt>
      <trkpt lat="45.10416" lon="5.59883">
        <ele>1469</ele>
        <time>2010-01-01T01:10:30Z</time>
      </trkpt>
      <trkpt lat="45.10429" lon="5.59876">
        <ele>1469</ele>
        <time>2010-01-01T01:10:36Z</time>
      </trkpt>
      <trkpt lat="45.10441" lon="5.59869">
        <ele>1468</ele>
        <time>2010-01-01T01:10:41Z</time>
      </trkpt>
      <trkpt lat="45.10457" lon="5.59865">
        <ele>1468</ele>
        <time>2010-01-01T01:10:48Z</time>
      </trkpt>
      <trkpt lat="45.10474" lon="5.59863">
        <ele>1468</ele>
        <time>2010-01-01T01:10:55Z</time>
      </trkpt>
      <trkpt lat="45.10486" lon="5.59859">
        <ele>1468</ele>
        <time>2010-01-01T01:11:00Z</time>
      </trkpt>
      <trkpt lat="45.10503" lon="5.59859">
        <ele>1467</ele>
        <time>2010-01-01T01:11:06Z</time>
      </trkpt>
      <trkpt lat="45.1052" lon="5.59865">
        <ele>1467</ele>
        <time>2010-01-01T01:11:13Z</time>
      </trkpt>
      <trkpt lat="45.10535" lon="5.59874">
        <ele>1467</ele>
        <time>2010-01-01T01:11:20Z</time>
      </trkpt>
      <trkpt lat="45.1055" lon="5.59874">
        <ele>1466</ele>
        <time>2010-01-01T01:11:26Z</time>
      </trkpt>
      <trkpt lat="45.10561" lon="5.5987">
        <ele>1465</ele>
        <time>2010-01-01T01:11:30Z</time>
      </trkpt>
      <trkpt lat="45.10573" lon="5.59869">
        <ele>1464</ele>
        <time>2010-01-01T01:11:35Z</time>
      </trkpt>
      <trkpt lat="45.10586" lon="5.59871">
        <ele>1464</ele>
        <time>2010-01-01T01:11:41Z</time>
      </trkpt>
      <trkpt lat="45.10596" lon="5.59877">
        <ele>1463</ele>
        <time>2010-01-01T01:11:45Z</time>
      </trkpt>
      <trkpt lat="45.10606" lon="5.59877">
        <ele>1462</ele>
        <time>2010-01-01T01:11:49Z</time>
      </trkpt>
      <trkpt lat="45.10607" lon="5.59878">
        <ele>1462</ele>
        <time>2010-01-01T01:11:49Z</time>
      </trkpt>
      <trkpt lat="45.10613" lon="5.59882">
        <ele>1462</ele>
        <time>2010-01-01T01:11:52Z</time>
      </trkpt>
      <trkpt lat="45.10627" lon="5.59886">
        <ele>1462</ele>
        <time>2010-01-01T01:11:58Z</time>
      </trkpt>
      <trkpt lat="45.10644" lon="5.59891">
        <ele>1461</ele>
        <time>2010-01-01T01:12:05Z</time>
      </trkpt>
      <trkpt lat="45.10659" lon="5.59894">
        <ele>1460</ele>
        <time>2010-01-01T01:12:11Z</time>
      </trkpt>
      <trkpt lat="45.10674" lon="5.59894">
        <ele>1459</ele>
        <time>2010-01-01T01:12:17Z</time>
      </trkpt>
      <trkpt lat="45.10691" lon="5.599">
        <ele>1457</ele>
        <time>2010-01-01T01:12:24Z</time>
      </trkpt>
      <trkpt lat="45.10707" lon="5.59906">
        <ele>1456</ele>
        <time>2010-01-01T01:12:30Z</time>
      </trkpt>
      <trkpt lat="45.10719" lon="5.59911">
        <ele>1455</ele>
        <time>2010-01-01T01:12:35Z</time>
      </trkpt>
      <trkpt lat="45.10721" lon="5.5991">
        <ele>1455</ele>
        <time>2010-01-01T01:12:36Z</time>
      </trkpt>
      <trkpt lat="45.10729" lon="5.5991">
        <ele>1453</ele>
        <time>2010-01-01T01:12:39Z</time>
      </trkpt>
      <trkpt lat="45.10733" lon="5.59914">
        <ele>1453</ele>
        <time>2010-01-01T01:12:41Z</time>
      </trkpt>
      <trkpt lat="45.10736" lon="5.59916">
        <ele>1453</ele>
        <time>2010-01-01T01:12:42Z</time>
      </trkpt>
      <trkpt lat="45.10746" lon="5.59926">
        <ele>1450</ele>
        <time>2010-01-01T01:12:47Z</time>
      </trkpt>
      <trkpt lat="45.1075" lon="5.59929">
        <ele>1449</ele>
        <time>2010-01-01T01:12:49Z</time>
      </trkpt>
      <trkpt lat="45.10752" lon="5.59931">
        <ele>1449</ele>
        <time>2010-01-01T01:12:50Z</time>
      </trkpt>
      <trkpt lat="45.10763" lon="5.5994">
        <ele>1445</ele>
        <time>2010-01-01T01:12:55Z</time>
      </trkpt>
      <trkpt lat="45.1077" lon="5.59945">
        <ele>1442</ele>
        <time>2010-01-01T01:12:59Z</time>
      </trkpt>
      <trkpt lat="45.10772" lon="5.59945">
        <ele>1442</ele>
        <time>2010-01-01T01:12:59Z</time>
      </trkpt>
      <trkpt lat="45.10784" lon="5.59944">
        <ele>1438</ele>
        <time>2010-01-01T01:13:04Z</time>
      </trkpt>
      <trkpt lat="45.10787" lon="5.59945">
        <ele>1438</ele>
        <time>2010-01-01T01:13:05Z</time>
      </trkpt>
      <trkpt lat="45.10785" lon="5.59953">
        <ele>1437</ele>
        <time>2010-01-01T01:13:07Z</time>
      </trkpt>
      <trkpt lat="45.10785" lon="5.59965">
        <ele>1436</ele>
        <time>2010-01-01T01:13:11Z</time>
      </trkpt>
      <trkpt lat="45.10786" lon="5.59965">
        <ele>1436</ele>
        <time>2010-01-01T01:13:11Z</time>
      </trkpt>
      <trkpt lat="45.1079" lon="5.59968">
        <ele>1434</ele>
        <time>2010-01-01T01:13:13Z</time>
      </trkpt>
      <trkpt lat="45.10799" lon="5.5997">
        <ele>1432</ele>
        <time>2010-01-01T01:13:17Z</time>
      </trkpt>
      <trkpt lat="45.10806" lon="5.59972">
        <ele>1430</ele>
        <time>2010-01-01T01:13:19Z</time>
      </trkpt>
      <trkpt lat="45.10811" lon="5.59975">
        <ele>1429</ele>
        <time>2010-01-01T01:13:22Z</time>
      </trkpt>
      <trkpt lat="45.10812" lon="5.59978">
        <ele>1428</ele>
        <time>2010-01-01T01:13:23Z</time>
      </trkpt>
      <trkpt lat="45.10861" lon="5.59937">
        <ele>1417</ele>
        <time>2010-01-01T01:13:45Z</time>
      </trkpt>
      <trkpt lat="45.10889" lon="5.59915">
        <ele>1410</ele>
        <time>2010-01-01T01:13:58Z</time>
      </trkpt>
      <trkpt lat="45.10955" lon="5.59893">
        <ele>1388</ele>
        <time>2010-01-01T01:14:25Z</time>
      </trkpt>
      <trkpt lat="45.10998" lon="5.59914">
        <ele>1375</ele>
        <time>2010-01-01T01:14:44Z</time>
      </trkpt>
      <trkpt lat="45.11024" lon="5.59966">
        <ele>1359</ele>
        <time>2010-01-01T01:15:01Z</time>
      </trkpt>
      <trkpt lat="45.1103" lon="5.59965">
        <ele>1356</ele>
        <time>2010-01-01T01:15:04Z</time>
      </trkpt>
      <trkpt lat="45.11036" lon="5.59963">
        <ele>1354</ele>
        <time>2010-01-01T01:15:07Z</time>
      </trkpt>
      <trkpt lat="45.11039" lon="5.59961">
        <ele>1353</ele>
        <time>2010-01-01T01:15:08Z</time>
      </trkpt>
      <trkpt lat="45.11049" lon="5.59952">
        <ele>1351</ele>
        <time>2010-01-01T01:15:12Z</time>
      </trkpt>
      <trkpt lat="45.1106" lon="5.59945">
        <ele>1348</ele>
        <time>2010-01-01T01:15:17Z</time>
      </trkpt>
      <trkpt lat="45.11068" lon="5.59943">
        <ele>1346</ele>
        <time>2010-01-01T01:15:21Z</time>
      </trkpt>
      <trkpt lat="45.11082" lon="5.59937">
        <ele>1342</ele>
        <time>2010-01-01T01:15:27Z</time>
      </trkpt>
      <trkpt lat="45.11093" lon="5.59931">
        <ele>1339</ele>
        <time>2010-01-01T01:15:31Z</time>
      </trkpt>
      <trkpt lat="45.111" lon="5.59927">
        <ele>1337</ele>
        <time>2010-01-01T01:15:34Z</time>
      </trkpt>
      <trkpt lat="45.11102" lon="5.59926">
        <ele>1337</ele>
        <time>2010-01-01T01:15:35Z</time>
      </trkpt>
      <trkpt lat="45.11116" lon="5.59923">
        <ele>1332</ele>
        <time>2010-01-01T01:15:41Z</time>
      </trkpt>
      <trkpt lat="45.11128" lon="5.59918">
        <ele>1329</ele>
        <time>2010-01-01T01:15:46Z</time>
      </trkpt>
      <trkpt lat="45.1113" lon="5.59916">
        <ele>1328</ele>
        <time>2010-01-01T01:15:47Z</time>
      </trkpt>
      <trkpt lat="45.11138" lon="5.59911">
        <ele>1325</ele>
        <time>2010-01-01T01:15:50Z</time>
      </trkpt>
      <trkpt lat="45.11145" lon="5.59912">
        <ele>1322</ele>
        <time>2010-01-01T01:15:53Z</time>
      </trkpt>
      <trkpt lat="45.11148" lon="5.59915">
        <ele>1321</ele>
        <time>2010-01-01T01:15:55Z</time>
      </trkpt>
      <trkpt lat="45.11149" lon="5.59917">
        <ele>1321</ele>
        <time>2010-01-01T01:15:55Z</time>
      </trkpt>
      <trkpt lat="45.11146" lon="5.5992">
        <ele>1321</ele>
        <time>2010-01-01T01:15:57Z</time>
      </trkpt>
      <trkpt lat="45.11149" lon="5.59929">
        <ele>1318</ele>
        <time>2010-01-01T01:16:00Z</time>
      </trkpt>
      <trkpt lat="45.11151" lon="5.5993">
        <ele>1317</ele>
        <time>2010-01-01T01:16:01Z</time>
      </trkpt>
      <trkpt lat="45.11155" lon="5.5993">
        <ele>1316</ele>
        <time>2010-01-01T01:16:02Z</time>
      </trkpt>
      <trkpt lat="45.11161" lon="5.59934">
        <ele>1313</ele>
        <time>2010-01-01T01:16:05Z</time>
      </trkpt>
      <trkpt lat="45.11173" lon="5.59936">
        <ele>1308</ele>
        <time>2010-01-01T01:16:09Z</time>
      </trkpt>
      <trkpt lat="45.11186" lon="5.59927">
        <ele>1305</ele>
        <time>2010-01-01T01:16:15Z</time>
      </trkpt>
      <trkpt lat="45.11194" lon="5.59923">
        <ele>1303</ele>
        <time>2010-01-01T01:16:19Z</time>
      </trkpt>
      <trkpt lat="45.11205" lon="5.59924">
        <ele>1299</ele>
        <time>2010-01-01T01:16:23Z</time>
      </trkpt>
      <trkpt lat="45.11212" lon="5.59925">
        <ele>1297</ele>
        <time>2010-01-01T01:16:26Z</time>
      </trkpt>
      <trkpt lat="45.1122" lon="5.59929">
        <ele>1293</ele>
        <time>2010-01-01T01:16:29Z</time>
      </trkpt>
      <trkpt lat="45.11227" lon="5.59916">
        <ele>1293</ele>
        <time>2010-01-01T01:16:34Z</time>
      </trkpt>
      <trkpt lat="45.11229" lon="5.59912">
        <ele>1292</ele>
        <time>2010-01-01T01:16:35Z</time>
      </trkpt>
      <trkpt lat="45.11233" lon="5.59905">
        <ele>1291</ele>
        <time>2010-01-01T01:16:38Z</time>
      </trkpt>
      <trkpt lat="45.11233" lon="5.599">
        <ele>1291</ele>
        <time>2010-01-01T01:16:39Z</time>
      </trkpt>
      <trkpt lat="45.11235" lon="5.59899">
        <ele>1290</ele>
        <time>2010-01-01T01:16:40Z</time>
      </trkpt>
      <trkpt lat="45.11236" lon="5.599">
        <ele>1289</ele>
        <time>2010-01-01T01:16:41Z</time>
      </trkpt>
      <trkpt lat="45.11236" lon="5.59899">
        <ele>1290</ele>
        <time>2010-01-01T01:16:41Z</time>
      </trkpt>
      <trkpt lat="45.11237" lon="5.59891">
        <ele>1289</ele>
        <time>2010-01-01T01:16:43Z</time>
      </trkpt>
      <trkpt lat="45.11242" lon="5.59884">
        <ele>1287</ele>
        <time>2010-01-01T01:16:46Z</time>
      </trkpt>
      <trkpt lat="45.11244" lon="5.59885">
        <ele>1287</ele>
        <time>2010-01-01T01:16:47Z</time>
      </trkpt>
      <trkpt lat="45.11253" lon="5.59883">
        <ele>1283</ele>
        <time>2010-01-01T01:16:51Z</time>
      </trkpt>
      <trkpt lat="45.11262" lon="5.59894">
        <ele>1282</ele>
        <time>2010-01-01T01:16:55Z</time>
      </trkpt>
      <trkpt lat="45.11267" lon="5.59904">
        <ele>1281</ele>
        <time>2010-01-01T01:16:59Z</time>
      </trkpt>
      <trkpt lat="45.11273" lon="5.59907">
        <ele>1279</ele>
        <time>2010-01-01T01:17:02Z</time>
      </trkpt>
      <trkpt lat="45.11275" lon="5.59907">
        <ele>1279</ele>
        <time>2010-01-01T01:17:02Z</time>
      </trkpt>
      <trkpt lat="45.11286" lon="5.59914">
        <ele>1276</ele>
        <time>2010-01-01T01:17:07Z</time>
      </trkpt>
      <trkpt lat="45.11305" lon="5.59923">
        <ele>1271</ele>
        <time>2010-01-01T01:17:15Z</time>
      </trkpt>
      <trkpt lat="45.11317" lon="5.59919">
        <ele>1269</ele>
        <time>2010-01-01T01:17:20Z</time>
      </trkpt>
      <trkpt lat="45.11322" lon="5.59916">
        <ele>1268</ele>
        <time>2010-01-01T01:17:22Z</time>
      </trkpt>
      <trkpt lat="45.11324" lon="5.59919">
        <ele>1267</ele>
        <time>2010-01-01T01:17:23Z</time>
      </trkpt>
      <trkpt lat="45.11324" lon="5.59921">
        <ele>1266</ele>
        <time>2010-01-01T01:17:24Z</time>
      </trkpt>
      <trkpt lat="45.11324" lon="5.59922">
        <ele>1266</ele>
        <time>2010-01-01T01:17:24Z</time>
      </trkpt>
      <trkpt lat="45.11327" lon="5.5992">
        <ele>1266</ele>
        <time>2010-01-01T01:17:25Z</time>
      </trkpt>
      <trkpt lat="45.11328" lon="5.59919">
        <ele>1266</ele>
        <time>2010-01-01T01:17:26Z</time>
      </trkpt>
      <trkpt lat="45.11336" lon="5.59918">
        <ele>1265</ele>
        <time>2010-01-01T01:17:29Z</time>
      </trkpt>
      <trkpt lat="45.11339" lon="5.59917">
        <ele>1264</ele>
        <time>2010-01-01T01:17:31Z</time>
      </trkpt>
      <trkpt lat="45.11346" lon="5.59915">
        <ele>1264</ele>
        <time>2010-01-01T01:17:33Z</time>
      </trkpt>
      <trkpt lat="45.11359" lon="5.59912">
        <ele>1262</ele>
        <time>2010-01-01T01:17:39Z</time>
      </trkpt>
      <trkpt lat="45.11373" lon="5.5991">
        <ele>1261</ele>
        <time>2010-01-01T01:17:44Z</time>
      </trkpt>
      <trkpt lat="45.11382" lon="5.5991">
        <ele>1260</ele>
        <time>2010-01-01T01:17:48Z</time>
      </trkpt>
      <trkpt lat="45.11394" lon="5.59911">
        <ele>1259</ele>
        <time>2010-01-01T01:17:53Z</time>
      </trkpt>
      <trkpt lat="45.11404" lon="5.59908">
        <ele>1258</ele>
        <time>2010-01-01T01:17:57Z</time>
      </trkpt>
      <trkpt lat="45.11418" lon="5.59907">
        <ele>1257</ele>
        <time>2010-01-01T01:18:02Z</time>
      </trkpt>
      <trkpt lat="45.1143" lon="5.59901">
        <ele>1256</ele>
        <time>2010-01-01T01:18:07Z</time>
      </trkpt>
      <trkpt lat="45.11442" lon="5.59895">
        <ele>1255</ele>
        <time>2010-01-01T01:18:13Z</time>
      </trkpt>
      <trkpt lat="45.11454" lon="5.59889">
        <ele>1255</ele>
        <time>2010-01-01T01:18:18Z</time>
      </trkpt>
      <trkpt lat="45.11469" lon="5.5989">
        <ele>1254</ele>
        <time>2010-01-01T01:18:24Z</time>
      </trkpt>
      <trkpt lat="45.11485" lon="5.59882">
        <ele>1254</ele>
        <time>2010-01-01T01:18:30Z</time>
      </trkpt>
      <trkpt lat="45.11496" lon="5.59876">
        <ele>1254</ele>
        <time>2010-01-01T01:18:35Z</time>
      </trkpt>
      <trkpt lat="45.11508" lon="5.59869">
        <ele>1254</ele>
        <time>2010-01-01T01:18:40Z</time>
      </trkpt>
      <trkpt lat="45.11523" lon="5.59865">
        <ele>1256</ele>
        <time>2010-01-01T01:18:46Z</time>
      </trkpt>
      <trkpt lat="45.11536" lon="5.59866">
        <ele>1256</ele>
        <time>2010-01-01T01:18:52Z</time>
      </trkpt>
      <trkpt lat="45.11553" lon="5.59868">
        <ele>1257</ele>
        <time>2010-01-01T01:18:59Z</time>
      </trkpt>
      <trkpt lat="45.11566" lon="5.59865">
        <ele>1258</ele>
        <time>2010-01-01T01:19:04Z</time>
      </trkpt>
      <trkpt lat="45.11578" lon="5.5986">
        <ele>1260</ele>
        <time>2010-01-01T01:19:09Z</time>
      </trkpt>
      <trkpt lat="45.1159" lon="5.59855">
        <ele>1262</ele>
        <time>2010-01-01T01:19:14Z</time>
      </trkpt>
      <trkpt lat="45.11601" lon="5.59849">
        <ele>1264</ele>
        <time>2010-01-01T01:19:19Z</time>
      </trkpt>
      <trkpt lat="45.11612" lon="5.59844">
        <ele>1266</ele>
        <time>2010-01-01T01:19:23Z</time>
      </trkpt>
      <trkpt lat="45.11628" lon="5.59842">
        <ele>1269</ele>
        <time>2010-01-01T01:19:29Z</time>
      </trkpt>
      <trkpt lat="45.11637" lon="5.59837">
        <ele>1271</ele>
        <time>2010-01-01T01:19:33Z</time>
      </trkpt>
      <trkpt lat="45.11649" lon="5.59833">
        <ele>1273</ele>
        <time>2010-01-01T01:19:38Z</time>
      </trkpt>
      <trkpt lat="45.1166" lon="5.59831">
        <ele>1275</ele>
        <time>2010-01-01T01:19:43Z</time>
      </trkpt>
      <trkpt lat="45.11674" lon="5.59829">
        <ele>1277</ele>
        <time>2010-01-01T01:19:48Z</time>
      </trkpt>
      <trkpt lat="45.11687" lon="5.59826">
        <ele>1279</ele>
        <time>2010-01-01T01:19:54Z</time>
      </trkpt>
      <trkpt lat="45.11691" lon="5.59824">
        <ele>1279</ele>
        <time>2010-01-01T01:19:55Z</time>
      </trkpt>
      <trkpt lat="45.11689" lon="5.59825">
        <ele>1279</ele>
        <time>2010-01-01T01:19:56Z</time>
      </trkpt>
      <trkpt lat="45.11695" lon="5.59819">
        <ele>1280</ele>
        <time>2010-01-01T01:19:59Z</time>
      </trkpt>
      <trkpt lat="45.11697" lon="5.59816">
        <ele>1280</ele>
        <time>2010-01-01T01:20:00Z</time>
      </trkpt>
      <trkpt lat="45.117" lon="5.59815">
        <ele>1280</ele>
        <time>2010-01-01T01:20:01Z</time>
      </trkpt>
      <trkpt lat="45.117" lon="5.59813">
        <ele>1280</ele>
        <time>2010-01-01T01:20:01Z</time>
      </trkpt>
      <trkpt lat="45.11758" lon="5.59842">
        <ele>1283</ele>
        <time>2010-01-01T01:20:26Z</time>
      </trkpt>
      <trkpt lat="45.11826" lon="5.59882">
        <ele>1275</ele>
        <time>2010-01-01T01:20:56Z</time>
      </trkpt>
      <trkpt lat="45.11839" lon="5.59853">
        <ele>1282</ele>
        <time>2010-01-01T01:21:05Z</time>
      </trkpt>
      <trkpt lat="45.11952" lon="5.59903">
        <ele>1267</ele>
        <time>2010-01-01T01:21:52Z</time>
      </trkpt>
      <trkpt lat="45.1198" lon="5.59879">
        <ele>1266</ele>
        <time>2010-01-01T01:22:06Z</time>
      </trkpt>
      <trkpt lat="45.12054" lon="5.5986">
        <ele>1252</ele>
        <time>2010-01-01T01:22:36Z</time>
      </trkpt>
      <trkpt lat="45.12185" lon="5.59939">
        <ele>1220</ele>
        <time>2010-01-01T01:23:33Z</time>
      </trkpt>
      <trkpt lat="45.1227" lon="5.59995">
        <ele>1192</ele>
        <time>2010-01-01T01:24:10Z</time>
      </trkpt>
      <trkpt lat="45.12327" lon="5.6">
        <ele>1177</ele>
        <time>2010-01-01T01:24:33Z</time>
      </trkpt>
      <trkpt lat="45.12413" lon="5.59983">
        <ele>1145</ele>
        <time>2010-01-01T01:25:08Z</time>
      </trkpt>
      <trkpt lat="45.12428" lon="5.59818">
        <ele>1104</ele>
        <time>2010-01-01T01:25:55Z</time>
      </trkpt>
      <trkpt lat="45.12408" lon="5.59759">
        <ele>1098</ele>
        <time>2010-01-01T01:26:13Z</time>
      </trkpt>
      <trkpt lat="45.12406" lon="5.59696">
        <ele>1082</ele>
        <time>2010-01-01T01:26:31Z</time>
      </trkpt>
      <trkpt lat="45.12478" lon="5.5968">
        <ele>1060</ele>
        <time>2010-01-01T01:27:00Z</time>
      </trkpt>
      <trkpt lat="45.12394" lon="5.59622">
        <ele>1069</ele>
        <time>2010-01-01T01:27:38Z</time>
      </trkpt>
      <trkpt lat="45.1241" lon="5.59616">
        <ele>1063</ele>
        <time>2010-01-01T01:27:44Z</time>
      </trkpt>
      <trkpt lat="45.12428" lon="5.59604">
        <ele>1058</ele>
        <time>2010-01-01T01:27:52Z</time>
      </trkpt>
      <trkpt lat="45.12445" lon="5.59593">
        <ele>1053</ele>
        <time>2010-01-01T01:28:00Z</time>
      </trkpt>
      <trkpt lat="45.12463" lon="5.59586">
        <ele>1049</ele>
        <time>2010-01-01T01:28:07Z</time>
      </trkpt>
      <trkpt lat="45.12479" lon="5.59592">
        <ele>1047</ele>
        <time>2010-01-01T01:28:14Z</time>
      </trkpt>
      <trkpt lat="45.12492" lon="5.59603">
        <ele>1047</ele>
        <time>2010-01-01T01:28:20Z</time>
      </trkpt>
      <trkpt lat="45.12503" lon="5.59616">
        <ele>1046</ele>
        <time>2010-01-01T01:28:26Z</time>
      </trkpt>
      <trkpt lat="45.12514" lon="5.59632">
        <ele>1046</ele>
        <time>2010-01-01T01:28:32Z</time>
      </trkpt>
      <trkpt lat="45.12524" lon="5.59644">
        <ele>1046</ele>
        <time>2010-01-01T01:28:37Z</time>
      </trkpt>
      <trkpt lat="45.12534" lon="5.59652">
        <ele>1045</ele>
        <time>2010-01-01T01:28:42Z</time>
      </trkpt>
      <trkpt lat="45.12549" lon="5.59659">
        <ele>1042</ele>
        <time>2010-01-01T01:28:48Z</time>
      </trkpt>
      <trkpt lat="45.12601" lon="5.59631">
        <ele>1034</ele>
        <time>2010-01-01T01:29:10Z</time>
      </trkpt>
      <trkpt lat="45.12605" lon="5.59589">
        <ele>1032</ele>
        <time>2010-01-01T01:29:22Z</time>
      </trkpt>
      <trkpt lat="45.12636" lon="5.59594">
        <ele>1031</ele>
        <time>2010-01-01T01:29:35Z</time>
      </trkpt>
      <trkpt lat="45.12643" lon="5.59543">
        <ele>1030</ele>
        <time>2010-01-01T01:29:50Z</time>
      </trkpt>
      <trkpt lat="45.12585" lon="5.59506">
        <ele>1031</ele>
        <time>2010-01-01T01:30:15Z</time>
      </trkpt>
      <trkpt lat="45.12499" lon="5.59396">
        <ele>1027</ele>
        <time>2010-01-01T01:31:01Z</time>
      </trkpt>
      <trkpt lat="45.12458" lon="5.59324">
        <ele>1022</ele>
        <time>2010-01-01T01:31:28Z</time>
      </trkpt>
      <trkpt lat="45.12455" lon="5.59256">
        <ele>1020</ele>
        <time>2010-01-01T01:31:47Z</time>
      </trkpt>
      <trkpt lat="45.12536" lon="5.59257">
        <ele>1022</ele>
        <time>2010-01-01T01:32:19Z</time>
      </trkpt>
      <trkpt lat="45.12546" lon="5.59191">
        <ele>1020</ele>
        <time>2010-01-01T01:32:38Z</time>
      </trkpt>
      <trkpt lat="45.12607" lon="5.5919">
        <ele>1022</ele>
        <time>2010-01-01T01:33:03Z</time>
      </trkpt>
      <trkpt lat="45.12596" lon="5.58996">
        <ele>1019</ele>
        <time>2010-01-01T01:33:58Z</time>
      </trkpt>
      <trkpt lat="45.1264" lon="5.5898">
        <ele>1019</ele>
        <time>2010-01-01T01:34:16Z</time>
      </trkpt>
      <trkpt lat="45.12718" lon="5.58914">
        <ele>1019</ele>
        <time>2010-01-01T01:34:52Z</time>
      </trkpt>
      <trkpt lat="45.12808" lon="5.58915">
        <ele>1016</ele>
        <time>2010-01-01T01:35:28Z</time>
      </trkpt>
      <trkpt lat="45.12811" lon="5.59011">
        <ele>1018</ele>
        <time>2010-01-01T01:35:55Z</time>
      </trkpt>
      <trkpt lat="45.12874" lon="5.59115">
        <ele>1015</ele>
        <time>2010-01-01T01:36:34Z</time>
      </trkpt>
      <trkpt lat="45.12892" lon="5.59243">
        <ele>1012</ele>
        <time>2010-01-01T01:37:11Z</time>
      </trkpt>
      <trkpt lat="45.12928" lon="5.59292">
        <ele>1011</ele>
        <time>2010-01-01T01:37:31Z</time>
      </trkpt>
      <trkpt lat="45.1297" lon="5.59219">
        <ele>1012</ele>
        <time>2010-01-01T01:37:58Z</time>
      </trkpt>
      <trkpt lat="45.12981" lon="5.59265">
        <ele>1014</ele>
        <time>2010-01-01T01:38:12Z</time>
      </trkpt>
      <trkpt lat="45.12871" lon="5.59524">
        <ele>1023</ele>
        <time>2010-01-01T01:39:37Z</time>
      </trkpt>
      <trkpt lat="45.12807" lon="5.59779">
        <ele>1035</ele>
        <time>2010-01-01T01:40:53Z</time>
      </trkpt>
      <trkpt lat="45.12769" lon="5.59819">
        <ele>1036</ele>
        <time>2010-01-01T01:41:12Z</time>
      </trkpt>
      <trkpt lat="45.12725" lon="5.59904">
        <ele>1040</ele>
        <time>2010-01-01T01:41:42Z</time>
      </trkpt>
      <trkpt lat="45.12704" lon="5.59958">
        <ele>1043</ele>
        <time>2010-01-01T01:41:59Z</time>
      </trkpt>
      <trkpt lat="45.12631" lon="5.59982">
        <ele>1053</ele>
        <time>2010-01-01T01:42:29Z</time>
      </trkpt>
      <trkpt lat="45.12626" lon="5.59998">
        <ele>1055</ele>
        <time>2010-01-01T01:42:34Z</time>
      </trkpt>
      <trkpt lat="45.1262" lon="5.60011">
        <ele>1058</ele>
        <time>2010-01-01T01:42:39Z</time>
      </trkpt>
      <trkpt lat="45.12616" lon="5.60018">
        <ele>1060</ele>
        <time>2010-01-01T01:42:41Z</time>
      </trkpt>
      <trkpt lat="45.12615" lon="5.6002">
        <ele>1060</ele>
        <time>2010-01-01T01:42:42Z</time>
      </trkpt>
      <trkpt lat="45.12608" lon="5.60032">
        <ele>1063</ele>
        <time>2010-01-01T01:42:46Z</time>
      </trkpt>
      <trkpt lat="45.12601" lon="5.60049">
        <ele>1066</ele>
        <time>2010-01-01T01:42:52Z</time>
      </trkpt>
      <trkpt lat="45.12598" lon="5.60055">
        <ele>1067</ele>
        <time>2010-01-01T01:42:54Z</time>
      </trkpt>
      <trkpt lat="45.12595" lon="5.60058">
        <ele>1068</ele>
        <time>2010-01-01T01:42:55Z</time>
      </trkpt>
      <trkpt lat="45.12594" lon="5.60069">
        <ele>1069</ele>
        <time>2010-01-01T01:42:59Z</time>
      </trkpt>
      <trkpt lat="45.12594" lon="5.60072">
        <ele>1069</ele>
        <time>2010-01-01T01:42:59Z</time>
      </trkpt>
      <trkpt lat="45.1259" lon="5.60083">
        <ele>1070</ele>
        <time>2010-01-01T01:43:03Z</time>
      </trkpt>
      <trkpt lat="45.12587" lon="5.60089">
        <ele>1071</ele>
        <time>2010-01-01T01:43:05Z</time>
      </trkpt>
      <trkpt lat="45.12587" lon="5.60089">
        <ele>1071</ele>
        <time>2010-01-01T01:43:05Z</time>
      </trkpt>
      <trkpt lat="45.1258" lon="5.60116">
        <ele>1076</ele>
        <time>2010-01-01T01:43:13Z</time>
      </trkpt>
      <trkpt lat="45.12579" lon="5.60119">
        <ele>1077</ele>
        <time>2010-01-01T01:43:14Z</time>
      </trkpt>
      <trkpt lat="45.12578" lon="5.60121">
        <ele>1077</ele>
        <time>2010-01-01T01:43:15Z</time>
      </trkpt>
      <trkpt lat="45.12576" lon="5.6013">
        <ele>1079</ele>
        <time>2010-01-01T01:43:17Z</time>
      </trkpt>
      <trkpt lat="45.12572" lon="5.60134">
        <ele>1080</ele>
        <time>2010-01-01T01:43:19Z</time>
      </trkpt>
      <trkpt lat="45.12568" lon="5.60143">
        <ele>1082</ele>
        <time>2010-01-01T01:43:22Z</time>
      </trkpt>
      <trkpt lat="45.1256" lon="5.60156">
        <ele>1085</ele>
        <time>2010-01-01T01:43:27Z</time>
      </trkpt>
      <trkpt lat="45.12558" lon="5.60161">
        <ele>1086</ele>
        <time>2010-01-01T01:43:29Z</time>
      </trkpt>
      <trkpt lat="45.12549" lon="5.6016">
        <ele>1088</ele>
        <time>2010-01-01T01:43:32Z</time>
      </trkpt>
      <trkpt lat="45.12547" lon="5.60155">
        <ele>1089</ele>
        <time>2010-01-01T01:43:34Z</time>
      </trkpt>
      <trkpt lat="45.12544" lon="5.60153">
        <ele>1090</ele>
        <time>2010-01-01T01:43:35Z</time>
      </trkpt>
      <trkpt lat="45.12543" lon="5.60153">
        <ele>1090</ele>
        <time>2010-01-01T01:43:35Z</time>
      </trkpt>
      <trkpt lat="45.12541" lon="5.60156">
        <ele>1090</ele>
        <time>2010-01-01T01:43:37Z</time>
      </trkpt>
      <trkpt lat="45.1254" lon="5.60157">
        <ele>1091</ele>
        <time>2010-01-01T01:43:37Z</time>
      </trkpt>
      <trkpt lat="45.1253" lon="5.60165">
        <ele>1093</ele>
        <time>2010-01-01T01:43:42Z</time>
      </trkpt>
      <trkpt lat="45.1253" lon="5.60166">
        <ele>1093</ele>
        <time>2010-01-01T01:43:42Z</time>
      </trkpt>
      <trkpt lat="45.12522" lon="5.60172">
        <ele>1095</ele>
        <time>2010-01-01T01:43:46Z</time>
      </trkpt>
      <trkpt lat="45.12522" lon="5.60174">
        <ele>1095</ele>
        <time>2010-01-01T01:43:46Z</time>
      </trkpt>
      <trkpt lat="45.12523" lon="5.60175">
        <ele>1095</ele>
        <time>2010-01-01T01:43:47Z</time>
      </trkpt>
      <trkpt lat="45.12525" lon="5.60181">
        <ele>1094</ele>
        <time>2010-01-01T01:43:49Z</time>
      </trkpt>
      <trkpt lat="45.12534" lon="5.60191">
        <ele>1093</ele>
        <time>2010-01-01T01:43:53Z</time>
      </trkpt>
      <trkpt lat="45.12535" lon="5.60195">
        <ele>1093</ele>
        <time>2010-01-01T01:43:54Z</time>
      </trkpt>
      <trkpt lat="45.12541" lon="5.60198">
        <ele>1093</ele>
        <time>2010-01-01T01:43:57Z</time>
      </trkpt>
      <trkpt lat="45.12548" lon="5.60199">
        <ele>1092</ele>
        <time>2010-01-01T01:44:00Z</time>
      </trkpt>
      <trkpt lat="45.12556" lon="5.60201">
        <ele>1092</ele>
        <time>2010-01-01T01:44:03Z</time>
      </trkpt>
      <trkpt lat="45.1256" lon="5.60197">
        <ele>1091</ele>
        <time>2010-01-01T01:44:05Z</time>
      </trkpt>
      <trkpt lat="45.12562" lon="5.60194">
        <ele>1090</ele>
        <time>2010-01-01T01:44:06Z</time>
      </trkpt>
      <trkpt lat="45.12567" lon="5.60186">
        <ele>1088</ele>
        <time>2010-01-01T01:44:09Z</time>
      </trkpt>
      <trkpt lat="45.12574" lon="5.60186">
        <ele>1087</ele>
        <time>2010-01-01T01:44:12Z</time>
      </trkpt>
      <trkpt lat="45.12575" lon="5.60186">
        <ele>1087</ele>
        <time>2010-01-01T01:44:12Z</time>
      </trkpt>
      <trkpt lat="45.12579" lon="5.60186">
        <ele>1086</ele>
        <time>2010-01-01T01:44:14Z</time>
      </trkpt>
      <trkpt lat="45.12581" lon="5.60187">
        <ele>1086</ele>
        <time>2010-01-01T01:44:15Z</time>
      </trkpt>
      <trkpt lat="45.12579" lon="5.60192">
        <ele>1088</ele>
        <time>2010-01-01T01:44:16Z</time>
      </trkpt>
      <trkpt lat="45.12579" lon="5.60193">
        <ele>1088</ele>
        <time>2010-01-01T01:44:17Z</time>
      </trkpt>
      <trkpt lat="45.12579" lon="5.60201">
        <ele>1090</ele>
        <time>2010-01-01T01:44:19Z</time>
      </trkpt>
      <trkpt lat="45.1258" lon="5.602">
        <ele>1089</ele>
        <time>2010-01-01T01:44:20Z</time>
      </trkpt>
      <trkpt lat="45.12583" lon="5.60196">
        <ele>1088</ele>
        <time>2010-01-01T01:44:21Z</time>
      </trkpt>
      <trkpt lat="45.12586" lon="5.6019">
        <ele>1087</ele>
        <time>2010-01-01T01:44:23Z</time>
      </trkpt>
      <trkpt lat="45.12587" lon="5.60188">
        <ele>1087</ele>
        <time>2010-01-01T01:44:24Z</time>
      </trkpt>
      <trkpt lat="45.1259" lon="5.60181">
        <ele>1085</ele>
        <time>2010-01-01T01:44:26Z</time>
      </trkpt>
      <trkpt lat="45.12591" lon="5.60177">
        <ele>1084</ele>
        <time>2010-01-01T01:44:27Z</time>
      </trkpt>
      <trkpt lat="45.12599" lon="5.60168">
        <ele>1083</ele>
        <time>2010-01-01T01:44:31Z</time>
      </trkpt>
      <trkpt lat="45.12605" lon="5.60162">
        <ele>1083</ele>
        <time>2010-01-01T01:44:34Z</time>
      </trkpt>
      <trkpt lat="45.12607" lon="5.60161">
        <ele>1083</ele>
        <time>2010-01-01T01:44:35Z</time>
      </trkpt>
      <trkpt lat="45.12607" lon="5.60166">
        <ele>1084</ele>
        <time>2010-01-01T01:44:37Z</time>
      </trkpt>
      <trkpt lat="45.12607" lon="5.60177">
        <ele>1087</ele>
        <time>2010-01-01T01:44:40Z</time>
      </trkpt>
      <trkpt lat="45.12604" lon="5.60182">
        <ele>1088</ele>
        <time>2010-01-01T01:44:42Z</time>
      </trkpt>
      <trkpt lat="45.12605" lon="5.60188">
        <ele>1090</ele>
        <time>2010-01-01T01:44:43Z</time>
      </trkpt>
      <trkpt lat="45.12601" lon="5.60194">
        <ele>1091</ele>
        <time>2010-01-01T01:44:45Z</time>
      </trkpt>
      <trkpt lat="45.12598" lon="5.60205">
        <ele>1094</ele>
        <time>2010-01-01T01:44:49Z</time>
      </trkpt>
      <trkpt lat="45.12596" lon="5.60211">
        <ele>1095</ele>
        <time>2010-01-01T01:44:51Z</time>
      </trkpt>
      <trkpt lat="45.12599" lon="5.60214">
        <ele>1096</ele>
        <time>2010-01-01T01:44:52Z</time>
      </trkpt>
      <trkpt lat="45.12603" lon="5.60212">
        <ele>1096</ele>
        <time>2010-01-01T01:44:54Z</time>
      </trkpt>
      <trkpt lat="45.12609" lon="5.60209">
        <ele>1097</ele>
        <time>2010-01-01T01:44:56Z</time>
      </trkpt>
      <trkpt lat="45.12609" lon="5.60209">
        <ele>1097</ele>
        <time>2010-01-01T01:44:56Z</time>
      </trkpt>
      <trkpt lat="45.12606" lon="5.60215">
        <ele>1098</ele>
        <time>2010-01-01T01:44:58Z</time>
      </trkpt>
      <trkpt lat="45.12605" lon="5.60218">
        <ele>1099</ele>
        <time>2010-01-01T01:44:59Z</time>
      </trkpt>
      <trkpt lat="45.12606" lon="5.60221">
        <ele>1100</ele>
        <time>2010-01-01T01:45:00Z</time>
      </trkpt>
      <trkpt lat="45.1261" lon="5.60224">
        <ele>1102</ele>
        <time>2010-01-01T01:45:02Z</time>
      </trkpt>
      <trkpt lat="45.12613" lon="5.60225">
        <ele>1103</ele>
        <time>2010-01-01T01:45:03Z</time>
      </trkpt>
      <trkpt lat="45.12611" lon="5.60227">
        <ele>1103</ele>
        <time>2010-01-01T01:45:04Z</time>
      </trkpt>
      <trkpt lat="45.1261" lon="5.60229">
        <ele>1103</ele>
        <time>2010-01-01T01:45:05Z</time>
      </trkpt>
      <trkpt lat="45.12607" lon="5.60235">
        <ele>1104</ele>
        <time>2010-01-01T01:45:07Z</time>
      </trkpt>
      <trkpt lat="45.12607" lon="5.60238">
        <ele>1105</ele>
        <time>2010-01-01T01:45:08Z</time>
      </trkpt>
      <trkpt lat="45.12605" lon="5.60241">
        <ele>1106</ele>
        <time>2010-01-01T01:45:09Z</time>
      </trkpt>
      <trkpt lat="45.126" lon="5.6027">
        <ele>1116</ele>
        <time>2010-01-01T01:45:17Z</time>
      </trkpt>
      <trkpt lat="45.12615" lon="5.60275">
        <ele>1122</ele>
        <time>2010-01-01T01:45:23Z</time>
      </trkpt>
      <trkpt lat="45.12619" lon="5.60274">
        <ele>1123</ele>
        <time>2010-01-01T01:45:25Z</time>
      </trkpt>
      <trkpt lat="45.12623" lon="5.60269">
        <ele>1122</ele>
        <time>2010-01-01T01:45:27Z</time>
      </trkpt>
      <trkpt lat="45.12628" lon="5.60271">
        <ele>1124</ele>
        <time>2010-01-01T01:45:29Z</time>
      </trkpt>
      <trkpt lat="45.12632" lon="5.60269">
        <ele>1124</ele>
        <time>2010-01-01T01:45:31Z</time>
      </trkpt>
      <trkpt lat="45.12636" lon="5.60271">
        <ele>1125</ele>
        <time>2010-01-01T01:45:33Z</time>
      </trkpt>
      <trkpt lat="45.12639" lon="5.60272">
        <ele>1127</ele>
        <time>2010-01-01T01:45:34Z</time>
      </trkpt>
      <trkpt lat="45.12644" lon="5.60272">
        <ele>1128</ele>
        <time>2010-01-01T01:45:36Z</time>
      </trkpt>
      <trkpt lat="45.12646" lon="5.60273">
        <ele>1129</ele>
        <time>2010-01-01T01:45:37Z</time>
      </trkpt>
      <trkpt lat="45.1265" lon="5.60274">
        <ele>1130</ele>
        <time>2010-01-01T01:45:38Z</time>
      </trkpt>
      <trkpt lat="45.12655" lon="5.60274">
        <ele>1131</ele>
        <time>2010-01-01T01:45:40Z</time>
      </trkpt>
      <trkpt lat="45.12657" lon="5.60274">
        <ele>1132</ele>
        <time>2010-01-01T01:45:41Z</time>
      </trkpt>
      <trkpt lat="45.1266" lon="5.60275">
        <ele>1133</ele>
        <time>2010-01-01T01:45:42Z</time>
      </trkpt>
      <trkpt lat="45.12663" lon="5.60279">
        <ele>1136</ele>
        <time>2010-01-01T01:45:44Z</time>
      </trkpt>
      <trkpt lat="45.12662" lon="5.60283">
        <ele>1137</ele>
        <time>2010-01-01T01:45:45Z</time>
      </trkpt>
      <trkpt lat="45.12663" lon="5.60286">
        <ele>1138</ele>
        <time>2010-01-01T01:45:46Z</time>
      </trkpt>
      <trkpt lat="45.12663" lon="5.60287">
        <ele>1139</ele>
        <time>2010-01-01T01:45:47Z</time>
      </trkpt>
      <trkpt lat="45.12662" lon="5.60289">
        <ele>1140</ele>
        <time>2010-01-01T01:45:47Z</time>
      </trkpt>
      <trkpt lat="45.12663" lon="5.60291">
        <ele>1141</ele>
        <time>2010-01-01T01:45:48Z</time>
      </trkpt>
      <trkpt lat="45.12665" lon="5.60293">
        <ele>1142</ele>
        <time>2010-01-01T01:45:49Z</time>
      </trkpt>
      <trkpt lat="45.12666" lon="5.60292">
        <ele>1142</ele>
        <time>2010-01-01T01:45:49Z</time>
      </trkpt>
      <trkpt lat="45.12667" lon="5.60294">
        <ele>1143</ele>
        <time>2010-01-01T01:45:50Z</time>
      </trkpt>
      <trkpt lat="45.12667" lon="5.60294">
        <ele>1143</ele>
        <time>2010-01-01T01:45:50Z</time>
      </trkpt>
      <trkpt lat="45.12667" lon="5.60296">
        <ele>1144</ele>
        <time>2010-01-01T01:45:50Z</time>
      </trkpt>
      <trkpt lat="45.1267" lon="5.60295">
        <ele>1144</ele>
        <time>2010-01-01T01:45:52Z</time>
      </trkpt>
      <trkpt lat="45.12673" lon="5.60297">
        <ele>1144</ele>
        <time>2010-01-01T01:45:53Z</time>
      </trkpt>
      <trkpt lat="45.12681" lon="5.60306">
        <ele>1148</ele>
        <time>2010-01-01T01:45:57Z</time>
      </trkpt>
      <trkpt lat="45.12681" lon="5.60308">
        <ele>1149</ele>
        <time>2010-01-01T01:45:57Z</time>
      </trkpt>
      <trkpt lat="45.12679" lon="5.60311">
        <ele>1150</ele>
        <time>2010-01-01T01:45:59Z</time>
      </trkpt>
      <trkpt lat="45.12678" lon="5.60315">
        <ele>1152</ele>
        <time>2010-01-01T01:46:00Z</time>
      </trkpt>
      <trkpt lat="45.12674" lon="5.60314">
        <ele>1152</ele>
        <time>2010-01-01T01:46:01Z</time>
      </trkpt>
      <trkpt lat="45.12673" lon="5.60314">
        <ele>1152</ele>
        <time>2010-01-01T01:46:02Z</time>
      </trkpt>
      <trkpt lat="45.12671" lon="5.60315">
        <ele>1152</ele>
        <time>2010-01-01T01:46:02Z</time>
      </trkpt>
      <trkpt lat="45.1267" lon="5.60314">
        <ele>1152</ele>
        <time>2010-01-01T01:46:03Z</time>
      </trkpt>
      <trkpt lat="45.12664" lon="5.60314">
        <ele>1151</ele>
        <time>2010-01-01T01:46:05Z</time>
      </trkpt>
      <trkpt lat="45.12657" lon="5.60314">
        <ele>1150</ele>
        <time>2010-01-01T01:46:08Z</time>
      </trkpt>
      <trkpt lat="45.12654" lon="5.60317">
        <ele>1150</ele>
        <time>2010-01-01T01:46:10Z</time>
      </trkpt>
      <trkpt lat="45.1265" lon="5.60319">
        <ele>1150</ele>
        <time>2010-01-01T01:46:11Z</time>
      </trkpt>
      <trkpt lat="45.12648" lon="5.60325">
        <ele>1152</ele>
        <time>2010-01-01T01:46:13Z</time>
      </trkpt>
      <trkpt lat="45.12645" lon="5.60324">
        <ele>1151</ele>
        <time>2010-01-01T01:46:14Z</time>
      </trkpt>
      <trkpt lat="45.12643" lon="5.60325">
        <ele>1151</ele>
        <time>2010-01-01T01:46:15Z</time>
      </trkpt>
      <trkpt lat="45.1264" lon="5.60326">
        <ele>1151</ele>
        <time>2010-01-01T01:46:16Z</time>
      </trkpt>
      <trkpt lat="45.12635" lon="5.60326">
        <ele>1149</ele>
        <time>2010-01-01T01:46:18Z</time>
      </trkpt>
      <trkpt lat="45.12636" lon="5.60326">
        <ele>1150</ele>
        <time>2010-01-01T01:46:19Z</time>
      </trkpt>
      <trkpt lat="45.12638" lon="5.60331">
        <ele>1152</ele>
        <time>2010-01-01T01:46:20Z</time>
      </trkpt>
      <trkpt lat="45.12639" lon="5.60332">
        <ele>1153</ele>
        <time>2010-01-01T01:46:21Z</time>
      </trkpt>
      <trkpt lat="45.12639" lon="5.60335">
        <ele>1154</ele>
        <time>2010-01-01T01:46:22Z</time>
      </trkpt>
      <trkpt lat="45.12641" lon="5.60338">
        <ele>1156</ele>
        <time>2010-01-01T01:46:23Z</time>
      </trkpt>
      <trkpt lat="45.12645" lon="5.60341">
        <ele>1158</ele>
        <time>2010-01-01T01:46:25Z</time>
      </trkpt>
      <trkpt lat="45.12646" lon="5.60343">
        <ele>1159</ele>
        <time>2010-01-01T01:46:25Z</time>
      </trkpt>
      <trkpt lat="45.12647" lon="5.60347">
        <ele>1161</ele>
        <time>2010-01-01T01:46:26Z</time>
      </trkpt>
      <trkpt lat="45.12649" lon="5.60348">
        <ele>1162</ele>
        <time>2010-01-01T01:46:28Z</time>
      </trkpt>
      <trkpt lat="45.1265" lon="5.6035">
        <ele>1163</ele>
        <time>2010-01-01T01:46:28Z</time>
      </trkpt>
      <trkpt lat="45.1265" lon="5.60351">
        <ele>1163</ele>
        <time>2010-01-01T01:46:29Z</time>
      </trkpt>
      <trkpt lat="45.12651" lon="5.60353">
        <ele>1165</ele>
        <time>2010-01-01T01:46:29Z</time>
      </trkpt>
      <trkpt lat="45.12652" lon="5.60356">
        <ele>1166</ele>
        <time>2010-01-01T01:46:30Z</time>
      </trkpt>
      <trkpt lat="45.1265" lon="5.60362">
        <ele>1168</ele>
        <time>2010-01-01T01:46:32Z</time>
      </trkpt>
      <trkpt lat="45.12652" lon="5.60364">
        <ele>1169</ele>
        <time>2010-01-01T01:46:33Z</time>
      </trkpt>
      <trkpt lat="45.12653" lon="5.60369">
        <ele>1172</ele>
        <time>2010-01-01T01:46:34Z</time>
      </trkpt>
      <trkpt lat="45.12656" lon="5.60376">
        <ele>1175</ele>
        <time>2010-01-01T01:46:37Z</time>
      </trkpt>
      <trkpt lat="45.12657" lon="5.60378">
        <ele>1176</ele>
        <time>2010-01-01T01:46:38Z</time>
      </trkpt>
      <trkpt lat="45.1266" lon="5.60379">
        <ele>1177</ele>
        <time>2010-01-01T01:46:39Z</time>
      </trkpt>
      <trkpt lat="45.12662" lon="5.60381">
        <ele>1179</ele>
        <time>2010-01-01T01:46:40Z</time>
      </trkpt>
      <trkpt lat="45.12664" lon="5.60383">
        <ele>1180</ele>
        <time>2010-01-01T01:46:41Z</time>
      </trkpt>
      <trkpt lat="45.12667" lon="5.60383">
        <ele>1181</ele>
        <time>2010-01-01T01:46:42Z</time>
      </trkpt>
      <trkpt lat="45.1267" lon="5.60385">
        <ele>1182</ele>
        <time>2010-01-01T01:46:43Z</time>
      </trkpt>
      <trkpt lat="45.12672" lon="5.60387">
        <ele>1182</ele>
        <time>2010-01-01T01:46:44Z</time>
      </trkpt>
      <trkpt lat="45.12673" lon="5.60387">
        <ele>1183</ele>
        <time>2010-01-01T01:46:44Z</time>
      </trkpt>
      <trkpt lat="45.12674" lon="5.60388">
        <ele>1183</ele>
        <time>2010-01-01T01:46:45Z</time>
      </trkpt>
      <trkpt lat="45.12676" lon="5.60391">
        <ele>1184</ele>
        <time>2010-01-01T01:46:46Z</time>
      </trkpt>
      <trkpt lat="45.12678" lon="5.60392">
        <ele>1184</ele>
        <time>2010-01-01T01:46:47Z</time>
      </trkpt>
      <trkpt lat="45.12679" lon="5.60393">
        <ele>1185</ele>
        <time>2010-01-01T01:46:47Z</time>
      </trkpt>
      <trkpt lat="45.12677" lon="5.60389">
        <ele>1183</ele>
        <time>2010-01-01T01:46:49Z</time>
      </trkpt>
      <trkpt lat="45.12676" lon="5.60383">
        <ele>1181</ele>
        <time>2010-01-01T01:46:50Z</time>
      </trkpt>
      <trkpt lat="45.12676" lon="5.60388">
        <ele>1183</ele>
        <time>2010-01-01T01:46:52Z</time>
      </trkpt>
      <trkpt lat="45.12676" lon="5.60399">
        <ele>1188</ele>
        <time>2010-01-01T01:46:55Z</time>
      </trkpt>
      <trkpt lat="45.12678" lon="5.60404">
        <ele>1189</ele>
        <time>2010-01-01T01:46:56Z</time>
      </trkpt>
      <trkpt lat="45.1268" lon="5.60407">
        <ele>1191</ele>
        <time>2010-01-01T01:46:58Z</time>
      </trkpt>
      <trkpt lat="45.12684" lon="5.60408">
        <ele>1191</ele>
        <time>2010-01-01T01:46:59Z</time>
      </trkpt>
      <trkpt lat="45.12687" lon="5.60411">
        <ele>1192</ele>
        <time>2010-01-01T01:47:01Z</time>
      </trkpt>
      <trkpt lat="45.12689" lon="5.60412">
        <ele>1193</ele>
        <time>2010-01-01T01:47:01Z</time>
      </trkpt>
      <trkpt lat="45.12689" lon="5.60415">
        <ele>1194</ele>
        <time>2010-01-01T01:47:02Z</time>
      </trkpt>
      <trkpt lat="45.12688" lon="5.60417">
        <ele>1195</ele>
        <time>2010-01-01T01:47:03Z</time>
      </trkpt>
      <trkpt lat="45.12687" lon="5.60419">
        <ele>1196</ele>
        <time>2010-01-01T01:47:04Z</time>
      </trkpt>
      <trkpt lat="45.12687" lon="5.60422">
        <ele>1197</ele>
        <time>2010-01-01T01:47:05Z</time>
      </trkpt>
      <trkpt lat="45.12688" lon="5.60423">
        <ele>1198</ele>
        <time>2010-01-01T01:47:05Z</time>
      </trkpt>
      <trkpt lat="45.12688" lon="5.60426">
        <ele>1199</ele>
        <time>2010-01-01T01:47:06Z</time>
      </trkpt>
      <trkpt lat="45.12688" lon="5.60428">
        <ele>1200</ele>
        <time>2010-01-01T01:47:07Z</time>
      </trkpt>
      <trkpt lat="45.12689" lon="5.60432">
        <ele>1202</ele>
        <time>2010-01-01T01:47:08Z</time>
      </trkpt>
      <trkpt lat="45.1269" lon="5.6044">
        <ele>1206</ele>
        <time>2010-01-01T01:47:10Z</time>
      </trkpt>
      <trkpt lat="45.12688" lon="5.60443">
        <ele>1207</ele>
        <time>2010-01-01T01:47:11Z</time>
      </trkpt>
      <trkpt lat="45.12687" lon="5.60443">
        <ele>1207</ele>
        <time>2010-01-01T01:47:12Z</time>
      </trkpt>
      <trkpt lat="45.12682" lon="5.60441">
        <ele>1206</ele>
        <time>2010-01-01T01:47:14Z</time>
      </trkpt>
      <trkpt lat="45.12681" lon="5.60441">
        <ele>1206</ele>
        <time>2010-01-01T01:47:14Z</time>
      </trkpt>
      <trkpt lat="45.12677" lon="5.60439">
        <ele>1205</ele>
        <time>2010-01-01T01:47:16Z</time>
      </trkpt>
      <trkpt lat="45.12677" lon="5.60442">
        <ele>1207</ele>
        <time>2010-01-01T01:47:17Z</time>
      </trkpt>
      <trkpt lat="45.12677" lon="5.60444">
        <ele>1208</ele>
        <time>2010-01-01T01:47:17Z</time>
      </trkpt>
      <trkpt lat="45.12677" lon="5.6045">
        <ele>1211</ele>
        <time>2010-01-01T01:47:19Z</time>
      </trkpt>
      <trkpt lat="45.12674" lon="5.60453">
        <ele>1212</ele>
        <time>2010-01-01T01:47:20Z</time>
      </trkpt>
      <trkpt lat="45.12673" lon="5.60456">
        <ele>1213</ele>
        <time>2010-01-01T01:47:21Z</time>
      </trkpt>
      <trkpt lat="45.12672" lon="5.60459">
        <ele>1215</ele>
        <time>2010-01-01T01:47:22Z</time>
      </trkpt>
      <trkpt lat="45.12672" lon="5.60461">
        <ele>1216</ele>
        <time>2010-01-01T01:47:23Z</time>
      </trkpt>
      <trkpt lat="45.12673" lon="5.60464">
        <ele>1217</ele>
        <time>2010-01-01T01:47:24Z</time>
      </trkpt>
      <trkpt lat="45.12673" lon="5.60465">
        <ele>1218</ele>
        <time>2010-01-01T01:47:24Z</time>
      </trkpt>
      <trkpt lat="45.12673" lon="5.60469">
        <ele>1219</ele>
        <time>2010-01-01T01:47:25Z</time>
      </trkpt>
      <trkpt lat="45.12673" lon="5.6047">
        <ele>1220</ele>
        <time>2010-01-01T01:47:25Z</time>
      </trkpt>
      <trkpt lat="45.12675" lon="5.60473">
        <ele>1221</ele>
        <time>2010-01-01T01:47:26Z</time>
      </trkpt>
      <trkpt lat="45.12675" lon="5.60474">
        <ele>1222</ele>
        <time>2010-01-01T01:47:27Z</time>
      </trkpt>
      <trkpt lat="45.12675" lon="5.60479">
        <ele>1224</ele>
        <time>2010-01-01T01:47:28Z</time>
      </trkpt>
      <trkpt lat="45.12673" lon="5.60483">
        <ele>1226</ele>
        <time>2010-01-01T01:47:29Z</time>
      </trkpt>
      <trkpt lat="45.12674" lon="5.60488">
        <ele>1229</ele>
        <time>2010-01-01T01:47:31Z</time>
      </trkpt>
      <trkpt lat="45.12673" lon="5.60489">
        <ele>1229</ele>
        <time>2010-01-01T01:47:31Z</time>
      </trkpt>
      <trkpt lat="45.12672" lon="5.60494">
        <ele>1231</ele>
        <time>2010-01-01T01:47:33Z</time>
      </trkpt>
      <trkpt lat="45.12672" lon="5.60496">
        <ele>1232</ele>
        <time>2010-01-01T01:47:34Z</time>
      </trkpt>
      <trkpt lat="45.12674" lon="5.60499">
        <ele>1233</ele>
        <time>2010-01-01T01:47:34Z</time>
      </trkpt>
      <trkpt lat="45.12674" lon="5.60505">
        <ele>1236</ele>
        <time>2010-01-01T01:47:36Z</time>
      </trkpt>
      <trkpt lat="45.12673" lon="5.60507">
        <ele>1237</ele>
        <time>2010-01-01T01:47:37Z</time>
      </trkpt>
      <trkpt lat="45.12675" lon="5.60512">
        <ele>1239</ele>
        <time>2010-01-01T01:47:38Z</time>
      </trkpt>
      <trkpt lat="45.12678" lon="5.60519">
        <ele>1241</ele>
        <time>2010-01-01T01:47:41Z</time>
      </trkpt>
      <trkpt lat="45.12678" lon="5.60523">
        <ele>1242</ele>
        <time>2010-01-01T01:47:42Z</time>
      </trkpt>
      <trkpt lat="45.12678" lon="5.60526">
        <ele>1244</ele>
        <time>2010-01-01T01:47:43Z</time>
      </trkpt>
      <trkpt lat="45.12678" lon="5.60529">
        <ele>1245</ele>
        <time>2010-01-01T01:47:44Z</time>
      </trkpt>
      <trkpt lat="45.12677" lon="5.60534">
        <ele>1247</ele>
        <time>2010-01-01T01:47:45Z</time>
      </trkpt>
      <trkpt lat="45.12677" lon="5.6054">
        <ele>1249</ele>
        <time>2010-01-01T01:47:47Z</time>
      </trkpt>
      <trkpt lat="45.12675" lon="5.60544">
        <ele>1251</ele>
        <time>2010-01-01T01:47:48Z</time>
      </trkpt>
      <trkpt lat="45.12673" lon="5.60547">
        <ele>1252</ele>
        <time>2010-01-01T01:47:49Z</time>
      </trkpt>
      <trkpt lat="45.12672" lon="5.60551">
        <ele>1253</ele>
        <time>2010-01-01T01:47:50Z</time>
      </trkpt>
      <trkpt lat="45.12672" lon="5.60552">
        <ele>1254</ele>
        <time>2010-01-01T01:47:51Z</time>
      </trkpt>
      <trkpt lat="45.12673" lon="5.60555">
        <ele>1255</ele>
        <time>2010-01-01T01:47:52Z</time>
      </trkpt>
      <trkpt lat="45.12674" lon="5.60557">
        <ele>1255</ele>
        <time>2010-01-01T01:47:52Z</time>
      </trkpt>
      <trkpt lat="45.12672" lon="5.60562">
        <ele>1257</ele>
        <time>2010-01-01T01:47:54Z</time>
      </trkpt>
      <trkpt lat="45.12672" lon="5.60564">
        <ele>1258</ele>
        <time>2010-01-01T01:47:54Z</time>
      </trkpt>
      <trkpt lat="45.12672" lon="5.60571">
        <ele>1261</ele>
        <time>2010-01-01T01:47:56Z</time>
      </trkpt>
      <trkpt lat="45.12677" lon="5.60576">
        <ele>1263</ele>
        <time>2010-01-01T01:47:59Z</time>
      </trkpt>
      <trkpt lat="45.12679" lon="5.60579">
        <ele>1263</ele>
        <time>2010-01-01T01:48:00Z</time>
      </trkpt>
      <trkpt lat="45.12681" lon="5.60581">
        <ele>1264</ele>
        <time>2010-01-01T01:48:01Z</time>
      </trkpt>
      <trkpt lat="45.12683" lon="5.60583">
        <ele>1264</ele>
        <time>2010-01-01T01:48:02Z</time>
      </trkpt>
      <trkpt lat="45.12685" lon="5.60585">
        <ele>1265</ele>
        <time>2010-01-01T01:48:03Z</time>
      </trkpt>
      <trkpt lat="45.12685" lon="5.60587">
        <ele>1265</ele>
        <time>2010-01-01T01:48:03Z</time>
      </trkpt>
      <trkpt lat="45.12687" lon="5.60592">
        <ele>1266</ele>
        <time>2010-01-01T01:48:05Z</time>
      </trkpt>
      <trkpt lat="45.12687" lon="5.60593">
        <ele>1267</ele>
        <time>2010-01-01T01:48:05Z</time>
      </trkpt>
      <trkpt lat="45.12689" lon="5.60598">
        <ele>1268</ele>
        <time>2010-01-01T01:48:07Z</time>
      </trkpt>
      <trkpt lat="45.12689" lon="5.60599">
        <ele>1268</ele>
        <time>2010-01-01T01:48:07Z</time>
      </trkpt>
      <trkpt lat="45.1269" lon="5.60607">
        <ele>1270</ele>
        <time>2010-01-01T01:48:10Z</time>
      </trkpt>
      <trkpt lat="45.12692" lon="5.60618">
        <ele>1272</ele>
        <time>2010-01-01T01:48:13Z</time>
      </trkpt>
      <trkpt lat="45.12691" lon="5.6062">
        <ele>1273</ele>
        <time>2010-01-01T01:48:13Z</time>
      </trkpt>
      <trkpt lat="45.1269" lon="5.60627">
        <ele>1275</ele>
        <time>2010-01-01T01:48:15Z</time>
      </trkpt>
      <trkpt lat="45.1269" lon="5.60636">
        <ele>1277</ele>
        <time>2010-01-01T01:48:18Z</time>
      </trkpt>
      <trkpt lat="45.1269" lon="5.6064">
        <ele>1278</ele>
        <time>2010-01-01T01:48:19Z</time>
      </trkpt>
      <trkpt lat="45.1269" lon="5.60641">
        <ele>1278</ele>
        <time>2010-01-01T01:48:19Z</time>
      </trkpt>
      <trkpt lat="45.12691" lon="5.60645">
        <ele>1279</ele>
        <time>2010-01-01T01:48:20Z</time>
      </trkpt>
      <trkpt lat="45.12691" lon="5.60649">
        <ele>1280</ele>
        <time>2010-01-01T01:48:21Z</time>
      </trkpt>
      <trkpt lat="45.12694" lon="5.60658">
        <ele>1282</ele>
        <time>2010-01-01T01:48:24Z</time>
      </trkpt>
      <trkpt lat="45.12694" lon="5.60661">
        <ele>1283</ele>
        <time>2010-01-01T01:48:25Z</time>
      </trkpt>
      <trkpt lat="45.12695" lon="5.60665">
        <ele>1284</ele>
        <time>2010-01-01T01:48:26Z</time>
      </trkpt>
      <trkpt lat="45.12695" lon="5.60665">
        <ele>1284</ele>
        <time>2010-01-01T01:48:26Z</time>
      </trkpt>
      <trkpt lat="45.12695" lon="5.6067">
        <ele>1285</ele>
        <time>2010-01-01T01:48:28Z</time>
      </trkpt>
      <trkpt lat="45.12696" lon="5.60677">
        <ele>1287</ele>
        <time>2010-01-01T01:48:30Z</time>
      </trkpt>
      <trkpt lat="45.12696" lon="5.60684">
        <ele>1288</ele>
        <time>2010-01-01T01:48:32Z</time>
      </trkpt>
      <trkpt lat="45.12694" lon="5.60688">
        <ele>1289</ele>
        <time>2010-01-01T01:48:33Z</time>
      </trkpt>
      <trkpt lat="45.12695" lon="5.60692">
        <ele>1290</ele>
        <time>2010-01-01T01:48:34Z</time>
      </trkpt>
      <trkpt lat="45.12695" lon="5.60697">
        <ele>1291</ele>
        <time>2010-01-01T01:48:36Z</time>
      </trkpt>
      <trkpt lat="45.12695" lon="5.60702">
        <ele>1292</ele>
        <time>2010-01-01T01:48:37Z</time>
      </trkpt>
      <trkpt lat="45.12695" lon="5.60712">
        <ele>1294</ele>
        <time>2010-01-01T01:48:40Z</time>
      </trkpt>
      <trkpt lat="45.12695" lon="5.60716">
        <ele>1295</ele>
        <time>2010-01-01T01:48:41Z</time>
      </trkpt>
      <trkpt lat="45.12695" lon="5.60721">
        <ele>1296</ele>
        <time>2010-01-01T01:48:43Z</time>
      </trkpt>
      <trkpt lat="45.12695" lon="5.60725">
        <ele>1297</ele>
        <time>2010-01-01T01:48:44Z</time>
      </trkpt>
      <trkpt lat="45.12697" lon="5.6073">
        <ele>1298</ele>
        <time>2010-01-01T01:48:45Z</time>
      </trkpt>
      <trkpt lat="45.12698" lon="5.60737">
        <ele>1300</ele>
        <time>2010-01-01T01:48:47Z</time>
      </trkpt>
      <trkpt lat="45.12697" lon="5.60742">
        <ele>1301</ele>
        <time>2010-01-01T01:48:49Z</time>
      </trkpt>
      <trkpt lat="45.12696" lon="5.60748">
        <ele>1302</ele>
        <time>2010-01-01T01:48:50Z</time>
      </trkpt>
      <trkpt lat="45.12695" lon="5.60754">
        <ele>1303</ele>
        <time>2010-01-01T01:48:52Z</time>
      </trkpt>
      <trkpt lat="45.12695" lon="5.6076">
        <ele>1304</ele>
        <time>2010-01-01T01:48:54Z</time>
      </trkpt>
      <trkpt lat="45.12695" lon="5.60767">
        <ele>1305</ele>
        <time>2010-01-01T01:48:56Z</time>
      </trkpt>
      <trkpt lat="45.12695" lon="5.60772">
        <ele>1306</ele>
        <time>2010-01-01T01:48:57Z</time>
      </trkpt>
      <trkpt lat="45.12697" lon="5.60778">
        <ele>1306</ele>
        <time>2010-01-01T01:48:59Z</time>
      </trkpt>
      <trkpt lat="45.12698" lon="5.60782">
        <ele>1307</ele>
        <time>2010-01-01T01:49:00Z</time>
      </trkpt>
      <trkpt lat="45.12697" lon="5.60784">
        <ele>1307</ele>
        <time>2010-01-01T01:49:01Z</time>
      </trkpt>
      <trkpt lat="45.12696" lon="5.60784">
        <ele>1307</ele>
        <time>2010-01-01T01:49:01Z</time>
      </trkpt>
      <trkpt lat="45.12695" lon="5.60786">
        <ele>1307</ele>
        <time>2010-01-01T01:49:02Z</time>
      </trkpt>
      <trkpt lat="45.12693" lon="5.6079">
        <ele>1308</ele>
        <time>2010-01-01T01:49:03Z</time>
      </trkpt>
      <trkpt lat="45.12692" lon="5.60795">
        <ele>1308</ele>
        <time>2010-01-01T01:49:05Z</time>
      </trkpt>
      <trkpt lat="45.12695" lon="5.60803">
        <ele>1309</ele>
        <time>2010-01-01T01:49:07Z</time>
      </trkpt>
      <trkpt lat="45.12697" lon="5.60811">
        <ele>1311</ele>
        <time>2010-01-01T01:49:09Z</time>
      </trkpt>
      <trkpt lat="45.12697" lon="5.60812">
        <ele>1311</ele>
        <time>2010-01-01T01:49:10Z</time>
      </trkpt>
      <trkpt lat="45.127" lon="5.60819">
        <ele>1312</ele>
        <time>2010-01-01T01:49:12Z</time>
      </trkpt>
      <trkpt lat="45.12703" lon="5.60828">
        <ele>1314</ele>
        <time>2010-01-01T01:49:15Z</time>
      </trkpt>
      <trkpt lat="45.12707" lon="5.60834">
        <ele>1316</ele>
        <time>2010-01-01T01:49:17Z</time>
      </trkpt>
      <trkpt lat="45.12709" lon="5.60837">
        <ele>1317</ele>
        <time>2010-01-01T01:49:18Z</time>
      </trkpt>
      <trkpt lat="45.12713" lon="5.6084">
        <ele>1318</ele>
        <time>2010-01-01T01:49:20Z</time>
      </trkpt>
      <trkpt lat="45.12717" lon="5.60844">
        <ele>1319</ele>
        <time>2010-01-01T01:49:22Z</time>
      </trkpt>
      <trkpt lat="45.12719" lon="5.60845">
        <ele>1320</ele>
        <time>2010-01-01T01:49:23Z</time>
      </trkpt>
      <trkpt lat="45.1272" lon="5.60847">
        <ele>1320</ele>
        <time>2010-01-01T01:49:23Z</time>
      </trkpt>
      <trkpt lat="45.12722" lon="5.6085">
        <ele>1321</ele>
        <time>2010-01-01T01:49:25Z</time>
      </trkpt>
      <trkpt lat="45.12723" lon="5.60852">
        <ele>1322</ele>
        <time>2010-01-01T01:49:26Z</time>
      </trkpt>
      <trkpt lat="45.12725" lon="5.60854">
        <ele>1323</ele>
        <time>2010-01-01T01:49:26Z</time>
      </trkpt>
      <trkpt lat="45.12725" lon="5.60855">
        <ele>1323</ele>
        <time>2010-01-01T01:49:27Z</time>
      </trkpt>
      <trkpt lat="45.12729" lon="5.60862">
        <ele>1325</ele>
        <time>2010-01-01T01:49:29Z</time>
      </trkpt>
      <trkpt lat="45.12733" lon="5.60866">
        <ele>1327</ele>
        <time>2010-01-01T01:49:31Z</time>
      </trkpt>
      <trkpt lat="45.12734" lon="5.60867">
        <ele>1327</ele>
        <time>2010-01-01T01:49:31Z</time>
      </trkpt>
      <trkpt lat="45.12735" lon="5.60869">
        <ele>1328</ele>
        <time>2010-01-01T01:49:32Z</time>
      </trkpt>
      <trkpt lat="45.12738" lon="5.60873">
        <ele>1329</ele>
        <time>2010-01-01T01:49:34Z</time>
      </trkpt>
      <trkpt lat="45.12738" lon="5.60874">
        <ele>1329</ele>
        <time>2010-01-01T01:49:34Z</time>
      </trkpt>
      <trkpt lat="45.12741" lon="5.6088">
        <ele>1331</ele>
        <time>2010-01-01T01:49:36Z</time>
      </trkpt>
      <trkpt lat="45.12742" lon="5.60882">
        <ele>1332</ele>
        <time>2010-01-01T01:49:37Z</time>
      </trkpt>
      <trkpt lat="45.12742" lon="5.60884">
        <ele>1332</ele>
        <time>2010-01-01T01:49:38Z</time>
      </trkpt>
      <trkpt lat="45.12743" lon="5.60888">
        <ele>1333</ele>
        <time>2010-01-01T01:49:39Z</time>
      </trkpt>
      <trkpt lat="45.12746" lon="5.60895">
        <ele>1335</ele>
        <time>2010-01-01T01:49:41Z</time>
      </trkpt>
      <trkpt lat="45.1275" lon="5.60902">
        <ele>1339</ele>
        <time>2010-01-01T01:49:44Z</time>
      </trkpt>
      <trkpt lat="45.12755" lon="5.60909">
        <ele>1339</ele>
        <time>2010-01-01T01:49:46Z</time>
      </trkpt>
      <trkpt lat="45.12761" lon="5.60918">
        <ele>1340</ele>
        <time>2010-01-01T01:49:50Z</time>
      </trkpt>
      <trkpt lat="45.12765" lon="5.60926">
        <ele>1340</ele>
        <time>2010-01-01T01:49:52Z</time>
      </trkpt>
      <trkpt lat="45.12765" lon="5.60927">
        <ele>1340</ele>
        <time>2010-01-01T01:49:53Z</time>
      </trkpt>
      <trkpt lat="45.12765" lon="5.60932">
        <ele>1340</ele>
        <time>2010-01-01T01:49:54Z</time>
      </trkpt>
      <trkpt lat="45.12766" lon="5.60936">
        <ele>1341</ele>
        <time>2010-01-01T01:49:56Z</time>
      </trkpt>
      <trkpt lat="45.12767" lon="5.6094">
        <ele>1341</ele>
        <time>2010-01-01T01:49:57Z</time>
      </trkpt>
      <trkpt lat="45.12768" lon="5.60941">
        <ele>1341</ele>
        <time>2010-01-01T01:49:57Z</time>
      </trkpt>
      <trkpt lat="45.12769" lon="5.6094">
        <ele>1341</ele>
        <time>2010-01-01T01:49:58Z</time>
      </trkpt>
      <trkpt lat="45.12774" lon="5.60942">
        <ele>1341</ele>
        <time>2010-01-01T01:50:00Z</time>
      </trkpt>
      <trkpt lat="45.12776" lon="5.60948">
        <ele>1341</ele>
        <time>2010-01-01T01:50:01Z</time>
      </trkpt>
      <trkpt lat="45.12781" lon="5.60957">
        <ele>1342</ele>
        <time>2010-01-01T01:50:05Z</time>
      </trkpt>
      <trkpt lat="45.12781" lon="5.60958">
        <ele>1342</ele>
        <time>2010-01-01T01:50:05Z</time>
      </trkpt>
      <trkpt lat="45.12786" lon="5.60962">
        <ele>1343</ele>
        <time>2010-01-01T01:50:07Z</time>
      </trkpt>
      <trkpt lat="45.12792" lon="5.60967">
        <ele>1344</ele>
        <time>2010-01-01T01:50:10Z</time>
      </trkpt>
      <trkpt lat="45.12796" lon="5.6097">
        <ele>1345</ele>
        <time>2010-01-01T01:50:12Z</time>
      </trkpt>
      <trkpt lat="45.12802" lon="5.60977">
        <ele>1346</ele>
        <time>2010-01-01T01:50:15Z</time>
      </trkpt>
      <trkpt lat="45.12809" lon="5.60984">
        <ele>1348</ele>
        <time>2010-01-01T01:50:18Z</time>
      </trkpt>
      <trkpt lat="45.12815" lon="5.60993">
        <ele>1351</ele>
        <time>2010-01-01T01:50:22Z</time>
      </trkpt>
      <trkpt lat="45.12825" lon="5.61004">
        <ele>1354</ele>
        <time>2010-01-01T01:50:27Z</time>
      </trkpt>
      <trkpt lat="45.12833" lon="5.61017">
        <ele>1356</ele>
        <time>2010-01-01T01:50:32Z</time>
      </trkpt>
      <trkpt lat="45.12836" lon="5.61029">
        <ele>1356</ele>
        <time>2010-01-01T01:50:35Z</time>
      </trkpt>
      <trkpt lat="45.1284" lon="5.61035">
        <ele>1355</ele>
        <time>2010-01-01T01:50:38Z</time>
      </trkpt>
      <trkpt lat="45.12848" lon="5.61043">
        <ele>1354</ele>
        <time>2010-01-01T01:50:42Z</time>
      </trkpt>
      <trkpt lat="45.12854" lon="5.61047">
        <ele>1354</ele>
        <time>2010-01-01T01:50:44Z</time>
      </trkpt>
      <trkpt lat="45.12856" lon="5.61048">
        <ele>1354</ele>
        <time>2010-01-01T01:50:45Z</time>
      </trkpt>
      <trkpt lat="45.12863" lon="5.61055">
        <ele>1354</ele>
        <time>2010-01-01T01:50:49Z</time>
      </trkpt>
      <trkpt lat="45.1287" lon="5.61062">
        <ele>1354</ele>
        <time>2010-01-01T01:50:52Z</time>
      </trkpt>
      <trkpt lat="45.12872" lon="5.61063">
        <ele>1354</ele>
        <time>2010-01-01T01:50:53Z</time>
      </trkpt>
      <trkpt lat="45.12875" lon="5.61065">
        <ele>1354</ele>
        <time>2010-01-01T01:50:54Z</time>
      </trkpt>
      <trkpt lat="45.12878" lon="5.61068">
        <ele>1355</ele>
        <time>2010-01-01T01:50:56Z</time>
      </trkpt>
      <trkpt lat="45.1288" lon="5.61074">
        <ele>1356</ele>
        <time>2010-01-01T01:50:58Z</time>
      </trkpt>
      <trkpt lat="45.12886" lon="5.6108">
        <ele>1357</ele>
        <time>2010-01-01T01:51:01Z</time>
      </trkpt>
      <trkpt lat="45.12888" lon="5.61083">
        <ele>1357</ele>
        <time>2010-01-01T01:51:02Z</time>
      </trkpt>
      <trkpt lat="45.12892" lon="5.6109">
        <ele>1357</ele>
        <time>2010-01-01T01:51:04Z</time>
      </trkpt>
      <trkpt lat="45.12897" lon="5.61102">
        <ele>1358</ele>
        <time>2010-01-01T01:51:08Z</time>
      </trkpt>
      <trkpt lat="45.12909" lon="5.61115">
        <ele>1359</ele>
        <time>2010-01-01T01:51:14Z</time>
      </trkpt>
      <trkpt lat="45.12919" lon="5.61126">
        <ele>1360</ele>
        <time>2010-01-01T01:51:19Z</time>
      </trkpt>
      <trkpt lat="45.12928" lon="5.61134">
        <ele>1360</ele>
        <time>2010-01-01T01:51:23Z</time>
      </trkpt>
      <trkpt lat="45.12937" lon="5.61144">
        <ele>1360</ele>
        <time>2010-01-01T01:51:28Z</time>
      </trkpt>
      <trkpt lat="45.12945" lon="5.6115">
        <ele>1360</ele>
        <time>2010-01-01T01:51:32Z</time>
      </trkpt>
      <trkpt lat="45.1295" lon="5.61155">
        <ele>1361</ele>
        <time>2010-01-01T01:51:34Z</time>
      </trkpt>
      <trkpt lat="45.12957" lon="5.61163">
        <ele>1362</ele>
        <time>2010-01-01T01:51:38Z</time>
      </trkpt>
      <trkpt lat="45.12967" lon="5.61173">
        <ele>1363</ele>
        <time>2010-01-01T01:51:42Z</time>
      </trkpt>
      <trkpt lat="45.12974" lon="5.61183">
        <ele>1365</ele>
        <time>2010-01-01T01:51:47Z</time>
      </trkpt>
      <trkpt lat="45.12976" lon="5.61184">
        <ele>1365</ele>
        <time>2010-01-01T01:51:48Z</time>
      </trkpt>
      <trkpt lat="45.12979" lon="5.61186">
        <ele>1365</ele>
        <time>2010-01-01T01:51:49Z</time>
      </trkpt>
      <trkpt lat="45.12983" lon="5.6119">
        <ele>1366</ele>
        <time>2010-01-01T01:51:51Z</time>
      </trkpt>
      <trkpt lat="45.12988" lon="5.61194">
        <ele>1367</ele>
        <time>2010-01-01T01:51:53Z</time>
      </trkpt>
      <trkpt lat="45.1299" lon="5.61197">
        <ele>1368</ele>
        <time>2010-01-01T01:51:54Z</time>
      </trkpt>
      <trkpt lat="45.12992" lon="5.61197">
        <ele>1368</ele>
        <time>2010-01-01T01:51:55Z</time>
      </trkpt>
      <trkpt lat="45.12955" lon="5.61298">
        <ele>1378</ele>
        <time>2010-01-01T01:52:27Z</time>
      </trkpt>
      <trkpt lat="45.12875" lon="5.61357">
        <ele>1381</ele>
        <time>2010-01-01T01:53:03Z</time>
      </trkpt>
      <trkpt lat="45.12791" lon="5.61434">
        <ele>1408</ele>
        <time>2010-01-01T01:53:43Z</time>
      </trkpt>
      <trkpt lat="45.12675" lon="5.6147">
        <ele>1420</ele>
        <time>2010-01-01T01:54:31Z</time>
      </trkpt>
      <trkpt lat="45.12601" lon="5.61499">
        <ele>1423</ele>
        <time>2010-01-01T01:55:01Z</time>
      </trkpt>
      <trkpt lat="45.12553" lon="5.61579">
        <ele>1447</ele>
        <time>2010-01-01T01:55:31Z</time>
      </trkpt>
      <trkpt lat="45.12549" lon="5.61628">
        <ele>1462</ele>
        <time>2010-01-01T01:55:45Z</time>
      </trkpt>
      <trkpt lat="45.125" lon="5.61643">
        <ele>1462</ele>
        <time>2010-01-01T01:56:05Z</time>
      </trkpt>
      <trkpt lat="45.1257" lon="5.61723">
        <ele>1486</ele>
        <time>2010-01-01T01:56:41Z</time>
      </trkpt>
      <trkpt lat="45.1265" lon="5.61738">
        <ele>1508</ele>
        <time>2010-01-01T01:57:14Z</time>
      </trkpt>
      <trkpt lat="45.12753" lon="5.61698">
        <ele>1520</ele>
        <time>2010-01-01T01:57:56Z</time>
      </trkpt>
      <trkpt lat="45.12856" lon="5.61739">
        <ele>1550</ele>
        <time>2010-01-01T01:58:39Z</time>
      </trkpt>
      <trkpt lat="45.12862" lon="5.61742">
        <ele>1552</ele>
        <time>2010-01-01T01:58:42Z</time>
      </trkpt>
      <trkpt lat="45.12868" lon="5.61745">
        <ele>1555</ele>
        <time>2010-01-01T01:58:44Z</time>
      </trkpt>
      <trkpt lat="45.12869" lon="5.61746">
        <ele>1555</ele>
        <time>2010-01-01T01:58:45Z</time>
      </trkpt>
      <trkpt lat="45.12875" lon="5.61748">
        <ele>1557</ele>
        <time>2010-01-01T01:58:47Z</time>
      </trkpt>
      <trkpt lat="45.12882" lon="5.61749">
        <ele>1559</ele>
        <time>2010-01-01T01:58:50Z</time>
      </trkpt>
      <trkpt lat="45.12886" lon="5.61747">
        <ele>1559</ele>
        <time>2010-01-01T01:58:52Z</time>
      </trkpt>
      <trkpt lat="45.12886" lon="5.61748">
        <ele>1559</ele>
        <time>2010-01-01T01:58:52Z</time>
      </trkpt>
      <trkpt lat="45.12887" lon="5.61748">
        <ele>1560</ele>
        <time>2010-01-01T01:58:52Z</time>
      </trkpt>
      <trkpt lat="45.12894" lon="5.6175">
        <ele>1562</ele>
        <time>2010-01-01T01:58:55Z</time>
      </trkpt>
      <trkpt lat="45.12903" lon="5.61754">
        <ele>1564</ele>
        <time>2010-01-01T01:58:59Z</time>
      </trkpt>
      <trkpt lat="45.12909" lon="5.61753">
        <ele>1566</ele>
        <time>2010-01-01T01:59:01Z</time>
      </trkpt>
      <trkpt lat="45.12914" lon="5.61752">
        <ele>1567</ele>
        <time>2010-01-01T01:59:03Z</time>
      </trkpt>
      <trkpt lat="45.12916" lon="5.61753">
        <ele>1567</ele>
        <time>2010-01-01T01:59:04Z</time>
      </trkpt>
      <trkpt lat="45.1292" lon="5.61757">
        <ele>1569</ele>
        <time>2010-01-01T01:59:06Z</time>
      </trkpt>
      <trkpt lat="45.12921" lon="5.61759">
        <ele>1569</ele>
        <time>2010-01-01T01:59:07Z</time>
      </trkpt>
      <trkpt lat="45.12923" lon="5.61759">
        <ele>1569</ele>
        <time>2010-01-01T01:59:07Z</time>
      </trkpt>
      <trkpt lat="45.12925" lon="5.6176">
        <ele>1570</ele>
        <time>2010-01-01T01:59:08Z</time>
      </trkpt>
      <trkpt lat="45.12931" lon="5.61764">
        <ele>1572</ele>
        <time>2010-01-01T01:59:11Z</time>
      </trkpt>
      <trkpt lat="45.12933" lon="5.61765">
        <ele>1572</ele>
        <time>2010-01-01T01:59:12Z</time>
      </trkpt>
      <trkpt lat="45.12939" lon="5.61767">
        <ele>1574</ele>
        <time>2010-01-01T01:59:14Z</time>
      </trkpt>
      <trkpt lat="45.12945" lon="5.6177">
        <ele>1575</ele>
        <time>2010-01-01T01:59:17Z</time>
      </trkpt>
      <trkpt lat="45.12945" lon="5.61772">
        <ele>1575</ele>
        <time>2010-01-01T01:59:17Z</time>
      </trkpt>
      <trkpt lat="45.12949" lon="5.61775">
        <ele>1577</ele>
        <time>2010-01-01T01:59:19Z</time>
      </trkpt>
      <trkpt lat="45.12951" lon="5.61777">
        <ele>1577</ele>
        <time>2010-01-01T01:59:20Z</time>
      </trkpt>
      <trkpt lat="45.12955" lon="5.61779">
        <ele>1578</ele>
        <time>2010-01-01T01:59:22Z</time>
      </trkpt>
      <trkpt lat="45.12956" lon="5.6178">
        <ele>1579</ele>
        <time>2010-01-01T01:59:22Z</time>
      </trkpt>
      <trkpt lat="45.12962" lon="5.61785">
        <ele>1580</ele>
        <time>2010-01-01T01:59:25Z</time>
      </trkpt>
      <trkpt lat="45.12962" lon="5.61786">
        <ele>1581</ele>
        <time>2010-01-01T01:59:25Z</time>
      </trkpt>
      <trkpt lat="45.12967" lon="5.61787">
        <ele>1582</ele>
        <time>2010-01-01T01:59:27Z</time>
      </trkpt>
      <trkpt lat="45.12977" lon="5.61791">
        <ele>1584</ele>
        <time>2010-01-01T01:59:31Z</time>
      </trkpt>
      <trkpt lat="45.12978" lon="5.61792">
        <ele>1584</ele>
        <time>2010-01-01T01:59:32Z</time>
      </trkpt>
      <trkpt lat="45.12985" lon="5.61794">
        <ele>1586</ele>
        <time>2010-01-01T01:59:35Z</time>
      </trkpt>
      <trkpt lat="45.1299" lon="5.61797">
        <ele>1587</ele>
        <time>2010-01-01T01:59:37Z</time>
      </trkpt>
      <trkpt lat="45.12992" lon="5.61796">
        <ele>1588</ele>
        <time>2010-01-01T01:59:38Z</time>
      </trkpt>
      <trkpt lat="45.12993" lon="5.61796">
        <ele>1588</ele>
        <time>2010-01-01T01:59:38Z</time>
      </trkpt>
      <trkpt lat="45.12999" lon="5.61797">
        <ele>1589</ele>
        <time>2010-01-01T01:59:41Z</time>
      </trkpt>
      <trkpt lat="45.13002" lon="5.61797">
        <ele>1590</ele>
        <time>2010-01-01T01:59:42Z</time>
      </trkpt>
      <trkpt lat="45.13007" lon="5.618">
        <ele>1591</ele>
        <time>2010-01-01T01:59:44Z</time>
      </trkpt>
      <trkpt lat="45.13017" lon="5.61803">
        <ele>1594</ele>
        <time>2010-01-01T01:59:48Z</time>
      </trkpt>
      <trkpt lat="45.13018" lon="5.61804">
        <ele>1594</ele>
        <time>2010-01-01T01:59:48Z</time>
      </trkpt>
      <trkpt lat="45.13021" lon="5.61802">
        <ele>1594</ele>
        <time>2010-01-01T01:59:50Z</time>
      </trkpt>
      <trkpt lat="45.13028" lon="5.61803">
        <ele>1596</ele>
        <time>2010-01-01T01:59:53Z</time>
      </trkpt>
      <trkpt lat="45.13029" lon="5.61803">
        <ele>1596</ele>
        <time>2010-01-01T01:59:53Z</time>
      </trkpt>
      <trkpt lat="45.13032" lon="5.61807">
        <ele>1597</ele>
        <time>2010-01-01T01:59:55Z</time>
      </trkpt>
      <trkpt lat="45.13037" lon="5.6181">
        <ele>1598</ele>
        <time>2010-01-01T01:59:56Z</time>
      </trkpt>
      <trkpt lat="45.13037" lon="5.61811">
        <ele>1598</ele>
        <time>2010-01-01T01:59:57Z</time>
      </trkpt>
      <trkpt lat="45.13041" lon="5.61822">
        <ele>1600</ele>
        <time>2010-01-01T02:00:00Z</time>
      </trkpt>
      <trkpt lat="45.13046" lon="5.61827">
        <ele>1601</ele>
        <time>2010-01-01T02:00:03Z</time>
      </trkpt>
      <trkpt lat="45.13047" lon="5.6183">
        <ele>1602</ele>
        <time>2010-01-01T02:00:04Z</time>
      </trkpt>
      <trkpt lat="45.1305" lon="5.61835">
        <ele>1603</ele>
        <time>2010-01-01T02:00:06Z</time>
      </trkpt>
      <trkpt lat="45.13051" lon="5.61836">
        <ele>1603</ele>
        <time>2010-01-01T02:00:06Z</time>
      </trkpt>
      <trkpt lat="45.13052" lon="5.61838">
        <ele>1603</ele>
        <time>2010-01-01T02:00:07Z</time>
      </trkpt>
      <trkpt lat="45.13053" lon="5.61845">
        <ele>1604</ele>
        <time>2010-01-01T02:00:09Z</time>
      </trkpt>
      <trkpt lat="45.13057" lon="5.6185">
        <ele>1605</ele>
        <time>2010-01-01T02:00:11Z</time>
      </trkpt>
      <trkpt lat="45.13061" lon="5.61851">
        <ele>1605</ele>
        <time>2010-01-01T02:00:12Z</time>
      </trkpt>
      <trkpt lat="45.13065" lon="5.61852">
        <ele>1606</ele>
        <time>2010-01-01T02:00:14Z</time>
      </trkpt>
      <trkpt lat="45.13067" lon="5.61854">
        <ele>1607</ele>
        <time>2010-01-01T02:00:15Z</time>
      </trkpt>
      <trkpt lat="45.13069" lon="5.61855">
        <ele>1607</ele>
        <time>2010-01-01T02:00:16Z</time>
      </trkpt>
      <trkpt lat="45.13074" lon="5.61856">
        <ele>1608</ele>
        <time>2010-01-01T02:00:18Z</time>
      </trkpt>
      <trkpt lat="45.13078" lon="5.61857">
        <ele>1608</ele>
        <time>2010-01-01T02:00:19Z</time>
      </trkpt>
      <trkpt lat="45.13081" lon="5.61858">
        <ele>1609</ele>
        <time>2010-01-01T02:00:21Z</time>
      </trkpt>
      <trkpt lat="45.13087" lon="5.6186">
        <ele>1610</ele>
        <time>2010-01-01T02:00:23Z</time>
      </trkpt>
      <trkpt lat="45.1309" lon="5.6186">
        <ele>1610</ele>
        <time>2010-01-01T02:00:24Z</time>
      </trkpt>
      <trkpt lat="45.13093" lon="5.6186">
        <ele>1610</ele>
        <time>2010-01-01T02:00:26Z</time>
      </trkpt>
      <trkpt lat="45.13101" lon="5.61855">
        <ele>1611</ele>
        <time>2010-01-01T02:00:29Z</time>
      </trkpt>
      <trkpt lat="45.13101" lon="5.61854">
        <ele>1611</ele>
        <time>2010-01-01T02:00:30Z</time>
      </trkpt>
      <trkpt lat="45.13102" lon="5.61853">
        <ele>1611</ele>
        <time>2010-01-01T02:00:30Z</time>
      </trkpt>
      <trkpt lat="45.13109" lon="5.61847">
        <ele>1612</ele>
        <time>2010-01-01T02:00:33Z</time>
      </trkpt>
      <trkpt lat="45.13121" lon="5.61842">
        <ele>1613</ele>
        <time>2010-01-01T02:00:38Z</time>
      </trkpt>
      <trkpt lat="45.13134" lon="5.61843">
        <ele>1614</ele>
        <time>2010-01-01T02:00:43Z</time>
      </trkpt>
      <trkpt lat="45.13142" lon="5.61851">
        <ele>1616</ele>
        <time>2010-01-01T02:00:47Z</time>
      </trkpt>
      <trkpt lat="45.13145" lon="5.61856">
        <ele>1616</ele>
        <time>2010-01-01T02:00:49Z</time>
      </trkpt>
      <trkpt lat="45.13144" lon="5.61859">
        <ele>1616</ele>
        <time>2010-01-01T02:00:50Z</time>
      </trkpt>
      <trkpt lat="45.13143" lon="5.61858">
        <ele>1616</ele>
        <time>2010-01-01T02:00:50Z</time>
      </trkpt>
      <trkpt lat="45.13145" lon="5.61861">
        <ele>1617</ele>
        <time>2010-01-01T02:00:52Z</time>
      </trkpt>
      <trkpt lat="45.13146" lon="5.61863">
        <ele>1617</ele>
        <time>2010-01-01T02:00:53Z</time>
      </trkpt>
      <trkpt lat="45.13148" lon="5.61865">
        <ele>1617</ele>
        <time>2010-01-01T02:00:53Z</time>
      </trkpt>
      <trkpt lat="45.1315" lon="5.61878">
        <ele>1618</ele>
        <time>2010-01-01T02:00:57Z</time>
      </trkpt>
      <trkpt lat="45.13147" lon="5.61895">
        <ele>1618</ele>
        <time>2010-01-01T02:01:02Z</time>
      </trkpt>
      <trkpt lat="45.13141" lon="5.61903">
        <ele>1618</ele>
        <time>2010-01-01T02:01:05Z</time>
      </trkpt>
      <trkpt lat="45.1314" lon="5.61906">
        <ele>1618</ele>
        <time>2010-01-01T02:01:06Z</time>
      </trkpt>
      <trkpt lat="45.1314" lon="5.61907">
        <ele>1618</ele>
        <time>2010-01-01T02:01:06Z</time>
      </trkpt>
      <trkpt lat="45.13135" lon="5.61918">
        <ele>1618</ele>
        <time>2010-01-01T02:01:10Z</time>
      </trkpt>
      <trkpt lat="45.13131" lon="5.61924">
        <ele>1618</ele>
        <time>2010-01-01T02:01:12Z</time>
      </trkpt>
      <trkpt lat="45.13129" lon="5.61929">
        <ele>1618</ele>
        <time>2010-01-01T02:01:14Z</time>
      </trkpt>
      <trkpt lat="45.13129" lon="5.6193">
        <ele>1618</ele>
        <time>2010-01-01T02:01:14Z</time>
      </trkpt>
      <trkpt lat="45.13128" lon="5.61935">
        <ele>1618</ele>
        <time>2010-01-01T02:01:16Z</time>
      </trkpt>
      <trkpt lat="45.13127" lon="5.61941">
        <ele>1618</ele>
        <time>2010-01-01T02:01:17Z</time>
      </trkpt>
      <trkpt lat="45.13126" lon="5.61946">
        <ele>1619</ele>
        <time>2010-01-01T02:01:19Z</time>
      </trkpt>
      <trkpt lat="45.13126" lon="5.61964">
        <ele>1620</ele>
        <time>2010-01-01T02:01:24Z</time>
      </trkpt>
      <trkpt lat="45.13132" lon="5.61981">
        <ele>1621</ele>
        <time>2010-01-01T02:01:29Z</time>
      </trkpt>
      <trkpt lat="45.13139" lon="5.61998">
        <ele>1623</ele>
        <time>2010-01-01T02:01:35Z</time>
      </trkpt>
      <trkpt lat="45.13147" lon="5.62012">
        <ele>1625</ele>
        <time>2010-01-01T02:01:40Z</time>
      </trkpt>
      <trkpt lat="45.13158" lon="5.62029">
        <ele>1627</ele>
        <time>2010-01-01T02:01:47Z</time>
      </trkpt>
      <trkpt lat="45.13169" lon="5.62047">
        <ele>1629</ele>
        <time>2010-01-01T02:01:53Z</time>
      </trkpt>
      <trkpt lat="45.13178" lon="5.62062">
        <ele>1630</ele>
        <time>2010-01-01T02:01:59Z</time>
      </trkpt>
      <trkpt lat="45.13188" lon="5.62078">
        <ele>1631</ele>
        <time>2010-01-01T02:02:05Z</time>
      </trkpt>
      <trkpt lat="45.13196" lon="5.62091">
        <ele>1632</ele>
        <time>2010-01-01T02:02:10Z</time>
      </trkpt>
      <trkpt lat="45.13204" lon="5.62102">
        <ele>1634</ele>
        <time>2010-01-01T02:02:14Z</time>
      </trkpt>
      <trkpt lat="45.13205" lon="5.62105">
        <ele>1634</ele>
        <time>2010-01-01T02:02:15Z</time>
      </trkpt>
      <trkpt lat="45.13209" lon="5.62114">
        <ele>1635</ele>
        <time>2010-01-01T02:02:18Z</time>
      </trkpt>
      <trkpt lat="45.13218" lon="5.62127">
        <ele>1636</ele>
        <time>2010-01-01T02:02:23Z</time>
      </trkpt>
      <trkpt lat="45.13223" lon="5.62139">
        <ele>1637</ele>
        <time>2010-01-01T02:02:27Z</time>
      </trkpt>
      <trkpt lat="45.13232" lon="5.62147">
        <ele>1638</ele>
        <time>2010-01-01T02:02:31Z</time>
      </trkpt>
      <trkpt lat="45.13244" lon="5.62153">
        <ele>1638</ele>
        <time>2010-01-01T02:02:36Z</time>
      </trkpt>
      <trkpt lat="45.13255" lon="5.62157">
        <ele>1638</ele>
        <time>2010-01-01T02:02:41Z</time>
      </trkpt>
      <trkpt lat="45.13267" lon="5.62161">
        <ele>1637</ele>
        <time>2010-01-01T02:02:46Z</time>
      </trkpt>
      <trkpt lat="45.13277" lon="5.62168">
        <ele>1638</ele>
        <time>2010-01-01T02:02:51Z</time>
      </trkpt>
      <trkpt lat="45.13289" lon="5.62178">
        <ele>1639</ele>
        <time>2010-01-01T02:02:56Z</time>
      </trkpt>
      <trkpt lat="45.133" lon="5.6219">
        <ele>1640</ele>
        <time>2010-01-01T02:03:02Z</time>
      </trkpt>
      <trkpt lat="45.13309" lon="5.62201">
        <ele>1641</ele>
        <time>2010-01-01T02:03:06Z</time>
      </trkpt>
      <trkpt lat="45.13317" lon="5.62215">
        <ele>1643</ele>
        <time>2010-01-01T02:03:11Z</time>
      </trkpt>
      <trkpt lat="45.13322" lon="5.62223">
        <ele>1644</ele>
        <time>2010-01-01T02:03:14Z</time>
      </trkpt>
      <trkpt lat="45.13323" lon="5.62224">
        <ele>1644</ele>
        <time>2010-01-01T02:03:15Z</time>
      </trkpt>
      <trkpt lat="45.13333" lon="5.62238">
        <ele>1646</ele>
        <time>2010-01-01T02:03:21Z</time>
      </trkpt>
      <trkpt lat="45.1334" lon="5.62248">
        <ele>1647</ele>
        <time>2010-01-01T02:03:25Z</time>
      </trkpt>
      <trkpt lat="45.13347" lon="5.6226">
        <ele>1648</ele>
        <time>2010-01-01T02:03:29Z</time>
      </trkpt>
      <trkpt lat="45.13356" lon="5.62274">
        <ele>1649</ele>
        <time>2010-01-01T02:03:34Z</time>
      </trkpt>
      <trkpt lat="45.13362" lon="5.62291">
        <ele>1650</ele>
        <time>2010-01-01T02:03:39Z</time>
      </trkpt>
      <trkpt lat="45.13366" lon="5.623">
        <ele>1651</ele>
        <time>2010-01-01T02:03:43Z</time>
      </trkpt>
      <trkpt lat="45.13368" lon="5.62304">
        <ele>1651</ele>
        <time>2010-01-01T02:03:44Z</time>
      </trkpt>
      <trkpt lat="45.13377" lon="5.62319">
        <ele>1652</ele>
        <time>2010-01-01T02:03:49Z</time>
      </trkpt>
      <trkpt lat="45.13381" lon="5.62328">
        <ele>1653</ele>
        <time>2010-01-01T02:03:53Z</time>
      </trkpt>
      <trkpt lat="45.13384" lon="5.62345">
        <ele>1655</ele>
        <time>2010-01-01T02:03:58Z</time>
      </trkpt>
      <trkpt lat="45.13384" lon="5.62356">
        <ele>1657</ele>
        <time>2010-01-01T02:04:01Z</time>
      </trkpt>
      <trkpt lat="45.13384" lon="5.62359">
        <ele>1658</ele>
        <time>2010-01-01T02:04:01Z</time>
      </trkpt>
      <trkpt lat="45.13383" lon="5.62375">
        <ele>1661</ele>
        <time>2010-01-01T02:04:06Z</time>
      </trkpt>
      <trkpt lat="45.13386" lon="5.62392">
        <ele>1663</ele>
        <time>2010-01-01T02:04:11Z</time>
      </trkpt>
      <trkpt lat="45.13392" lon="5.62402">
        <ele>1664</ele>
        <time>2010-01-01T02:04:15Z</time>
      </trkpt>
      <trkpt lat="45.13397" lon="5.6241">
        <ele>1665</ele>
        <time>2010-01-01T02:04:18Z</time>
      </trkpt>
      <trkpt lat="45.13405" lon="5.62419">
        <ele>1665</ele>
        <time>2010-01-01T02:04:22Z</time>
      </trkpt>
      <trkpt lat="45.13415" lon="5.62428">
        <ele>1665</ele>
        <time>2010-01-01T02:04:27Z</time>
      </trkpt>
      <trkpt lat="45.13429" lon="5.62442">
        <ele>1666</ele>
        <time>2010-01-01T02:04:33Z</time>
      </trkpt>
      <trkpt lat="45.13438" lon="5.62451">
        <ele>1667</ele>
        <time>2010-01-01T02:04:38Z</time>
      </trkpt>
      <trkpt lat="45.1345" lon="5.6246">
        <ele>1668</ele>
        <time>2010-01-01T02:04:43Z</time>
      </trkpt>
      <trkpt lat="45.13459" lon="5.6247">
        <ele>1669</ele>
        <time>2010-01-01T02:04:48Z</time>
      </trkpt>
      <trkpt lat="45.13468" lon="5.6248">
        <ele>1670</ele>
        <time>2010-01-01T02:04:53Z</time>
      </trkpt>
      <trkpt lat="45.13476" lon="5.62487">
        <ele>1671</ele>
        <time>2010-01-01T02:04:56Z</time>
      </trkpt>
      <trkpt lat="45.13484" lon="5.62497">
        <ele>1672</ele>
        <time>2010-01-01T02:05:00Z</time>
      </trkpt>
      <trkpt lat="45.13492" lon="5.62507">
        <ele>1672</ele>
        <time>2010-01-01T02:05:05Z</time>
      </trkpt>
      <trkpt lat="45.13499" lon="5.62517">
        <ele>1673</ele>
        <time>2010-01-01T02:05:09Z</time>
      </trkpt>
      <trkpt lat="45.13507" lon="5.62531">
        <ele>1675</ele>
        <time>2010-01-01T02:05:14Z</time>
      </trkpt>
      <trkpt lat="45.13516" lon="5.62542">
        <ele>1677</ele>
        <time>2010-01-01T02:05:18Z</time>
      </trkpt>
      <trkpt lat="45.13524" lon="5.62556">
        <ele>1678</ele>
        <time>2010-01-01T02:05:24Z</time>
      </trkpt>
      <trkpt lat="45.13534" lon="5.62569">
        <ele>1680</ele>
        <time>2010-01-01T02:05:29Z</time>
      </trkpt>
      <trkpt lat="45.13546" lon="5.62582">
        <ele>1681</ele>
        <time>2010-01-01T02:05:35Z</time>
      </trkpt>
      <trkpt lat="45.13553" lon="5.62592">
        <ele>1681</ele>
        <time>2010-01-01T02:05:39Z</time>
      </trkpt>
      <trkpt lat="45.13558" lon="5.62602">
        <ele>1681</ele>
        <time>2010-01-01T02:05:42Z</time>
      </trkpt>
      <trkpt lat="45.13559" lon="5.62616">
        <ele>1681</ele>
        <time>2010-01-01T02:05:46Z</time>
      </trkpt>
      <trkpt lat="45.13561" lon="5.62632">
        <ele>1681</ele>
        <time>2010-01-01T02:05:51Z</time>
      </trkpt>
      <trkpt lat="45.1356" lon="5.62647">
        <ele>1682</ele>
        <time>2010-01-01T02:05:55Z</time>
      </trkpt>
      <trkpt lat="45.13558" lon="5.6266">
        <ele>1683</ele>
        <time>2010-01-01T02:05:59Z</time>
      </trkpt>
      <trkpt lat="45.13556" lon="5.62669">
        <ele>1684</ele>
        <time>2010-01-01T02:06:02Z</time>
      </trkpt>
      <trkpt lat="45.13556" lon="5.62671">
        <ele>1684</ele>
        <time>2010-01-01T02:06:02Z</time>
      </trkpt>
      <trkpt lat="45.13555" lon="5.62686">
        <ele>1684</ele>
        <time>2010-01-01T02:06:06Z</time>
      </trkpt>
      <trkpt lat="45.13553" lon="5.62702">
        <ele>1684</ele>
        <time>2010-01-01T02:06:11Z</time>
      </trkpt>
      <trkpt lat="45.13553" lon="5.62717">
        <ele>1684</ele>
        <time>2010-01-01T02:06:15Z</time>
      </trkpt>
      <trkpt lat="45.13551" lon="5.62733">
        <ele>1685</ele>
        <time>2010-01-01T02:06:20Z</time>
      </trkpt>
      <trkpt lat="45.13548" lon="5.62745">
        <ele>1685</ele>
        <time>2010-01-01T02:06:23Z</time>
      </trkpt>
      <trkpt lat="45.13543" lon="5.62759">
        <ele>1687</ele>
        <time>2010-01-01T02:06:28Z</time>
      </trkpt>
      <trkpt lat="45.13539" lon="5.62774">
        <ele>1688</ele>
        <time>2010-01-01T02:06:32Z</time>
      </trkpt>
      <trkpt lat="45.13535" lon="5.62791">
        <ele>1690</ele>
        <time>2010-01-01T02:06:37Z</time>
      </trkpt>
      <trkpt lat="45.13532" lon="5.62809">
        <ele>1691</ele>
        <time>2010-01-01T02:06:43Z</time>
      </trkpt>
      <trkpt lat="45.13531" lon="5.62828">
        <ele>1692</ele>
        <time>2010-01-01T02:06:48Z</time>
      </trkpt>
      <trkpt lat="45.13526" lon="5.62845">
        <ele>1695</ele>
        <time>2010-01-01T02:06:53Z</time>
      </trkpt>
      <trkpt lat="45.13523" lon="5.6286">
        <ele>1698</ele>
        <time>2010-01-01T02:06:57Z</time>
      </trkpt>
      <trkpt lat="45.1352" lon="5.62878">
        <ele>1701</ele>
        <time>2010-01-01T02:07:03Z</time>
      </trkpt>
      <trkpt lat="45.13517" lon="5.6289">
        <ele>1704</ele>
        <time>2010-01-01T02:07:07Z</time>
      </trkpt>
      <trkpt lat="45.13512" lon="5.62906">
        <ele>1707</ele>
        <time>2010-01-01T02:07:11Z</time>
      </trkpt>
      <trkpt lat="45.1351" lon="5.62921">
        <ele>1710</ele>
        <time>2010-01-01T02:07:16Z</time>
      </trkpt>
      <trkpt lat="45.13508" lon="5.62934">
        <ele>1711</ele>
        <time>2010-01-01T02:07:19Z</time>
      </trkpt>
      <trkpt lat="45.13507" lon="5.62943">
        <ele>1712</ele>
        <time>2010-01-01T02:07:22Z</time>
      </trkpt>
      <trkpt lat="45.13507" lon="5.62945">
        <ele>1712</ele>
        <time>2010-01-01T02:07:22Z</time>
      </trkpt>
      <trkpt lat="45.13506" lon="5.62961">
        <ele>1713</ele>
        <time>2010-01-01T02:07:27Z</time>
      </trkpt>
      <trkpt lat="45.13508" lon="5.62979">
        <ele>1714</ele>
        <time>2010-01-01T02:07:32Z</time>
      </trkpt>
      <trkpt lat="45.13511" lon="5.62994">
        <ele>1714</ele>
        <time>2010-01-01T02:07:37Z</time>
      </trkpt>
      <trkpt lat="45.13512" lon="5.6301">
        <ele>1716</ele>
        <time>2010-01-01T02:07:41Z</time>
      </trkpt>
      <trkpt lat="45.13515" lon="5.63023">
        <ele>1717</ele>
        <time>2010-01-01T02:07:45Z</time>
      </trkpt>
      <trkpt lat="45.13523" lon="5.63039">
        <ele>1718</ele>
        <time>2010-01-01T02:07:51Z</time>
      </trkpt>
      <trkpt lat="45.13534" lon="5.63051">
        <ele>1718</ele>
        <time>2010-01-01T02:07:56Z</time>
      </trkpt>
      <trkpt lat="45.13547" lon="5.63061">
        <ele>1718</ele>
        <time>2010-01-01T02:08:02Z</time>
      </trkpt>
      <trkpt lat="45.13556" lon="5.63069">
        <ele>1718</ele>
        <time>2010-01-01T02:08:06Z</time>
      </trkpt>
      <trkpt lat="45.13567" lon="5.63078">
        <ele>1719</ele>
        <time>2010-01-01T02:08:11Z</time>
      </trkpt>
      <trkpt lat="45.13578" lon="5.63087">
        <ele>1720</ele>
        <time>2010-01-01T02:08:16Z</time>
      </trkpt>
      <trkpt lat="45.13588" lon="5.63095">
        <ele>1721</ele>
        <time>2010-01-01T02:08:21Z</time>
      </trkpt>
      <trkpt lat="45.13598" lon="5.63103">
        <ele>1721</ele>
        <time>2010-01-01T02:08:26Z</time>
      </trkpt>
      <trkpt lat="45.13609" lon="5.63112">
        <ele>1722</ele>
        <time>2010-01-01T02:08:30Z</time>
      </trkpt>
      <trkpt lat="45.1362" lon="5.6312">
        <ele>1723</ele>
        <time>2010-01-01T02:08:35Z</time>
      </trkpt>
      <trkpt lat="45.13631" lon="5.63129">
        <ele>1723</ele>
        <time>2010-01-01T02:08:41Z</time>
      </trkpt>
      <trkpt lat="45.13638" lon="5.63135">
        <ele>1724</ele>
        <time>2010-01-01T02:08:44Z</time>
      </trkpt>
      <trkpt lat="45.13648" lon="5.63143">
        <ele>1725</ele>
        <time>2010-01-01T02:08:48Z</time>
      </trkpt>
      <trkpt lat="45.13655" lon="5.63152">
        <ele>1726</ele>
        <time>2010-01-01T02:08:52Z</time>
      </trkpt>
      <trkpt lat="45.13663" lon="5.63161">
        <ele>1728</ele>
        <time>2010-01-01T02:08:56Z</time>
      </trkpt>
      <trkpt lat="45.13671" lon="5.63172">
        <ele>1730</ele>
        <time>2010-01-01T02:09:01Z</time>
      </trkpt>
      <trkpt lat="45.13681" lon="5.63186">
        <ele>1733</ele>
        <time>2010-01-01T02:09:06Z</time>
      </trkpt>
      <trkpt lat="45.1369" lon="5.63202">
        <ele>1736</ele>
        <time>2010-01-01T02:09:12Z</time>
      </trkpt>
      <trkpt lat="45.13696" lon="5.63218">
        <ele>1740</ele>
        <time>2010-01-01T02:09:17Z</time>
      </trkpt>
      <trkpt lat="45.13702" lon="5.63231">
        <ele>1743</ele>
        <time>2010-01-01T02:09:22Z</time>
      </trkpt>
      <trkpt lat="45.1371" lon="5.63241">
        <ele>1744</ele>
        <time>2010-01-01T02:09:26Z</time>
      </trkpt>
      <trkpt lat="45.13718" lon="5.63253">
        <ele>1745</ele>
        <time>2010-01-01T02:09:31Z</time>
      </trkpt>
      <trkpt lat="45.13726" lon="5.63264">
        <ele>1747</ele>
        <time>2010-01-01T02:09:35Z</time>
      </trkpt>
      <trkpt lat="45.13734" lon="5.63277">
        <ele>1748</ele>
        <time>2010-01-01T02:09:40Z</time>
      </trkpt>
      <trkpt lat="45.13742" lon="5.63287">
        <ele>1749</ele>
        <time>2010-01-01T02:09:44Z</time>
      </trkpt>
      <trkpt lat="45.13754" lon="5.63299">
        <ele>1751</ele>
        <time>2010-01-01T02:09:50Z</time>
      </trkpt>
      <trkpt lat="45.13762" lon="5.63307">
        <ele>1752</ele>
        <time>2010-01-01T02:09:54Z</time>
      </trkpt>
      <trkpt lat="45.1377" lon="5.63316">
        <ele>1753</ele>
        <time>2010-01-01T02:09:58Z</time>
      </trkpt>
      <trkpt lat="45.13781" lon="5.63327">
        <ele>1755</ele>
        <time>2010-01-01T02:10:04Z</time>
      </trkpt>
      <trkpt lat="45.13787" lon="5.63332">
        <ele>1755</ele>
        <time>2010-01-01T02:10:06Z</time>
      </trkpt>
      <trkpt lat="45.13789" lon="5.63333">
        <ele>1755</ele>
        <time>2010-01-01T02:10:07Z</time>
      </trkpt>
      <trkpt lat="45.13796" lon="5.63342">
        <ele>1755</ele>
        <time>2010-01-01T02:10:11Z</time>
      </trkpt>
      <trkpt lat="45.13803" lon="5.63351">
        <ele>1756</ele>
        <time>2010-01-01T02:10:15Z</time>
      </trkpt>
      <trkpt lat="45.13812" lon="5.63361">
        <ele>1756</ele>
        <time>2010-01-01T02:10:19Z</time>
      </trkpt>
      <trkpt lat="45.13822" lon="5.63369">
        <ele>1757</ele>
        <time>2010-01-01T02:10:24Z</time>
      </trkpt>
      <trkpt lat="45.13833" lon="5.63376">
        <ele>1757</ele>
        <time>2010-01-01T02:10:29Z</time>
      </trkpt>
      <trkpt lat="45.13844" lon="5.63385">
        <ele>1758</ele>
        <time>2010-01-01T02:10:34Z</time>
      </trkpt>
      <trkpt lat="45.13853" lon="5.63393">
        <ele>1759</ele>
        <time>2010-01-01T02:10:38Z</time>
      </trkpt>
      <trkpt lat="45.13861" lon="5.63401">
        <ele>1760</ele>
        <time>2010-01-01T02:10:42Z</time>
      </trkpt>
      <trkpt lat="45.13871" lon="5.6341">
        <ele>1761</ele>
        <time>2010-01-01T02:10:47Z</time>
      </trkpt>
      <trkpt lat="45.13877" lon="5.63415">
        <ele>1762</ele>
        <time>2010-01-01T02:10:49Z</time>
      </trkpt>
      <trkpt lat="45.13879" lon="5.63418">
        <ele>1762</ele>
        <time>2010-01-01T02:10:51Z</time>
      </trkpt>
      <trkpt lat="45.13889" lon="5.6343">
        <ele>1763</ele>
        <time>2010-01-01T02:10:56Z</time>
      </trkpt>
      <trkpt lat="45.13899" lon="5.63439">
        <ele>1764</ele>
        <time>2010-01-01T02:11:01Z</time>
      </trkpt>
      <trkpt lat="45.13908" lon="5.6345">
        <ele>1765</ele>
        <time>2010-01-01T02:11:06Z</time>
      </trkpt>
      <trkpt lat="45.13918" lon="5.6346">
        <ele>1767</ele>
        <time>2010-01-01T02:11:10Z</time>
      </trkpt>
      <trkpt lat="45.13929" lon="5.63466">
        <ele>1768</ele>
        <time>2010-01-01T02:11:15Z</time>
      </trkpt>
      <trkpt lat="45.13938" lon="5.63472">
        <ele>1769</ele>
        <time>2010-01-01T02:11:19Z</time>
      </trkpt>
      <trkpt lat="45.13948" lon="5.63477">
        <ele>1769</ele>
        <time>2010-01-01T02:11:23Z</time>
      </trkpt>
      <trkpt lat="45.13957" lon="5.63483">
        <ele>1770</ele>
        <time>2010-01-01T02:11:27Z</time>
      </trkpt>
      <trkpt lat="45.13965" lon="5.63489">
        <ele>1771</ele>
        <time>2010-01-01T02:11:31Z</time>
      </trkpt>
      <trkpt lat="45.13973" lon="5.63494">
        <ele>1772</ele>
        <time>2010-01-01T02:11:34Z</time>
      </trkpt>
      <trkpt lat="45.13985" lon="5.63505">
        <ele>1774</ele>
        <time>2010-01-01T02:11:40Z</time>
      </trkpt>
      <trkpt lat="45.13991" lon="5.63518">
        <ele>1775</ele>
        <time>2010-01-01T02:11:44Z</time>
      </trkpt>
      <trkpt lat="45.13996" lon="5.63531">
        <ele>1777</ele>
        <time>2010-01-01T02:11:49Z</time>
      </trkpt>
      <trkpt lat="45.14007" lon="5.63539">
        <ele>1778</ele>
        <time>2010-01-01T02:11:53Z</time>
      </trkpt>
      <trkpt lat="45.14017" lon="5.63544">
        <ele>1779</ele>
        <time>2010-01-01T02:11:58Z</time>
      </trkpt>
      <trkpt lat="45.14027" lon="5.63552">
        <ele>1780</ele>
        <time>2010-01-01T02:12:02Z</time>
      </trkpt>
      <trkpt lat="45.1404" lon="5.63563">
        <ele>1781</ele>
        <time>2010-01-01T02:12:09Z</time>
      </trkpt>
      <trkpt lat="45.1405" lon="5.63572">
        <ele>1783</ele>
        <time>2010-01-01T02:12:13Z</time>
      </trkpt>
      <trkpt lat="45.1406" lon="5.63581">
        <ele>1784</ele>
        <time>2010-01-01T02:12:18Z</time>
      </trkpt>
      <trkpt lat="45.14074" lon="5.63592">
        <ele>1781</ele>
        <time>2010-01-01T02:12:24Z</time>
      </trkpt>
      <trkpt lat="45.14084" lon="5.63601">
        <ele>1779</ele>
        <time>2010-01-01T02:12:29Z</time>
      </trkpt>
      <trkpt lat="45.14092" lon="5.63609">
        <ele>1777</ele>
        <time>2010-01-01T02:12:33Z</time>
      </trkpt>
      <trkpt lat="45.14101" lon="5.63615">
        <ele>1777</ele>
        <time>2010-01-01T02:12:37Z</time>
      </trkpt>
      <trkpt lat="45.14109" lon="5.63616">
        <ele>1779</ele>
        <time>2010-01-01T02:12:40Z</time>
      </trkpt>
      <trkpt lat="45.14118" lon="5.63619">
        <ele>1781</ele>
        <time>2010-01-01T02:12:44Z</time>
      </trkpt>
      <trkpt lat="45.14129" lon="5.63623">
        <ele>1783</ele>
        <time>2010-01-01T02:12:48Z</time>
      </trkpt>
      <trkpt lat="45.14136" lon="5.63627">
        <ele>1786</ele>
        <time>2010-01-01T02:12:51Z</time>
      </trkpt>
      <trkpt lat="45.14147" lon="5.63634">
        <ele>1790</ele>
        <time>2010-01-01T02:12:56Z</time>
      </trkpt>
      <trkpt lat="45.14157" lon="5.63638">
        <ele>1795</ele>
        <time>2010-01-01T02:13:01Z</time>
      </trkpt>
      <trkpt lat="45.14167" lon="5.63641">
        <ele>1799</ele>
        <time>2010-01-01T02:13:05Z</time>
      </trkpt>
      <trkpt lat="45.14179" lon="5.63646">
        <ele>1801</ele>
        <time>2010-01-01T02:13:10Z</time>
      </trkpt>
      <trkpt lat="45.1419" lon="5.63651">
        <ele>1802</ele>
        <time>2010-01-01T02:13:14Z</time>
      </trkpt>
      <trkpt lat="45.142" lon="5.63654">
        <ele>1803</ele>
        <time>2010-01-01T02:13:18Z</time>
      </trkpt>
      <trkpt lat="45.14211" lon="5.63658">
        <ele>1805</ele>
        <time>2010-01-01T02:13:23Z</time>
      </trkpt>
      <trkpt lat="45.14226" lon="5.63665">
        <ele>1808</ele>
        <time>2010-01-01T02:13:29Z</time>
      </trkpt>
      <trkpt lat="45.14236" lon="5.63672">
        <ele>1810</ele>
        <time>2010-01-01T02:13:34Z</time>
      </trkpt>
      <trkpt lat="45.14245" lon="5.63677">
        <ele>1812</ele>
        <time>2010-01-01T02:13:37Z</time>
      </trkpt>
      <trkpt lat="45.14254" lon="5.63683">
        <ele>1814</ele>
        <time>2010-01-01T02:13:42Z</time>
      </trkpt>
      <trkpt lat="45.14264" lon="5.63689">
        <ele>1814</ele>
        <time>2010-01-01T02:13:46Z</time>
      </trkpt>
      <trkpt lat="45.14274" lon="5.63696">
        <ele>1815</ele>
        <time>2010-01-01T02:13:50Z</time>
      </trkpt>
      <trkpt lat="45.14284" lon="5.63703">
        <ele>1817</ele>
        <time>2010-01-01T02:13:55Z</time>
      </trkpt>
      <trkpt lat="45.14294" lon="5.6371">
        <ele>1818</ele>
        <time>2010-01-01T02:13:59Z</time>
      </trkpt>
      <trkpt lat="45.14303" lon="5.63715">
        <ele>1819</ele>
        <time>2010-01-01T02:14:03Z</time>
      </trkpt>
      <trkpt lat="45.14311" lon="5.63721">
        <ele>1820</ele>
        <time>2010-01-01T02:14:07Z</time>
      </trkpt>
      <trkpt lat="45.14323" lon="5.63728">
        <ele>1821</ele>
        <time>2010-01-01T02:14:12Z</time>
      </trkpt>
      <trkpt lat="45.1433" lon="5.63729">
        <ele>1820</ele>
        <time>2010-01-01T02:14:15Z</time>
      </trkpt>
      <trkpt lat="45.14334" lon="5.6373">
        <ele>1820</ele>
        <time>2010-01-01T02:14:16Z</time>
      </trkpt>
      <trkpt lat="45.14338" lon="5.63731">
        <ele>1821</ele>
        <time>2010-01-01T02:14:18Z</time>
      </trkpt>
      <trkpt lat="45.14343" lon="5.63733">
        <ele>1821</ele>
        <time>2010-01-01T02:14:20Z</time>
      </trkpt>
      <trkpt lat="45.14348" lon="5.63737">
        <ele>1821</ele>
        <time>2010-01-01T02:14:22Z</time>
      </trkpt>
      <trkpt lat="45.1436" lon="5.63741">
        <ele>1822</ele>
        <time>2010-01-01T02:14:27Z</time>
      </trkpt>
      <trkpt lat="45.14368" lon="5.63747">
        <ele>1823</ele>
        <time>2010-01-01T02:14:31Z</time>
      </trkpt>
      <trkpt lat="45.1438" lon="5.63755">
        <ele>1823</ele>
        <time>2010-01-01T02:14:36Z</time>
      </trkpt>
      <trkpt lat="45.14392" lon="5.63764">
        <ele>1822</ele>
        <time>2010-01-01T02:14:41Z</time>
      </trkpt>
      <trkpt lat="45.14398" lon="5.63769">
        <ele>1822</ele>
        <time>2010-01-01T02:14:44Z</time>
      </trkpt>
      <trkpt lat="45.14408" lon="5.63776">
        <ele>1823</ele>
        <time>2010-01-01T02:14:49Z</time>
      </trkpt>
      <trkpt lat="45.14416" lon="5.63784">
        <ele>1824</ele>
        <time>2010-01-01T02:14:53Z</time>
      </trkpt>
      <trkpt lat="45.14426" lon="5.63791">
        <ele>1825</ele>
        <time>2010-01-01T02:14:57Z</time>
      </trkpt>
      <trkpt lat="45.14428" lon="5.63792">
        <ele>1825</ele>
        <time>2010-01-01T02:14:58Z</time>
      </trkpt>
      <trkpt lat="45.14438" lon="5.63799">
        <ele>1827</ele>
        <time>2010-01-01T02:15:02Z</time>
      </trkpt>
      <trkpt lat="45.14444" lon="5.63805">
        <ele>1828</ele>
        <time>2010-01-01T02:15:05Z</time>
      </trkpt>
      <trkpt lat="45.14447" lon="5.63806">
        <ele>1829</ele>
        <time>2010-01-01T02:15:06Z</time>
      </trkpt>
      <trkpt lat="45.14449" lon="5.63808">
        <ele>1829</ele>
        <time>2010-01-01T02:15:08Z</time>
      </trkpt>
      <trkpt lat="45.14454" lon="5.63811">
        <ele>1830</ele>
        <time>2010-01-01T02:15:10Z</time>
      </trkpt>
      <trkpt lat="45.14461" lon="5.63816">
        <ele>1831</ele>
        <time>2010-01-01T02:15:13Z</time>
      </trkpt>
      <trkpt lat="45.14464" lon="5.63817">
        <ele>1832</ele>
        <time>2010-01-01T02:15:14Z</time>
      </trkpt>
      <trkpt lat="45.14465" lon="5.63818">
        <ele>1832</ele>
        <time>2010-01-01T02:15:15Z</time>
      </trkpt>
      <trkpt lat="45.14469" lon="5.63822">
        <ele>1833</ele>
        <time>2010-01-01T02:15:16Z</time>
      </trkpt>
      <trkpt lat="45.14469" lon="5.63822">
        <ele>1833</ele>
        <time>2010-01-01T02:15:17Z</time>
      </trkpt>
      <trkpt lat="45.14473" lon="5.63823">
        <ele>1834</ele>
        <time>2010-01-01T02:15:18Z</time>
      </trkpt>
      <trkpt lat="45.14481" lon="5.63824">
        <ele>1834</ele>
        <time>2010-01-01T02:15:21Z</time>
      </trkpt>
      <trkpt lat="45.14491" lon="5.63824">
        <ele>1835</ele>
        <time>2010-01-01T02:15:25Z</time>
      </trkpt>
      <trkpt lat="45.14497" lon="5.63826">
        <ele>1836</ele>
        <time>2010-01-01T02:15:28Z</time>
      </trkpt>
      <trkpt lat="45.14504" lon="5.63826">
        <ele>1837</ele>
        <time>2010-01-01T02:15:30Z</time>
      </trkpt>
      <trkpt lat="45.14511" lon="5.63827">
        <ele>1839</ele>
        <time>2010-01-01T02:15:33Z</time>
      </trkpt>
      <trkpt lat="45.14521" lon="5.6383">
        <ele>1842</ele>
        <time>2010-01-01T02:15:38Z</time>
      </trkpt>
      <trkpt lat="45.14528" lon="5.63832">
        <ele>1843</ele>
        <time>2010-01-01T02:15:41Z</time>
      </trkpt>
      <trkpt lat="45.14537" lon="5.6383">
        <ele>1845</ele>
        <time>2010-01-01T02:15:44Z</time>
      </trkpt>
      <trkpt lat="45.14544" lon="5.6383">
        <ele>1846</ele>
        <time>2010-01-01T02:15:47Z</time>
      </trkpt>
      <trkpt lat="45.14548" lon="5.6383">
        <ele>1847</ele>
        <time>2010-01-01T02:15:49Z</time>
      </trkpt>
      <trkpt lat="45.1455" lon="5.6383">
        <ele>1847</ele>
        <time>2010-01-01T02:15:49Z</time>
      </trkpt>
      <trkpt lat="45.14558" lon="5.63829">
        <ele>1849</ele>
        <time>2010-01-01T02:15:52Z</time>
      </trkpt>
      <trkpt lat="45.14565" lon="5.63827">
        <ele>1849</ele>
        <time>2010-01-01T02:15:55Z</time>
      </trkpt>
      <trkpt lat="45.14576" lon="5.63825">
        <ele>1851</ele>
        <time>2010-01-01T02:16:00Z</time>
      </trkpt>
      <trkpt lat="45.14585" lon="5.63826">
        <ele>1853</ele>
        <time>2010-01-01T02:16:03Z</time>
      </trkpt>
      <trkpt lat="45.1459" lon="5.63825">
        <ele>1853</ele>
        <time>2010-01-01T02:16:05Z</time>
      </trkpt>
      <trkpt lat="45.14597" lon="5.63823">
        <ele>1853</ele>
        <time>2010-01-01T02:16:08Z</time>
      </trkpt>
      <trkpt lat="45.14598" lon="5.63823">
        <ele>1853</ele>
        <time>2010-01-01T02:16:09Z</time>
      </trkpt>
      <trkpt lat="45.14601" lon="5.63826">
        <ele>1854</ele>
        <time>2010-01-01T02:16:10Z</time>
      </trkpt>
      <trkpt lat="45.14606" lon="5.6383">
        <ele>1856</ele>
        <time>2010-01-01T02:16:13Z</time>
      </trkpt>
      <trkpt lat="45.14607" lon="5.6383">
        <ele>1856</ele>
        <time>2010-01-01T02:16:13Z</time>
      </trkpt>
      <trkpt lat="45.14614" lon="5.6383">
        <ele>1856</ele>
        <time>2010-01-01T02:16:16Z</time>
      </trkpt>
      <trkpt lat="45.14615" lon="5.63829">
        <ele>1856</ele>
        <time>2010-01-01T02:16:16Z</time>
      </trkpt>
      <trkpt lat="45.14621" lon="5.63831">
        <ele>1857</ele>
        <time>2010-01-01T02:16:19Z</time>
      </trkpt>
      <trkpt lat="45.14627" lon="5.63837">
        <ele>1858</ele>
        <time>2010-01-01T02:16:22Z</time>
      </trkpt>
      <trkpt lat="45.14631" lon="5.63838">
        <ele>1859</ele>
        <time>2010-01-01T02:16:23Z</time>
      </trkpt>
      <trkpt lat="45.14632" lon="5.63839">
        <ele>1859</ele>
        <time>2010-01-01T02:16:24Z</time>
      </trkpt>
      <trkpt lat="45.14637" lon="5.63842">
        <ele>1859</ele>
        <time>2010-01-01T02:16:26Z</time>
      </trkpt>
      <trkpt lat="45.14638" lon="5.63842">
        <ele>1859</ele>
        <time>2010-01-01T02:16:26Z</time>
      </trkpt>
      <trkpt lat="45.14639" lon="5.63844">
        <ele>1859</ele>
        <time>2010-01-01T02:16:27Z</time>
      </trkpt>
      <trkpt lat="45.14644" lon="5.63845">
        <ele>1860</ele>
        <time>2010-01-01T02:16:29Z</time>
      </trkpt>
      <trkpt lat="45.14644" lon="5.63846">
        <ele>1860</ele>
        <time>2010-01-01T02:16:29Z</time>
      </trkpt>
      <trkpt lat="45.1465" lon="5.63845">
        <ele>1861</ele>
        <time>2010-01-01T02:16:31Z</time>
      </trkpt>
      <trkpt lat="45.14652" lon="5.63846">
        <ele>1861</ele>
        <time>2010-01-01T02:16:32Z</time>
      </trkpt>
      <trkpt lat="45.14658" lon="5.63847">
        <ele>1861</ele>
        <time>2010-01-01T02:16:34Z</time>
      </trkpt>
      <trkpt lat="45.14664" lon="5.63851">
        <ele>1862</ele>
        <time>2010-01-01T02:16:37Z</time>
      </trkpt>
      <trkpt lat="45.14667" lon="5.63853">
        <ele>1863</ele>
        <time>2010-01-01T02:16:39Z</time>
      </trkpt>
      <trkpt lat="45.14674" lon="5.63854">
        <ele>1862</ele>
        <time>2010-01-01T02:16:41Z</time>
      </trkpt>
      <trkpt lat="45.14683" lon="5.63859">
        <ele>1862</ele>
        <time>2010-01-01T02:16:45Z</time>
      </trkpt>
      <trkpt lat="45.1469" lon="5.63862">
        <ele>1862</ele>
        <time>2010-01-01T02:16:48Z</time>
      </trkpt>
      <trkpt lat="45.14697" lon="5.63866">
        <ele>1862</ele>
        <time>2010-01-01T02:16:51Z</time>
      </trkpt>
      <trkpt lat="45.147" lon="5.63867">
        <ele>1862</ele>
        <time>2010-01-01T02:16:52Z</time>
      </trkpt>
      <trkpt lat="45.14704" lon="5.63868">
        <ele>1862</ele>
        <time>2010-01-01T02:16:54Z</time>
      </trkpt>
      <trkpt lat="45.14706" lon="5.63868">
        <ele>1862</ele>
        <time>2010-01-01T02:16:55Z</time>
      </trkpt>
      <trkpt lat="45.14711" lon="5.63872">
        <ele>1862</ele>
        <time>2010-01-01T02:16:57Z</time>
      </trkpt>
      <trkpt lat="45.14766" lon="5.63914">
        <ele>1871</ele>
        <time>2010-01-01T02:17:22Z</time>
      </trkpt>
      <trkpt lat="45.14814" lon="5.63923">
        <ele>1865</ele>
        <time>2010-01-01T02:17:41Z</time>
      </trkpt>
      <trkpt lat="45.1487" lon="5.63838">
        <ele>1849</ele>
        <time>2010-01-01T02:18:14Z</time>
      </trkpt>
      <trkpt lat="45.14876" lon="5.63831">
        <ele>1848</ele>
        <time>2010-01-01T02:18:17Z</time>
      </trkpt>
      <trkpt lat="45.14882" lon="5.63823">
        <ele>1846</ele>
        <time>2010-01-01T02:18:21Z</time>
      </trkpt>
      <trkpt lat="45.14893" lon="5.63813">
        <ele>1845</ele>
        <time>2010-01-01T02:18:26Z</time>
      </trkpt>
      <trkpt lat="45.14905" lon="5.63805">
        <ele>1845</ele>
        <time>2010-01-01T02:18:31Z</time>
      </trkpt>
      <trkpt lat="45.14916" lon="5.63799">
        <ele>1844</ele>
        <time>2010-01-01T02:18:36Z</time>
      </trkpt>
      <trkpt lat="45.14932" lon="5.63785">
        <ele>1841</ele>
        <time>2010-01-01T02:18:43Z</time>
      </trkpt>
      <trkpt lat="45.14943" lon="5.63774">
        <ele>1840</ele>
        <time>2010-01-01T02:18:49Z</time>
      </trkpt>
      <trkpt lat="45.14956" lon="5.63767">
        <ele>1839</ele>
        <time>2010-01-01T02:18:54Z</time>
      </trkpt>
      <trkpt lat="45.14965" lon="5.63763">
        <ele>1839</ele>
        <time>2010-01-01T02:18:58Z</time>
      </trkpt>
      <trkpt lat="45.14979" lon="5.63755">
        <ele>1839</ele>
        <time>2010-01-01T02:19:04Z</time>
      </trkpt>
      <trkpt lat="45.14994" lon="5.63751">
        <ele>1839</ele>
        <time>2010-01-01T02:19:10Z</time>
      </trkpt>
      <trkpt lat="45.15004" lon="5.63749">
        <ele>1838</ele>
        <time>2010-01-01T02:19:14Z</time>
      </trkpt>
      <trkpt lat="45.15017" lon="5.63746">
        <ele>1833</ele>
        <time>2010-01-01T02:19:20Z</time>
      </trkpt>
      <trkpt lat="45.15027" lon="5.63741">
        <ele>1830</ele>
        <time>2010-01-01T02:19:24Z</time>
      </trkpt>
      <trkpt lat="45.15035" lon="5.63732">
        <ele>1826</ele>
        <time>2010-01-01T02:19:28Z</time>
      </trkpt>
      <trkpt lat="45.15048" lon="5.63729">
        <ele>1823</ele>
        <time>2010-01-01T02:19:33Z</time>
      </trkpt>
      <trkpt lat="45.15056" lon="5.63724">
        <ele>1820</ele>
        <time>2010-01-01T02:19:37Z</time>
      </trkpt>
      <trkpt lat="45.15058" lon="5.63724">
        <ele>1820</ele>
        <time>2010-01-01T02:19:38Z</time>
      </trkpt>
      <trkpt lat="45.15069" lon="5.63725">
        <ele>1818</ele>
        <time>2010-01-01T02:19:42Z</time>
      </trkpt>
      <trkpt lat="45.1508" lon="5.63723">
        <ele>1815</ele>
        <time>2010-01-01T02:19:46Z</time>
      </trkpt>
      <trkpt lat="45.15088" lon="5.63723">
        <ele>1811</ele>
        <time>2010-01-01T02:19:49Z</time>
      </trkpt>
      <trkpt lat="45.1509" lon="5.63722">
        <ele>1810</ele>
        <time>2010-01-01T02:19:50Z</time>
      </trkpt>
      <trkpt lat="45.15092" lon="5.63721">
        <ele>1808</ele>
        <time>2010-01-01T02:19:51Z</time>
      </trkpt>
      <trkpt lat="45.15095" lon="5.6372">
        <ele>1807</ele>
        <time>2010-01-01T02:19:52Z</time>
      </trkpt>
      <trkpt lat="45.15096" lon="5.6372">
        <ele>1806</ele>
        <time>2010-01-01T02:19:53Z</time>
      </trkpt>
      <trkpt lat="45.15099" lon="5.63723">
        <ele>1804</ele>
        <time>2010-01-01T02:19:54Z</time>
      </trkpt>
      <trkpt lat="45.15103" lon="5.63722">
        <ele>1801</ele>
        <time>2010-01-01T02:19:56Z</time>
      </trkpt>
      <trkpt lat="45.15104" lon="5.63722">
        <ele>1800</ele>
        <time>2010-01-01T02:19:56Z</time>
      </trkpt>
      <trkpt lat="45.15105" lon="5.63722">
        <ele>1799</ele>
        <time>2010-01-01T02:19:57Z</time>
      </trkpt>
      <trkpt lat="45.15108" lon="5.63721">
        <ele>1798</ele>
        <time>2010-01-01T02:19:58Z</time>
      </trkpt>
      <trkpt lat="45.15117" lon="5.63715">
        <ele>1793</ele>
        <time>2010-01-01T02:20:02Z</time>
      </trkpt>
      <trkpt lat="45.15128" lon="5.63717">
        <ele>1785</ele>
        <time>2010-01-01T02:20:06Z</time>
      </trkpt>
      <trkpt lat="45.15142" lon="5.63714">
        <ele>1777</ele>
        <time>2010-01-01T02:20:12Z</time>
      </trkpt>
      <trkpt lat="45.15153" lon="5.63704">
        <ele>1773</ele>
        <time>2010-01-01T02:20:17Z</time>
      </trkpt>
      <trkpt lat="45.15162" lon="5.63697">
        <ele>1771</ele>
        <time>2010-01-01T02:20:22Z</time>
      </trkpt>
      <trkpt lat="45.15171" lon="5.63693">
        <ele>1766</ele>
        <time>2010-01-01T02:20:25Z</time>
      </trkpt>
      <trkpt lat="45.15172" lon="5.63689">
        <ele>1766</ele>
        <time>2010-01-01T02:20:26Z</time>
      </trkpt>
      <trkpt lat="45.15173" lon="5.63689">
        <ele>1766</ele>
        <time>2010-01-01T02:20:27Z</time>
      </trkpt>
      <trkpt lat="45.1518" lon="5.63685">
        <ele>1761</ele>
        <time>2010-01-01T02:20:30Z</time>
      </trkpt>
      <trkpt lat="45.15182" lon="5.63679">
        <ele>1762</ele>
        <time>2010-01-01T02:20:32Z</time>
      </trkpt>
      <trkpt lat="45.15182" lon="5.63672">
        <ele>1765</ele>
        <time>2010-01-01T02:20:34Z</time>
      </trkpt>
      <trkpt lat="45.15182" lon="5.63668">
        <ele>1768</ele>
        <time>2010-01-01T02:20:35Z</time>
      </trkpt>
      <trkpt lat="45.15182" lon="5.63668">
        <ele>1768</ele>
        <time>2010-01-01T02:20:35Z</time>
      </trkpt>
      <trkpt lat="45.15183" lon="5.63667">
        <ele>1768</ele>
        <time>2010-01-01T02:20:35Z</time>
      </trkpt>
      <trkpt lat="45.15184" lon="5.63663">
        <ele>1767</ele>
        <time>2010-01-01T02:20:36Z</time>
      </trkpt>
      <trkpt lat="45.15186" lon="5.63662">
        <ele>1765</ele>
        <time>2010-01-01T02:20:37Z</time>
      </trkpt>
      <trkpt lat="45.15187" lon="5.63659">
        <ele>1763</ele>
        <time>2010-01-01T02:20:38Z</time>
      </trkpt>
      <trkpt lat="45.1519" lon="5.63659">
        <ele>1761</ele>
        <time>2010-01-01T02:20:39Z</time>
      </trkpt>
      <trkpt lat="45.15193" lon="5.63658">
        <ele>1758</ele>
        <time>2010-01-01T02:20:40Z</time>
      </trkpt>
      <trkpt lat="45.15195" lon="5.63651">
        <ele>1756</ele>
        <time>2010-01-01T02:20:42Z</time>
      </trkpt>
      <trkpt lat="45.15196" lon="5.63652">
        <ele>1755</ele>
        <time>2010-01-01T02:20:43Z</time>
      </trkpt>
      <trkpt lat="45.15198" lon="5.63651">
        <ele>1753</ele>
        <time>2010-01-01T02:20:44Z</time>
      </trkpt>
      <trkpt lat="45.15203" lon="5.63643">
        <ele>1748</ele>
        <time>2010-01-01T02:20:47Z</time>
      </trkpt>
      <trkpt lat="45.15207" lon="5.63641">
        <ele>1745</ele>
        <time>2010-01-01T02:20:49Z</time>
      </trkpt>
      <trkpt lat="45.15211" lon="5.63636">
        <ele>1742</ele>
        <time>2010-01-01T02:20:51Z</time>
      </trkpt>
      <trkpt lat="45.15213" lon="5.63635">
        <ele>1741</ele>
        <time>2010-01-01T02:20:51Z</time>
      </trkpt>
      <trkpt lat="45.15217" lon="5.63627">
        <ele>1738</ele>
        <time>2010-01-01T02:20:54Z</time>
      </trkpt>
      <trkpt lat="45.1522" lon="5.63629">
        <ele>1736</ele>
        <time>2010-01-01T02:20:56Z</time>
      </trkpt>
      <trkpt lat="45.15221" lon="5.63625">
        <ele>1736</ele>
        <time>2010-01-01T02:20:57Z</time>
      </trkpt>
      <trkpt lat="45.15221" lon="5.63624">
        <ele>1735</ele>
        <time>2010-01-01T02:20:57Z</time>
      </trkpt>
      <trkpt lat="45.15223" lon="5.6362">
        <ele>1734</ele>
        <time>2010-01-01T02:20:59Z</time>
      </trkpt>
      <trkpt lat="45.15228" lon="5.63622">
        <ele>1731</ele>
        <time>2010-01-01T02:21:01Z</time>
      </trkpt>
      <trkpt lat="45.15234" lon="5.63619">
        <ele>1727</ele>
        <time>2010-01-01T02:21:04Z</time>
      </trkpt>
      <trkpt lat="45.15237" lon="5.63621">
        <ele>1725</ele>
        <time>2010-01-01T02:21:05Z</time>
      </trkpt>
      <trkpt lat="45.15237" lon="5.63622">
        <ele>1725</ele>
        <time>2010-01-01T02:21:05Z</time>
      </trkpt>
      <trkpt lat="45.1524" lon="5.63622">
        <ele>1723</ele>
        <time>2010-01-01T02:21:06Z</time>
      </trkpt>
      <trkpt lat="45.15241" lon="5.63623">
        <ele>1722</ele>
        <time>2010-01-01T02:21:07Z</time>
      </trkpt>
      <trkpt lat="45.15242" lon="5.63625">
        <ele>1721</ele>
        <time>2010-01-01T02:21:08Z</time>
      </trkpt>
      <trkpt lat="45.15244" lon="5.63626">
        <ele>1719</ele>
        <time>2010-01-01T02:21:08Z</time>
      </trkpt>
      <trkpt lat="45.15246" lon="5.63628">
        <ele>1718</ele>
        <time>2010-01-01T02:21:09Z</time>
      </trkpt>
      <trkpt lat="45.15246" lon="5.63625">
        <ele>1718</ele>
        <time>2010-01-01T02:21:10Z</time>
      </trkpt>
      <trkpt lat="45.15251" lon="5.63624">
        <ele>1715</ele>
        <time>2010-01-01T02:21:12Z</time>
      </trkpt>
      <trkpt lat="45.15252" lon="5.63622">
        <ele>1715</ele>
        <time>2010-01-01T02:21:12Z</time>
      </trkpt>
      <trkpt lat="45.1526" lon="5.63619">
        <ele>1710</ele>
        <time>2010-01-01T02:21:16Z</time>
      </trkpt>
      <trkpt lat="45.15266" lon="5.63616">
        <ele>1707</ele>
        <time>2010-01-01T02:21:18Z</time>
      </trkpt>
      <trkpt lat="45.15269" lon="5.63606">
        <ele>1708</ele>
        <time>2010-01-01T02:21:21Z</time>
      </trkpt>
      <trkpt lat="45.1527" lon="5.63604">
        <ele>1708</ele>
        <time>2010-01-01T02:21:22Z</time>
      </trkpt>
      <trkpt lat="45.15273" lon="5.63592">
        <ele>1710</ele>
        <time>2010-01-01T02:21:26Z</time>
      </trkpt>
      <trkpt lat="45.15277" lon="5.63589">
        <ele>1708</ele>
        <time>2010-01-01T02:21:27Z</time>
      </trkpt>
      <trkpt lat="45.15282" lon="5.63589">
        <ele>1706</ele>
        <time>2010-01-01T02:21:30Z</time>
      </trkpt>
      <trkpt lat="45.15292" lon="5.63589">
        <ele>1700</ele>
        <time>2010-01-01T02:21:34Z</time>
      </trkpt>
      <trkpt lat="45.15294" lon="5.63587">
        <ele>1700</ele>
        <time>2010-01-01T02:21:35Z</time>
      </trkpt>
      <trkpt lat="45.15301" lon="5.63581">
        <ele>1697</ele>
        <time>2010-01-01T02:21:38Z</time>
      </trkpt>
      <trkpt lat="45.15307" lon="5.63573">
        <ele>1694</ele>
        <time>2010-01-01T02:21:41Z</time>
      </trkpt>
      <trkpt lat="45.1531" lon="5.63572">
        <ele>1692</ele>
        <time>2010-01-01T02:21:42Z</time>
      </trkpt>
      <trkpt lat="45.15313" lon="5.63569">
        <ele>1690</ele>
        <time>2010-01-01T02:21:44Z</time>
      </trkpt>
      <trkpt lat="45.15321" lon="5.63563">
        <ele>1686</ele>
        <time>2010-01-01T02:21:47Z</time>
      </trkpt>
      <trkpt lat="45.15327" lon="5.63558">
        <ele>1683</ele>
        <time>2010-01-01T02:21:50Z</time>
      </trkpt>
      <trkpt lat="45.15331" lon="5.63549">
        <ele>1682</ele>
        <time>2010-01-01T02:21:53Z</time>
      </trkpt>
      <trkpt lat="45.15331" lon="5.63544">
        <ele>1682</ele>
        <time>2010-01-01T02:21:54Z</time>
      </trkpt>
      <trkpt lat="45.15332" lon="5.63544">
        <ele>1681</ele>
        <time>2010-01-01T02:21:55Z</time>
      </trkpt>
      <trkpt lat="45.15334" lon="5.6354">
        <ele>1681</ele>
        <time>2010-01-01T02:21:56Z</time>
      </trkpt>
      <trkpt lat="45.15331" lon="5.63544">
        <ele>1682</ele>
        <time>2010-01-01T02:21:58Z</time>
      </trkpt>
      <trkpt lat="45.15332" lon="5.63543">
        <ele>1682</ele>
        <time>2010-01-01T02:21:58Z</time>
      </trkpt>
      <trkpt lat="45.1533" lon="5.63543">
        <ele>1682</ele>
        <time>2010-01-01T02:21:59Z</time>
      </trkpt>
      <trkpt lat="45.15329" lon="5.63543">
        <ele>1683</ele>
        <time>2010-01-01T02:21:59Z</time>
      </trkpt>
      <trkpt lat="45.15331" lon="5.63543">
        <ele>1682</ele>
        <time>2010-01-01T02:22:00Z</time>
      </trkpt>
      <trkpt lat="45.15338" lon="5.63542">
        <ele>1680</ele>
        <time>2010-01-01T02:22:03Z</time>
      </trkpt>
      <trkpt lat="45.15345" lon="5.63538">
        <ele>1677</ele>
        <time>2010-01-01T02:22:06Z</time>
      </trkpt>
      <trkpt lat="45.15347" lon="5.63536">
        <ele>1677</ele>
        <time>2010-01-01T02:22:07Z</time>
      </trkpt>
      <trkpt lat="45.15361" lon="5.63528">
        <ele>1673</ele>
        <time>2010-01-01T02:22:13Z</time>
      </trkpt>
      <trkpt lat="45.15369" lon="5.63519">
        <ele>1671</ele>
        <time>2010-01-01T02:22:17Z</time>
      </trkpt>
      <trkpt lat="45.15381" lon="5.63506">
        <ele>1669</ele>
        <time>2010-01-01T02:22:23Z</time>
      </trkpt>
      <trkpt lat="45.15391" lon="5.63501">
        <ele>1667</ele>
        <time>2010-01-01T02:22:27Z</time>
      </trkpt>
      <trkpt lat="45.15403" lon="5.63499">
        <ele>1664</ele>
        <time>2010-01-01T02:22:32Z</time>
      </trkpt>
      <trkpt lat="45.15419" lon="5.63497">
        <ele>1660</ele>
        <time>2010-01-01T02:22:38Z</time>
      </trkpt>
      <trkpt lat="45.15434" lon="5.63489">
        <ele>1657</ele>
        <time>2010-01-01T02:22:45Z</time>
      </trkpt>
      <trkpt lat="45.1545" lon="5.63476">
        <ele>1653</ele>
        <time>2010-01-01T02:22:52Z</time>
      </trkpt>
      <trkpt lat="45.15464" lon="5.63469">
        <ele>1650</ele>
        <time>2010-01-01T02:22:58Z</time>
      </trkpt>
      <trkpt lat="45.15476" lon="5.63462">
        <ele>1647</ele>
        <time>2010-01-01T02:23:03Z</time>
      </trkpt>
      <trkpt lat="45.15489" lon="5.63458">
        <ele>1645</ele>
        <time>2010-01-01T02:23:09Z</time>
      </trkpt>
      <trkpt lat="45.15505" lon="5.6346">
        <ele>1642</ele>
        <time>2010-01-01T02:23:15Z</time>
      </trkpt>
      <trkpt lat="45.15523" lon="5.63459">
        <ele>1637</ele>
        <time>2010-01-01T02:23:22Z</time>
      </trkpt>
      <trkpt lat="45.1554" lon="5.63458">
        <ele>1632</ele>
        <time>2010-01-01T02:23:29Z</time>
      </trkpt>
      <trkpt lat="45.15555" lon="5.63461">
        <ele>1628</ele>
        <time>2010-01-01T02:23:35Z</time>
      </trkpt>
      <trkpt lat="45.15571" lon="5.63456">
        <ele>1623</ele>
        <time>2010-01-01T02:23:42Z</time>
      </trkpt>
      <trkpt lat="45.15593" lon="5.63459">
        <ele>1617</ele>
        <time>2010-01-01T02:23:51Z</time>
      </trkpt>
      <trkpt lat="45.15612" lon="5.63467">
        <ele>1613</ele>
        <time>2010-01-01T02:23:59Z</time>
      </trkpt>
      <trkpt lat="45.15616" lon="5.63471">
        <ele>1612</ele>
        <time>2010-01-01T02:24:01Z</time>
      </trkpt>
      <trkpt lat="45.15626" lon="5.63481">
        <ele>1612</ele>
        <time>2010-01-01T02:24:06Z</time>
      </trkpt>
      <trkpt lat="45.15632" lon="5.63487">
        <ele>1611</ele>
        <time>2010-01-01T02:24:08Z</time>
      </trkpt>
      <trkpt lat="45.15634" lon="5.6349">
        <ele>1611</ele>
        <time>2010-01-01T02:24:10Z</time>
      </trkpt>
      <trkpt lat="45.15636" lon="5.63504">
        <ele>1613</ele>
        <time>2010-01-01T02:24:14Z</time>
      </trkpt>
      <trkpt lat="45.15629" lon="5.6351">
        <ele>1614</ele>
        <time>2010-01-01T02:24:17Z</time>
      </trkpt>
      <trkpt lat="45.15622" lon="5.63507">
        <ele>1616</ele>
        <time>2010-01-01T02:24:20Z</time>
      </trkpt>
      <trkpt lat="45.15614" lon="5.63505">
        <ele>1618</ele>
        <time>2010-01-01T02:24:23Z</time>
      </trkpt>
      <trkpt lat="45.15594" lon="5.63502">
        <ele>1624</ele>
        <time>2010-01-01T02:24:31Z</time>
      </trkpt>
      <trkpt lat="45.15581" lon="5.63507">
        <ele>1627</ele>
        <time>2010-01-01T02:24:36Z</time>
      </trkpt>
      <trkpt lat="45.15571" lon="5.63524">
        <ele>1628</ele>
        <time>2010-01-01T02:24:43Z</time>
      </trkpt>
      <trkpt lat="45.15574" lon="5.63537">
        <ele>1626</ele>
        <time>2010-01-01T02:24:47Z</time>
      </trkpt>
      <trkpt lat="45.15585" lon="5.63553">
        <ele>1622</ele>
        <time>2010-01-01T02:24:53Z</time>
      </trkpt>
      <trkpt lat="45.15596" lon="5.63565">
        <ele>1618</ele>
        <time>2010-01-01T02:24:58Z</time>
      </trkpt>
      <trkpt lat="45.15599" lon="5.63568">
        <ele>1616</ele>
        <time>2010-01-01T02:25:00Z</time>
      </trkpt>
      <trkpt lat="45.15601" lon="5.63572">
        <ele>1616</ele>
        <time>2010-01-01T02:25:02Z</time>
      </trkpt>
      <trkpt lat="45.15602" lon="5.63585">
        <ele>1614</ele>
        <time>2010-01-01T02:25:05Z</time>
      </trkpt>
      <trkpt lat="45.15602" lon="5.63589">
        <ele>1613</ele>
        <time>2010-01-01T02:25:06Z</time>
      </trkpt>
      <trkpt lat="45.15605" lon="5.63611">
        <ele>1610</ele>
        <time>2010-01-01T02:25:12Z</time>
      </trkpt>
      <trkpt lat="45.15607" lon="5.63631">
        <ele>1606</ele>
        <time>2010-01-01T02:25:18Z</time>
      </trkpt>
      <trkpt lat="45.15615" lon="5.63646">
        <ele>1602</ele>
        <time>2010-01-01T02:25:24Z</time>
      </trkpt>
      <trkpt lat="45.15631" lon="5.63655">
        <ele>1596</ele>
        <time>2010-01-01T02:25:31Z</time>
      </trkpt>
      <trkpt lat="45.15643" lon="5.63653">
        <ele>1593</ele>
        <time>2010-01-01T02:25:35Z</time>
      </trkpt>
      <trkpt lat="45.1565" lon="5.63645">
        <ele>1592</ele>
        <time>2010-01-01T02:25:39Z</time>
      </trkpt>
      <trkpt lat="45.1566" lon="5.63644">
        <ele>1589</ele>
        <time>2010-01-01T02:25:43Z</time>
      </trkpt>
      <trkpt lat="45.15672" lon="5.63647">
        <ele>1585</ele>
        <time>2010-01-01T02:25:48Z</time>
      </trkpt>
      <trkpt lat="45.15683" lon="5.63644">
        <ele>1582</ele>
        <time>2010-01-01T02:25:53Z</time>
      </trkpt>
      <trkpt lat="45.15694" lon="5.63652">
        <ele>1578</ele>
        <time>2010-01-01T02:25:57Z</time>
      </trkpt>
      <trkpt lat="45.15701" lon="5.63665">
        <ele>1575</ele>
        <time>2010-01-01T02:26:02Z</time>
      </trkpt>
      <trkpt lat="45.1571" lon="5.63678">
        <ele>1571</ele>
        <time>2010-01-01T02:26:07Z</time>
      </trkpt>
      <trkpt lat="45.15722" lon="5.63683">
        <ele>1567</ele>
        <time>2010-01-01T02:26:12Z</time>
      </trkpt>
      <trkpt lat="45.15732" lon="5.63685">
        <ele>1564</ele>
        <time>2010-01-01T02:26:16Z</time>
      </trkpt>
      <trkpt lat="45.15737" lon="5.63687">
        <ele>1562</ele>
        <time>2010-01-01T02:26:18Z</time>
      </trkpt>
      <trkpt lat="45.15743" lon="5.63688">
        <ele>1561</ele>
        <time>2010-01-01T02:26:21Z</time>
      </trkpt>
      <trkpt lat="45.15756" lon="5.63691">
        <ele>1557</ele>
        <time>2010-01-01T02:26:26Z</time>
      </trkpt>
      <trkpt lat="45.15764" lon="5.63689">
        <ele>1556</ele>
        <time>2010-01-01T02:26:29Z</time>
      </trkpt>
      <trkpt lat="45.15766" lon="5.6369">
        <ele>1556</ele>
        <time>2010-01-01T02:26:30Z</time>
      </trkpt>
      <trkpt lat="45.15776" lon="5.63694">
        <ele>1553</ele>
        <time>2010-01-01T02:26:34Z</time>
      </trkpt>
      <trkpt lat="45.15781" lon="5.63695">
        <ele>1552</ele>
        <time>2010-01-01T02:26:36Z</time>
      </trkpt>
      <trkpt lat="45.15786" lon="5.63693">
        <ele>1551</ele>
        <time>2010-01-01T02:26:38Z</time>
      </trkpt>
      <trkpt lat="45.15796" lon="5.63698">
        <ele>1548</ele>
        <time>2010-01-01T02:26:43Z</time>
      </trkpt>
      <trkpt lat="45.15806" lon="5.63696">
        <ele>1546</ele>
        <time>2010-01-01T02:26:47Z</time>
      </trkpt>
      <trkpt lat="45.15815" lon="5.63695">
        <ele>1545</ele>
        <time>2010-01-01T02:26:50Z</time>
      </trkpt>
      <trkpt lat="45.15826" lon="5.63694">
        <ele>1542</ele>
        <time>2010-01-01T02:26:55Z</time>
      </trkpt>
      <trkpt lat="45.15841" lon="5.63695">
        <ele>1539</ele>
        <time>2010-01-01T02:27:01Z</time>
      </trkpt>
      <trkpt lat="45.15854" lon="5.63698">
        <ele>1535</ele>
        <time>2010-01-01T02:27:06Z</time>
      </trkpt>
      <trkpt lat="45.15867" lon="5.63703">
        <ele>1531</ele>
        <time>2010-01-01T02:27:11Z</time>
      </trkpt>
      <trkpt lat="45.15878" lon="5.6371">
        <ele>1527</ele>
        <time>2010-01-01T02:27:16Z</time>
      </trkpt>
      <trkpt lat="45.15891" lon="5.63713">
        <ele>1523</ele>
        <time>2010-01-01T02:27:21Z</time>
      </trkpt>
      <trkpt lat="45.15907" lon="5.63715">
        <ele>1519</ele>
        <time>2010-01-01T02:27:28Z</time>
      </trkpt>
      <trkpt lat="45.1592" lon="5.63715">
        <ele>1515</ele>
        <time>2010-01-01T02:27:33Z</time>
      </trkpt>
      <trkpt lat="45.15934" lon="5.63719">
        <ele>1511</ele>
        <time>2010-01-01T02:27:38Z</time>
      </trkpt>
      <trkpt lat="45.15948" lon="5.63722">
        <ele>1507</ele>
        <time>2010-01-01T02:27:44Z</time>
      </trkpt>
      <trkpt lat="45.15961" lon="5.63726">
        <ele>1503</ele>
        <time>2010-01-01T02:27:50Z</time>
      </trkpt>
      <trkpt lat="45.15972" lon="5.63725">
        <ele>1500</ele>
        <time>2010-01-01T02:27:54Z</time>
      </trkpt>
      <trkpt lat="45.15983" lon="5.6372">
        <ele>1497</ele>
        <time>2010-01-01T02:27:59Z</time>
      </trkpt>
      <trkpt lat="45.15986" lon="5.63717">
        <ele>1497</ele>
        <time>2010-01-01T02:28:00Z</time>
      </trkpt>
      <trkpt lat="45.1599" lon="5.63706">
        <ele>1496</ele>
        <time>2010-01-01T02:28:04Z</time>
      </trkpt>
      <trkpt lat="45.15985" lon="5.63691">
        <ele>1498</ele>
        <time>2010-01-01T02:28:08Z</time>
      </trkpt>
      <trkpt lat="45.15984" lon="5.63678">
        <ele>1499</ele>
        <time>2010-01-01T02:28:12Z</time>
      </trkpt>
      <trkpt lat="45.15986" lon="5.63677">
        <ele>1499</ele>
        <time>2010-01-01T02:28:13Z</time>
      </trkpt>
      <trkpt lat="45.15987" lon="5.63676">
        <ele>1498</ele>
        <time>2010-01-01T02:28:13Z</time>
      </trkpt>
      <trkpt lat="45.15989" lon="5.63682">
        <ele>1498</ele>
        <time>2010-01-01T02:28:15Z</time>
      </trkpt>
      <trkpt lat="45.1599" lon="5.63683">
        <ele>1497</ele>
        <time>2010-01-01T02:28:16Z</time>
      </trkpt>
      <trkpt lat="45.16" lon="5.63692">
        <ele>1494</ele>
        <time>2010-01-01T02:28:20Z</time>
      </trkpt>
      <trkpt lat="45.16013" lon="5.63698">
        <ele>1486</ele>
        <time>2010-01-01T02:28:26Z</time>
      </trkpt>
      <trkpt lat="45.16029" lon="5.63703">
        <ele>1477</ele>
        <time>2010-01-01T02:28:32Z</time>
      </trkpt>
      <trkpt lat="45.16037" lon="5.63702">
        <ele>1472</ele>
        <time>2010-01-01T02:28:36Z</time>
      </trkpt>
      <trkpt lat="45.1604" lon="5.63713">
        <ele>1471</ele>
        <time>2010-01-01T02:28:39Z</time>
      </trkpt>
      <trkpt lat="45.16033" lon="5.63721">
        <ele>1475</ele>
        <time>2010-01-01T02:28:43Z</time>
      </trkpt>
      <trkpt lat="45.16031" lon="5.63726">
        <ele>1477</ele>
        <time>2010-01-01T02:28:44Z</time>
      </trkpt>
      <trkpt lat="45.1603" lon="5.63726">
        <ele>1477</ele>
        <time>2010-01-01T02:28:45Z</time>
      </trkpt>
      <trkpt lat="45.1603" lon="5.63728">
        <ele>1477</ele>
        <time>2010-01-01T02:28:45Z</time>
      </trkpt>
      <trkpt lat="45.16031" lon="5.63729">
        <ele>1477</ele>
        <time>2010-01-01T02:28:46Z</time>
      </trkpt>
      <trkpt lat="45.16038" lon="5.63729">
        <ele>1473</ele>
        <time>2010-01-01T02:28:49Z</time>
      </trkpt>
      <trkpt lat="45.16045" lon="5.63734">
        <ele>1470</ele>
        <time>2010-01-01T02:28:52Z</time>
      </trkpt>
      <trkpt lat="45.16047" lon="5.63738">
        <ele>1469</ele>
        <time>2010-01-01T02:28:53Z</time>
      </trkpt>
      <trkpt lat="45.1606" lon="5.63754">
        <ele>1464</ele>
        <time>2010-01-01T02:29:00Z</time>
      </trkpt>
      <trkpt lat="45.16063" lon="5.63754">
        <ele>1462</ele>
        <time>2010-01-01T02:29:01Z</time>
      </trkpt>
      <trkpt lat="45.16065" lon="5.63762">
        <ele>1461</ele>
        <time>2010-01-01T02:29:03Z</time>
      </trkpt>
      <trkpt lat="45.16062" lon="5.63771">
        <ele>1462</ele>
        <time>2010-01-01T02:29:06Z</time>
      </trkpt>
      <trkpt lat="45.16062" lon="5.63771">
        <ele>1462</ele>
        <time>2010-01-01T02:29:06Z</time>
      </trkpt>
      <trkpt lat="45.16068" lon="5.63776">
        <ele>1459</ele>
        <time>2010-01-01T02:29:09Z</time>
      </trkpt>
      <trkpt lat="45.1607" lon="5.63777">
        <ele>1458</ele>
        <time>2010-01-01T02:29:10Z</time>
      </trkpt>
      <trkpt lat="45.16073" lon="5.6378">
        <ele>1456</ele>
        <time>2010-01-01T02:29:12Z</time>
      </trkpt>
      <trkpt lat="45.16075" lon="5.63782">
        <ele>1455</ele>
        <time>2010-01-01T02:29:13Z</time>
      </trkpt>
      <trkpt lat="45.16079" lon="5.63784">
        <ele>1454</ele>
        <time>2010-01-01T02:29:14Z</time>
      </trkpt>
      <trkpt lat="45.16082" lon="5.63787">
        <ele>1453</ele>
        <time>2010-01-01T02:29:16Z</time>
      </trkpt>
      <trkpt lat="45.16083" lon="5.6379">
        <ele>1452</ele>
        <time>2010-01-01T02:29:17Z</time>
      </trkpt>
      <trkpt lat="45.16083" lon="5.63791">
        <ele>1452</ele>
        <time>2010-01-01T02:29:17Z</time>
      </trkpt>
      <trkpt lat="45.16082" lon="5.63793">
        <ele>1452</ele>
        <time>2010-01-01T02:29:18Z</time>
      </trkpt>
      <trkpt lat="45.16084" lon="5.63795">
        <ele>1452</ele>
        <time>2010-01-01T02:29:18Z</time>
      </trkpt>
      <trkpt lat="45.16089" lon="5.63797">
        <ele>1449</ele>
        <time>2010-01-01T02:29:20Z</time>
      </trkpt>
      <trkpt lat="45.16093" lon="5.63799">
        <ele>1446</ele>
        <time>2010-01-01T02:29:22Z</time>
      </trkpt>
      <trkpt lat="45.16094" lon="5.63799">
        <ele>1446</ele>
        <time>2010-01-01T02:29:22Z</time>
      </trkpt>
      <trkpt lat="45.16095" lon="5.63802">
        <ele>1446</ele>
        <time>2010-01-01T02:29:23Z</time>
      </trkpt>
      <trkpt lat="45.16096" lon="5.63805">
        <ele>1445</ele>
        <time>2010-01-01T02:29:25Z</time>
      </trkpt>
      <trkpt lat="45.16101" lon="5.63811">
        <ele>1442</ele>
        <time>2010-01-01T02:29:27Z</time>
      </trkpt>
      <trkpt lat="45.16102" lon="5.63812">
        <ele>1442</ele>
        <time>2010-01-01T02:29:28Z</time>
      </trkpt>
      <trkpt lat="45.16104" lon="5.63816">
        <ele>1441</ele>
        <time>2010-01-01T02:29:29Z</time>
      </trkpt>
      <trkpt lat="45.16108" lon="5.6382">
        <ele>1439</ele>
        <time>2010-01-01T02:29:31Z</time>
      </trkpt>
      <trkpt lat="45.16112" lon="5.63827">
        <ele>1438</ele>
        <time>2010-01-01T02:29:33Z</time>
      </trkpt>
      <trkpt lat="45.16113" lon="5.63827">
        <ele>1437</ele>
        <time>2010-01-01T02:29:34Z</time>
      </trkpt>
      <trkpt lat="45.16116" lon="5.63826">
        <ele>1436</ele>
        <time>2010-01-01T02:29:35Z</time>
      </trkpt>
      <trkpt lat="45.16118" lon="5.63824">
        <ele>1435</ele>
        <time>2010-01-01T02:29:36Z</time>
      </trkpt>
      <trkpt lat="45.16119" lon="5.63818">
        <ele>1434</ele>
        <time>2010-01-01T02:29:38Z</time>
      </trkpt>
      <trkpt lat="45.1612" lon="5.63815">
        <ele>1433</ele>
        <time>2010-01-01T02:29:39Z</time>
      </trkpt>
      <trkpt lat="45.16119" lon="5.63813">
        <ele>1433</ele>
        <time>2010-01-01T02:29:39Z</time>
      </trkpt>
      <trkpt lat="45.1612" lon="5.6381">
        <ele>1433</ele>
        <time>2010-01-01T02:29:40Z</time>
      </trkpt>
      <trkpt lat="45.16117" lon="5.63799">
        <ele>1434</ele>
        <time>2010-01-01T02:29:43Z</time>
      </trkpt>
      <trkpt lat="45.16113" lon="5.63788">
        <ele>1435</ele>
        <time>2010-01-01T02:29:47Z</time>
      </trkpt>
      <trkpt lat="45.16112" lon="5.63782">
        <ele>1435</ele>
        <time>2010-01-01T02:29:49Z</time>
      </trkpt>
      <trkpt lat="45.16113" lon="5.63773">
        <ele>1434</ele>
        <time>2010-01-01T02:29:51Z</time>
      </trkpt>
      <trkpt lat="45.16097" lon="5.63683">
        <ele>1434</ele>
        <time>2010-01-01T02:30:17Z</time>
      </trkpt>
      <trkpt lat="45.16081" lon="5.63649">
        <ele>1438</ele>
        <time>2010-01-01T02:30:29Z</time>
      </trkpt>
      <trkpt lat="45.16072" lon="5.63549">
        <ele>1431</ele>
        <time>2010-01-01T02:30:57Z</time>
      </trkpt>
      <trkpt lat="45.16017" lon="5.63378">
        <ele>1436</ele>
        <time>2010-01-01T02:31:50Z</time>
      </trkpt>
      <trkpt lat="45.15979" lon="5.6333">
        <ele>1428</ele>
        <time>2010-01-01T02:32:11Z</time>
      </trkpt>
      <trkpt lat="45.15913" lon="5.6331">
        <ele>1427</ele>
        <time>2010-01-01T02:32:38Z</time>
      </trkpt>
      <trkpt lat="45.15898" lon="5.63278">
        <ele>1423</ele>
        <time>2010-01-01T02:32:49Z</time>
      </trkpt>
      <trkpt lat="45.15915" lon="5.63253">
        <ele>1407</ele>
        <time>2010-01-01T02:32:58Z</time>
      </trkpt>
      <trkpt lat="45.15975" lon="5.63225">
        <ele>1388</ele>
        <time>2010-01-01T02:33:24Z</time>
      </trkpt>
      <trkpt lat="45.16198" lon="5.63106">
        <ele>1295</ele>
        <time>2010-01-01T02:34:59Z</time>
      </trkpt>
      <trkpt lat="45.16249" lon="5.63072">
        <ele>1277</ele>
        <time>2010-01-01T02:35:22Z</time>
      </trkpt>
      <trkpt lat="45.16318" lon="5.63095">
        <ele>1271</ele>
        <time>2010-01-01T02:35:50Z</time>
      </trkpt>
      <trkpt lat="45.16395" lon="5.63157">
        <ele>1265</ele>
        <time>2010-01-01T02:36:26Z</time>
      </trkpt>
      <trkpt lat="45.16481" lon="5.63241">
        <ele>1253</ele>
        <time>2010-01-01T02:37:08Z</time>
      </trkpt>
      <trkpt lat="45.16583" lon="5.63281">
        <ele>1228</ele>
        <time>2010-01-01T02:37:50Z</time>
      </trkpt>
      <trkpt lat="45.16592" lon="5.63284">
        <ele>1227</ele>
        <time>2010-01-01T02:37:54Z</time>
      </trkpt>
      <trkpt lat="45.16599" lon="5.63287">
        <ele>1226</ele>
        <time>2010-01-01T02:37:56Z</time>
      </trkpt>
      <trkpt lat="45.166" lon="5.63288">
        <ele>1226</ele>
        <time>2010-01-01T02:37:57Z</time>
      </trkpt>
      <trkpt lat="45.16606" lon="5.63289">
        <ele>1225</ele>
        <time>2010-01-01T02:37:59Z</time>
      </trkpt>
      <trkpt lat="45.16617" lon="5.63291">
        <ele>1224</ele>
        <time>2010-01-01T02:38:04Z</time>
      </trkpt>
      <trkpt lat="45.16619" lon="5.63291">
        <ele>1224</ele>
        <time>2010-01-01T02:38:05Z</time>
      </trkpt>
      <trkpt lat="45.16636" lon="5.63296">
        <ele>1222</ele>
        <time>2010-01-01T02:38:11Z</time>
      </trkpt>
      <trkpt lat="45.16652" lon="5.63304">
        <ele>1221</ele>
        <time>2010-01-01T02:38:18Z</time>
      </trkpt>
      <trkpt lat="45.16661" lon="5.63309">
        <ele>1221</ele>
        <time>2010-01-01T02:38:22Z</time>
      </trkpt>
      <trkpt lat="45.16675" lon="5.63316">
        <ele>1220</ele>
        <time>2010-01-01T02:38:28Z</time>
      </trkpt>
      <trkpt lat="45.16692" lon="5.63321">
        <ele>1220</ele>
        <time>2010-01-01T02:38:35Z</time>
      </trkpt>
      <trkpt lat="45.16707" lon="5.63326">
        <ele>1219</ele>
        <time>2010-01-01T02:38:41Z</time>
      </trkpt>
      <trkpt lat="45.1672" lon="5.63331">
        <ele>1219</ele>
        <time>2010-01-01T02:38:47Z</time>
      </trkpt>
      <trkpt lat="45.16735" lon="5.63335">
        <ele>1219</ele>
        <time>2010-01-01T02:38:53Z</time>
      </trkpt>
      <trkpt lat="45.1675" lon="5.63341">
        <ele>1218</ele>
        <time>2010-01-01T02:38:59Z</time>
      </trkpt>
      <trkpt lat="45.16768" lon="5.63348">
        <ele>1217</ele>
        <time>2010-01-01T02:39:07Z</time>
      </trkpt>
      <trkpt lat="45.16787" lon="5.63356">
        <ele>1215</ele>
        <time>2010-01-01T02:39:14Z</time>
      </trkpt>
      <trkpt lat="45.1679" lon="5.63357">
        <ele>1215</ele>
        <time>2010-01-01T02:39:16Z</time>
      </trkpt>
      <trkpt lat="45.16804" lon="5.6336">
        <ele>1214</ele>
        <time>2010-01-01T02:39:21Z</time>
      </trkpt>
      <trkpt lat="45.16818" lon="5.63362">
        <ele>1212</ele>
        <time>2010-01-01T02:39:27Z</time>
      </trkpt>
      <trkpt lat="45.16831" lon="5.63349">
        <ele>1210</ele>
        <time>2010-01-01T02:39:33Z</time>
      </trkpt>
      <trkpt lat="45.1684" lon="5.63329">
        <ele>1207</ele>
        <time>2010-01-01T02:39:40Z</time>
      </trkpt>
      <trkpt lat="45.16844" lon="5.63308">
        <ele>1203</ele>
        <time>2010-01-01T02:39:46Z</time>
      </trkpt>
      <trkpt lat="45.16852" lon="5.63288">
        <ele>1198</ele>
        <time>2010-01-01T02:39:52Z</time>
      </trkpt>
      <trkpt lat="45.16861" lon="5.63265">
        <ele>1193</ele>
        <time>2010-01-01T02:40:00Z</time>
      </trkpt>
      <trkpt lat="45.16868" lon="5.63238">
        <ele>1187</ele>
        <time>2010-01-01T02:40:08Z</time>
      </trkpt>
      <trkpt lat="45.16875" lon="5.63212">
        <ele>1183</ele>
        <time>2010-01-01T02:40:16Z</time>
      </trkpt>
      <trkpt lat="45.16884" lon="5.63184">
        <ele>1179</ele>
        <time>2010-01-01T02:40:25Z</time>
      </trkpt>
      <trkpt lat="45.16891" lon="5.63155">
        <ele>1176</ele>
        <time>2010-01-01T02:40:33Z</time>
      </trkpt>
      <trkpt lat="45.16898" lon="5.63131">
        <ele>1175</ele>
        <time>2010-01-01T02:40:41Z</time>
      </trkpt>
      <trkpt lat="45.169" lon="5.63125">
        <ele>1174</ele>
        <time>2010-01-01T02:40:42Z</time>
      </trkpt>
      <trkpt lat="45.16908" lon="5.63099">
        <ele>1173</ele>
        <time>2010-01-01T02:40:50Z</time>
      </trkpt>
      <trkpt lat="45.16912" lon="5.63088">
        <ele>1172</ele>
        <time>2010-01-01T02:40:54Z</time>
      </trkpt>
      <trkpt lat="45.16917" lon="5.63069">
        <ele>1171</ele>
        <time>2010-01-01T02:41:00Z</time>
      </trkpt>
      <trkpt lat="45.16919" lon="5.63058">
        <ele>1171</ele>
        <time>2010-01-01T02:41:03Z</time>
      </trkpt>
      <trkpt lat="45.1692" lon="5.63052">
        <ele>1171</ele>
        <time>2010-01-01T02:41:05Z</time>
      </trkpt>
      <trkpt lat="45.1692" lon="5.6304">
        <ele>1170</ele>
        <time>2010-01-01T02:41:08Z</time>
      </trkpt>
      <trkpt lat="45.16921" lon="5.63032">
        <ele>1170</ele>
        <time>2010-01-01T02:41:10Z</time>
      </trkpt>
      <trkpt lat="45.16931" lon="5.63028">
        <ele>1169</ele>
        <time>2010-01-01T02:41:14Z</time>
      </trkpt>
      <trkpt lat="45.16935" lon="5.63029">
        <ele>1169</ele>
        <time>2010-01-01T02:41:16Z</time>
      </trkpt>
      <trkpt lat="45.16949" lon="5.63029">
        <ele>1169</ele>
        <time>2010-01-01T02:41:22Z</time>
      </trkpt>
      <trkpt lat="45.16966" lon="5.63025">
        <ele>1168</ele>
        <time>2010-01-01T02:41:28Z</time>
      </trkpt>
      <trkpt lat="45.16984" lon="5.63022">
        <ele>1167</ele>
        <time>2010-01-01T02:41:36Z</time>
      </trkpt>
      <trkpt lat="45.16987" lon="5.6302">
        <ele>1167</ele>
        <time>2010-01-01T02:41:37Z</time>
      </trkpt>
      <trkpt lat="45.17004" lon="5.63014">
        <ele>1166</ele>
        <time>2010-01-01T02:41:44Z</time>
      </trkpt>
      <trkpt lat="45.17024" lon="5.63011">
        <ele>1165</ele>
        <time>2010-01-01T02:41:52Z</time>
      </trkpt>
      <trkpt lat="45.17039" lon="5.63005">
        <ele>1165</ele>
        <time>2010-01-01T02:41:58Z</time>
      </trkpt>
      <trkpt lat="45.17054" lon="5.63004">
        <ele>1164</ele>
        <time>2010-01-01T02:42:04Z</time>
      </trkpt>
      <trkpt lat="45.17058" lon="5.63001">
        <ele>1164</ele>
        <time>2010-01-01T02:42:06Z</time>
      </trkpt>
    </trkseg>
  </trk>
</gpx>